[[{"header":{"parameterUnit":"m.s-1","parameterCategory":1,"la1":30.6,"la2":29.2853,"lo1":-89.7004,"lo2":-87.6739,"dy":0.0162,"dx":0.0183,"nx":112,"ny":82,"refTime":"2023-05-11T12:00:00:Z","depth":0,"parameterNumber":2,"parameterNumberName":"U-component_of_WINDS"},"data":[0.0,0.0,0.0,0.0,0.0,0.0,0.0,0.0,0.0,0.0,0.0,0.0,0.0,0.0,0.0,0.0,0.0,0.0,0.0,0.0,0.0,0.0,0.0,0.0,0.0,0.0,0.0,0.0,0.0,0.0,0.0,0.0,0.0,0.0,0.0,0.0,0.0,0.0,0.0,0.0,0.0,0.0,0.0,0.0,0.0,0.0,0.0,0.0,0.0,0.0,0.0,0.0,0.0,0.0,0.0,0.0,0.0,0.0,0.0,0.0,0.0,0.0,0.0,0.0,0.0,0.0,0.0,0.0,0.0,0.0,0.0,0.0,0.0,0.0,0.0,0.0,0.0,0.0,0.0,0.0,0.0,0.0,0.0,0.0,0.0,0.0,0.0,0.0,0.0,0.0,-5.8017,-6.1595,-6.5402,-6.7913,-6.8541,-6.6515,-6.3422,-5.9249,0.0,0.0,0.0,0.0,0.0,0.0,0.0,0.0,0.0,0.0,0.0,0.0,0.0,0.0,0.0,0.0,0.0,0.0,0.0,0.0,0.0,0.0,0.0,0.0,0.0,0.0,0.0,0.0,0.0,0.0,0.0,0.0,0.0,0.0,0.0,0.0,0.0,0.0,0.0,0.0,0.0,0.0,0.0,0.0,0.0,0.0,0.0,0.0,0.0,0.0,0.0,0.0,0.0,0.0,0.0,0.0,0.0,0.0,0.0,0.0,0.0,0.0,0.0,0.0,0.0,0.0,0.0,0.0,0.0,0.0,0.0,0.0,0.0,0.0,0.0,0.0,0.0,0.0,0.0,0.0,0.0,0.0,0.0,0.0,0.0,0.0,0.0,0.0,0.0,0.0,0.0,0.0,0.0,0.0,0.0,0.0,0.0,0.0,0.0,0.0,0.0,0.0,0.0,0.0,-5.7494,-6.2399,-6.4666,-6.6061,-6.6656,-6.5005,-6.2644,-5.9502,0.0,0.0,0.0,0.0,0.0,0.0,0.0,0.0,0.0,0.0,0.0,0.0,0.0,0.0,0.0,0.0,0.0,0.0,0.0,0.0,0.0,0.0,0.0,0.0,0.0,0.0,0.0,0.0,0.0,0.0,0.0,0.0,0.0,0.0,0.0,0.0,0.0,0.0,0.0,0.0,0.0,0.0,0.0,0.0,0.0,0.0,0.0,0.0,0.0,0.0,0.0,0.0,0.0,0.0,0.0,0.0,0.0,0.0,0.0,0.0,0.0,0.0,0.0,0.0,0.0,0.0,0.0,0.0,0.0,0.0,0.0,0.0,0.0,0.0,0.0,0.0,0.0,0.0,0.0,0.0,0.0,0.0,0.0,0.0,0.0,0.0,0.0,0.0,0.0,0.0,0.0,0.0,0.0,0.0,0.0,0.0,0.0,0.0,0.0,0.0,0.0,0.0,0.0,-5.5888,-5.8698,-6.1599,-6.3821,-6.5275,-6.5668,-6.4367,-6.2147,-5.8881,-5.7487,0.0,0.0,0.0,0.0,0.0,0.0,0.0,0.0,0.0,0.0,0.0,0.0,0.0,0.0,0.0,0.0,0.0,0.0,0.0,0.0,0.0,0.0,0.0,0.0,0.0,0.0,0.0,0.0,0.0,0.0,0.0,0.0,0.0,0.0,0.0,0.0,0.0,0.0,0.0,0.0,0.0,0.0,0.0,0.0,0.0,0.0,0.0,0.0,0.0,0.0,0.0,0.0,0.0,0.0,0.0,0.0,0.0,0.0,0.0,0.0,0.0,0.0,0.0,0.0,0.0,0.0,0.0,0.0,0.0,0.0,0.0,0.0,0.0,0.0,0.0,0.0,0.0,0.0,0.0,0.0,0.0,0.0,0.0,0.0,0.0,0.0,0.0,0.0,0.0,0.0,0.0,0.0,0.0,0.0,0.0,0.0,0.0,0.0,0.0,0.0,0.0,0.0,-5.6919,-5.9392,-6.0655,-6.296,-6.4532,-6.4942,-6.3502,-6.1326,-5.8343,-5.6771,0.0,0.0,0.0,0.0,0.0,0.0,0.0,0.0,0.0,0.0,0.0,0.0,0.0,0.0,0.0,0.0,0.0,0.0,0.0,0.0,0.0,0.0,0.0,0.0,0.0,0.0,0.0,0.0,0.0,0.0,0.0,0.0,0.0,0.0,0.0,0.0,0.0,0.0,0.0,0.0,0.0,0.0,0.0,0.0,0.0,0.0,0.0,0.0,0.0,0.0,0.0,0.0,0.0,0.0,0.0,0.0,0.0,0.0,0.0,0.0,0.0,0.0,0.0,0.0,0.0,0.0,0.0,0.0,0.0,0.0,0.0,0.0,0.0,0.0,0.0,0.0,0.0,0.0,0.0,0.0,0.0,0.0,0.0,0.0,0.0,0.0,0.0,0.0,0.0,0.0,0.0,0.0,0.0,0.0,0.0,0.0,0.0,0.0,0.0,0.0,0.0,0.0,-5.559,-5.8201,-6.0211,-6.1858,-6.3237,-6.4358,-6.1831,-5.9726,-5.8701,-5.5747,0.0,0.0,0.0,0.0,0.0,0.0,0.0,0.0,0.0,0.0,0.0,0.0,0.0,0.0,0.0,0.0,0.0,0.0,0.0,0.0,0.0,0.0,0.0,0.0,0.0,0.0,0.0,0.0,0.0,0.0,0.0,0.0,0.0,0.0,0.0,0.0,0.0,0.0,0.0,0.0,0.0,0.0,0.0,0.0,0.0,0.0,0.0,0.0,0.0,0.0,0.0,0.0,0.0,0.0,0.0,0.0,0.0,0.0,0.0,0.0,0.0,0.0,0.0,0.0,0.0,0.0,0.0,0.0,0.0,0.0,0.0,0.0,0.0,0.0,0.0,0.0,0.0,0.0,0.0,0.0,0.0,0.0,0.0,0.0,0.0,0.0,0.0,0.0,0.0,0.0,0.0,0.0,0.0,0.0,0.0,0.0,0.0,0.0,0.0,0.0,0.0,0.0,-5.4898,-5.7248,-5.9453,-6.1032,-6.2309,-6.3202,-6.1672,-5.9995,-5.8259,0.0,0.0,0.0,0.0,0.0,0.0,0.0,0.0,0.0,0.0,0.0,0.0,0.0,0.0,0.0,0.0,0.0,0.0,0.0,0.0,0.0,0.0,0.0,0.0,0.0,0.0,0.0,0.0,0.0,0.0,0.0,0.0,0.0,0.0,0.0,0.0,0.0,0.0,0.0,0.0,0.0,0.0,0.0,0.0,0.0,0.0,0.0,0.0,0.0,0.0,0.0,0.0,0.0,0.0,0.0,0.0,0.0,0.0,0.0,0.0,0.0,0.0,0.0,0.0,0.0,0.0,0.0,0.0,0.0,0.0,0.0,0.0,0.0,0.0,0.0,0.0,0.0,0.0,0.0,0.0,0.0,0.0,0.0,0.0,0.0,0.0,0.0,0.0,0.0,0.0,0.0,0.0,0.0,0.0,0.0,0.0,0.0,0.0,0.0,0.0,0.0,0.0,-5.2002,-5.3823,-5.5955,-5.8481,-5.9864,-6.0981,-6.1951,-6.0842,-5.9185,-5.7168,0.0,0.0,0.0,0.0,0.0,0.0,0.0,0.0,0.0,0.0,0.0,0.0,0.0,0.0,0.0,0.0,0.0,0.0,0.0,0.0,0.0,0.0,0.0,0.0,0.0,0.0,0.0,0.0,0.0,0.0,0.0,0.0,0.0,0.0,0.0,0.0,0.0,0.0,0.0,0.0,0.0,0.0,0.0,0.0,0.0,0.0,0.0,0.0,0.0,0.0,0.0,0.0,0.0,0.0,0.0,0.0,0.0,0.0,0.0,0.0,0.0,0.0,0.0,0.0,0.0,0.0,0.0,0.0,0.0,0.0,0.0,0.0,0.0,0.0,0.0,0.0,0.0,0.0,0.0,0.0,0.0,0.0,0.0,0.0,0.0,0.0,0.0,0.0,0.0,0.0,0.0,0.0,0.0,0.0,0.0,0.0,0.0,0.0,0.0,0.0,0.0,0.0,-5.1062,-5.2285,-5.4262,-5.7507,-5.8268,-5.9198,-6.0735,-5.8837,-5.6904,0.0,0.0,0.0,0.0,0.0,0.0,0.0,0.0,0.0,0.0,0.0,0.0,0.0,0.0,0.0,0.0,0.0,0.0,0.0,0.0,0.0,0.0,0.0,0.0,0.0,0.0,0.0,0.0,0.0,0.0,0.0,0.0,0.0,0.0,0.0,0.0,0.0,0.0,0.0,0.0,0.0,0.0,0.0,0.0,0.0,0.0,0.0,0.0,0.0,0.0,0.0,0.0,0.0,0.0,0.0,0.0,0.0,0.0,0.0,0.0,0.0,0.0,0.0,0.0,0.0,0.0,0.0,0.0,0.0,0.0,0.0,0.0,0.0,0.0,0.0,0.0,0.0,0.0,0.0,0.0,0.0,0.0,0.0,0.0,0.0,0.0,0.0,0.0,0.0,0.0,0.0,0.0,0.0,0.0,0.0,0.0,0.0,0.0,0.0,0.0,0.0,0.0,0.0,-5.0269,-5.1478,-5.3196,-5.5676,-5.6048,-5.6798,-5.8379,-5.6945,-5.5776,-5.5273,0.0,0.0,0.0,0.0,0.0,0.0,0.0,0.0,0.0,0.0,0.0,0.0,0.0,0.0,0.0,0.0,0.0,0.0,0.0,0.0,0.0,0.0,0.0,0.0,0.0,0.0,0.0,0.0,0.0,0.0,0.0,0.0,0.0,0.0,0.0,0.0,0.0,0.0,0.0,0.0,0.0,0.0,0.0,0.0,0.0,0.0,0.0,0.0,0.0,0.0,0.0,0.0,0.0,0.0,0.0,0.0,0.0,0.0,0.0,0.0,0.0,0.0,0.0,0.0,0.0,0.0,0.0,0.0,0.0,0.0,0.0,0.0,0.0,0.0,0.0,0.0,0.0,0.0,0.0,0.0,0.0,0.0,0.0,0.0,0.0,0.0,0.0,0.0,0.0,0.0,0.0,0.0,0.0,0.0,0.0,0.0,0.0,0.0,0.0,0.0,0.0,0.0,-4.941,-5.0549,-5.2132,-5.4467,-5.4611,-5.5077,-5.6445,-5.5718,-5.4641,-5.3259,0.0,0.0,0.0,0.0,0.0,0.0,0.0,0.0,0.0,0.0,0.0,0.0,0.0,0.0,0.0,0.0,0.0,0.0,0.0,0.0,0.0,0.0,0.0,0.0,0.0,0.0,0.0,0.0,0.0,0.0,0.0,0.0,0.0,0.0,0.0,0.0,0.0,0.0,0.0,0.0,0.0,0.0,0.0,0.0,0.0,0.0,0.0,0.0,0.0,0.0,0.0,0.0,0.0,0.0,0.0,0.0,0.0,0.0,0.0,0.0,0.0,0.0,0.0,0.0,0.0,0.0,0.0,0.0,0.0,0.0,0.0,0.0,0.0,0.0,0.0,0.0,0.0,0.0,0.0,0.0,0.0,0.0,0.0,0.0,0.0,0.0,0.0,0.0,0.0,0.0,0.0,0.0,0.0,0.0,0.0,0.0,0.0,0.0,0.0,0.0,0.0,0.0,-4.8512,-4.9577,-5.1106,-5.3588,-5.362,-5.3847,-5.4794,-5.4806,-5.3471,-5.0414,0.0,0.0,0.0,0.0,0.0,0.0,0.0,0.0,0.0,0.0,0.0,0.0,0.0,0.0,0.0,0.0,0.0,0.0,0.0,0.0,0.0,0.0,0.0,0.0,0.0,0.0,0.0,0.0,0.0,0.0,0.0,0.0,0.0,0.0,0.0,0.0,0.0,0.0,0.0,0.0,0.0,0.0,0.0,0.0,0.0,0.0,0.0,0.0,0.0,0.0,0.0,0.0,0.0,0.0,0.0,0.0,0.0,0.0,0.0,0.0,-4.7897,-4.8602,0.0,0.0,0.0,0.0,0.0,0.0,0.0,0.0,0.0,0.0,0.0,0.0,0.0,0.0,0.0,0.0,0.0,0.0,0.0,0.0,0.0,0.0,0.0,0.0,0.0,0.0,0.0,0.0,0.0,0.0,0.0,0.0,0.0,0.0,0.0,0.0,0.0,0.0,0.0,0.0,-4.7758,-4.9238,-5.0633,-5.1693,-5.1783,-5.2123,-5.3046,-5.2595,-5.1989,-5.1328,-5.0097,0.0,0.0,0.0,0.0,0.0,0.0,0.0,0.0,0.0,0.0,0.0,0.0,0.0,0.0,0.0,0.0,0.0,0.0,0.0,0.0,0.0,0.0,0.0,0.0,0.0,0.0,0.0,0.0,0.0,0.0,0.0,0.0,0.0,0.0,0.0,0.0,0.0,0.0,0.0,0.0,0.0,0.0,0.0,0.0,0.0,0.0,0.0,0.0,0.0,0.0,0.0,0.0,0.0,0.0,0.0,0.0,0.0,0.0,0.0,-4.7544,-4.7703,0.0,0.0,0.0,0.0,0.0,0.0,0.0,0.0,0.0,0.0,0.0,0.0,0.0,0.0,0.0,0.0,0.0,0.0,0.0,0.0,0.0,0.0,0.0,0.0,0.0,0.0,0.0,0.0,0.0,0.0,0.0,0.0,0.0,0.0,0.0,0.0,0.0,0.0,0.0,0.0,-4.716,-4.879,-5.0109,-5.0793,-5.0947,-5.1246,-5.1697,-5.1486,-5.0997,-5.0205,-4.9698,0.0,0.0,0.0,0.0,0.0,0.0,0.0,0.0,0.0,0.0,0.0,0.0,0.0,0.0,0.0,0.0,0.0,0.0,0.0,0.0,0.0,0.0,0.0,0.0,0.0,0.0,0.0,0.0,0.0,0.0,0.0,0.0,0.0,0.0,0.0,0.0,0.0,0.0,0.0,0.0,0.0,0.0,0.0,0.0,0.0,0.0,0.0,0.0,0.0,0.0,0.0,0.0,0.0,-4.7512,-4.8009,-4.8531,-4.8473,-4.8445,-4.8387,-4.7035,-4.6635,-4.6829,-4.6333,0.0,0.0,0.0,0.0,0.0,0.0,0.0,0.0,0.0,0.0,0.0,0.0,0.0,0.0,0.0,0.0,0.0,0.0,0.0,0.0,0.0,0.0,-4.3715,-4.3824,-4.3625,-4.4042,-4.6052,0.0,0.0,0.0,0.0,0.0,0.0,0.0,0.0,0.0,0.0,0.0,-4.6783,-4.8515,-4.9881,-5.0442,-5.0662,-5.0728,-5.0728,-5.0917,-5.0375,-4.8699,-4.9293,-4.8304,0.0,0.0,0.0,0.0,0.0,0.0,0.0,0.0,0.0,0.0,0.0,0.0,0.0,0.0,0.0,0.0,0.0,0.0,0.0,0.0,0.0,0.0,0.0,0.0,0.0,0.0,0.0,0.0,0.0,0.0,0.0,0.0,-4.7184,-4.6985,0.0,0.0,0.0,0.0,0.0,0.0,0.0,0.0,0.0,0.0,0.0,0.0,0.0,-4.6602,-4.741,-4.7013,-4.7188,-4.8057,-4.7848,-4.7812,-4.7922,-4.7595,-4.7472,-4.7476,-4.7014,0.0,-4.7522,-4.6699,0.0,0.0,0.0,0.0,0.0,0.0,0.0,0.0,0.0,0.0,0.0,0.0,0.0,0.0,0.0,0.0,0.0,0.0,0.0,0.0,0.0,0.0,-4.3233,-4.4461,-4.402,-4.3584,-4.4541,-4.4084,-4.3575,-4.3788,-4.3614,-4.3647,0.0,0.0,0.0,0.0,0.0,0.0,-4.6901,-4.8929,-5.0412,-5.0501,-5.0548,-5.0548,-5.0548,-5.0596,-4.9976,-4.8604,-4.8117,-4.7392,-4.6413,-4.4857,0.0,0.0,0.0,0.0,0.0,0.0,0.0,0.0,0.0,0.0,0.0,0.0,0.0,0.0,0.0,0.0,0.0,0.0,0.0,0.0,0.0,0.0,0.0,0.0,0.0,0.0,0.0,0.0,0.0,-4.6909,-4.6692,-4.6438,-4.6399,-4.5984,0.0,0.0,0.0,0.0,0.0,0.0,0.0,0.0,0.0,-4.645,-4.6476,-4.6733,-4.714,-4.7357,-4.7699,-4.8076,-4.8292,-4.8446,-4.8421,-4.8283,-4.7999,-4.7748,-4.7607,-4.7503,-4.7422,-4.713,-4.698,-4.6823,0.0,0.0,0.0,0.0,-4.4996,-4.4618,-4.4618,-4.445,-4.4283,-4.4799,0.0,0.0,0.0,0.0,0.0,0.0,0.0,-4.4443,-4.3781,-4.3677,-4.3724,-4.3651,-4.3331,-4.3187,-4.3538,-4.3048,-4.2859,-4.384,-4.4222,-4.428,-4.3941,-4.3845,0.0,0.0,0.0,-4.6475,-4.743,-4.8717,-4.9629,-5.0009,-5.0183,-5.0086,-4.9591,-4.9688,-4.904,-4.7262,-4.7322,-4.6799,-4.5461,-4.5008,-4.4334,0.0,0.0,0.0,0.0,0.0,0.0,0.0,0.0,0.0,0.0,0.0,0.0,0.0,0.0,0.0,0.0,0.0,0.0,0.0,0.0,0.0,0.0,0.0,0.0,0.0,0.0,0.0,0.0,-4.6532,-4.6298,-4.5729,-4.6165,-4.5865,0.0,0.0,0.0,0.0,0.0,0.0,-4.615,-4.6353,-4.673,-4.7163,-4.7202,-4.7293,-4.7354,-4.8156,-4.8559,-4.8682,-4.9091,-4.9358,-4.9358,-4.9204,-4.8846,-4.8282,-4.8154,-4.7744,-4.7195,-4.7113,-4.7055,-4.6903,-4.6438,-4.57,-4.4984,-4.5171,-4.5194,-4.5156,-4.5156,-4.5156,-4.5183,-4.5498,-4.5142,-4.4538,-4.4201,0.0,0.0,0.0,0.0,-4.4436,-4.3645,-4.3704,-4.3806,-4.299,-4.2907,-4.2986,-4.2986,-4.2715,-4.2783,-4.3987,-4.4506,-4.4495,-4.3617,-4.3639,0.0,-4.404,-4.4809,-4.5873,-4.7365,-4.8067,-4.8709,-4.9444,-4.9377,-4.9066,-4.8446,-4.8226,-4.7468,-4.5902,-4.6409,-4.6026,-4.4542,-4.4838,-4.4341,-4.2838,0.0,0.0,0.0,0.0,0.0,0.0,0.0,0.0,0.0,0.0,0.0,0.0,0.0,0.0,0.0,0.0,0.0,0.0,0.0,0.0,0.0,0.0,0.0,0.0,0.0,0.0,0.0,0.0,0.0,-4.4935,-4.5883,0.0,0.0,0.0,0.0,-4.4558,-4.5137,-4.549,-4.5565,-4.6512,-4.7054,-4.7079,-4.8171,-4.885,-4.9165,-4.9723,-5.0168,-5.046,-5.0486,-5.0511,-5.0486,-4.9999,-4.9435,-4.8846,-4.8307,-4.7744,-4.7154,-4.6305,-4.5381,-4.45,-4.4449,-4.3453,-4.21,-4.2879,-4.2991,-4.2788,-4.2788,-4.2788,-4.2971,-4.4045,-4.5012,-4.5496,-4.4308,-4.4834,0.0,0.0,-4.297,-4.3902,-4.2931,-4.2703,-4.2776,-4.3229,-4.3159,-4.2986,-4.2986,-4.2961,-4.3093,-4.3645,-4.3363,-4.3385,-4.4525,0.0,-4.3901,-4.4138,-4.4541,-4.5128,-4.5993,-4.7007,-4.7993,-4.8831,-4.7971,-4.7306,-4.7306,-4.6073,-4.5216,-4.5061,-4.5111,-4.4907,-4.442,-4.3897,-4.3456,-4.3088,-4.169,0.0,0.0,0.0,0.0,0.0,0.0,0.0,0.0,0.0,0.0,0.0,0.0,0.0,0.0,0.0,0.0,0.0,0.0,0.0,0.0,0.0,0.0,0.0,0.0,0.0,0.0,0.0,0.0,-4.5799,-4.6642,0.0,-4.5826,-4.5716,-4.5674,-4.5698,-4.6225,-4.6702,-4.7029,-4.7782,-4.836,-4.8711,-4.9088,-4.9378,-4.9506,-4.9682,-4.9847,-4.9976,-4.9976,-4.9976,-4.9976,-4.9773,-4.9166,-4.828,-4.8078,-4.7471,-4.6576,-4.6254,-4.5986,-4.5598,-4.5297,-4.45,-4.3713,-4.3807,-4.3656,-4.3447,-4.3638,-4.3584,-4.3476,-4.3457,-4.37,-4.3808,-4.278,-4.2813,-4.3075,-4.2296,-4.2613,-4.3145,-4.314,-4.3102,-4.3153,-4.3356,-4.3184,-4.2986,-4.2986,-4.2986,-4.3022,-4.3208,-4.3114,-4.3022,-4.3095,-4.3226,-4.3439,-4.3882,-4.4385,-4.5099,-4.6055,-4.6541,-4.6867,-4.7177,-4.683,-4.6247,-4.5403,-4.4877,-4.401,-4.2782,-4.3136,-4.3152,-4.2625,-4.2863,-4.2794,-4.227,-4.1404,-4.0722,0.0,0.0,0.0,0.0,0.0,0.0,0.0,0.0,0.0,0.0,0.0,0.0,0.0,0.0,0.0,0.0,0.0,0.0,0.0,0.0,0.0,0.0,0.0,0.0,0.0,-4.6078,-4.6568,-4.6569,-4.7582,-4.7904,-4.6928,-4.6853,-4.6928,-4.7129,-4.7481,-4.7908,-4.8435,-4.9012,-4.9414,-4.959,-4.9967,-4.9992,-4.959,-4.9766,-4.9766,-4.959,-4.959,-4.959,-4.959,-4.959,-4.8987,-4.7908,-4.7908,-4.7305,-4.6301,-4.6301,-4.6339,-4.6323,-4.57,-4.5221,-4.495,-4.4694,-4.4487,-4.4322,-4.4226,-4.4064,-4.3823,-4.3438,-4.331,-4.3204,-4.2605,-4.2423,-4.2446,-4.2583,-4.2819,-4.3085,-4.3194,-4.3351,-4.3406,-4.3295,-4.3129,-4.2986,-4.2986,-4.293,-4.2793,-4.2793,-4.293,-4.2861,-4.2539,-4.2735,-4.3113,-4.3473,-4.3839,-4.4507,-4.5502,-4.5608,-4.5714,-4.6032,-4.5685,-4.5102,-4.4204,-4.3703,-4.2838,-4.1618,-4.1957,-4.2034,-4.1516,-4.2013,-4.2069,-4.1523,-4.0855,-3.9974,-3.8872,0.0,0.0,0.0,0.0,0.0,0.0,0.0,0.0,0.0,0.0,0.0,0.0,0.0,0.0,0.0,0.0,0.0,0.0,0.0,0.0,0.0,0.0,0.0,-4.4771,-4.6525,-4.7757,-4.7193,-4.8636,-4.9188,-4.8058,-4.7958,-4.8184,-4.8761,-4.8786,-4.9038,-4.959,-5.0117,-5.0167,-4.9665,-5.0695,-5.0745,-4.964,-5.0142,-5.0142,-4.9615,-4.9615,-4.9615,-4.9615,-4.9615,-4.8987,-4.7933,-4.7908,-4.7305,-4.6326,-4.6326,-4.6301,-4.62,-4.5446,-4.5304,-4.5571,-4.5288,-4.5193,-4.5059,-4.4241,-4.3896,-4.3925,-4.3925,-4.3925,-4.3899,-4.3899,-4.3899,-4.3764,-4.3462,-4.3653,-4.3734,-4.3154,-4.3184,-4.3351,-4.3073,-4.2986,-4.2986,-4.2986,-4.2737,-4.2457,-4.2457,-4.2737,-4.2986,-4.2986,-4.2986,-4.2986,-4.2986,-4.2986,0.0,-4.4097,-4.4206,-4.4507,-4.5289,-4.4387,-4.3727,-4.3727,-4.2464,-4.1679,-4.1653,-4.1679,-4.1572,-4.1225,-4.1279,-4.113,-4.0767,-3.9891,-3.8519,-3.659,0.0,0.0,0.0,0.0,0.0,0.0,0.0,0.0,0.0,0.0,0.0,0.0,0.0,0.0,0.0,0.0,0.0,0.0,0.0,0.0,0.0,-4.4843,-4.5588,-4.5784,-4.7428,-4.8485,-4.8335,-4.9439,-4.9916,-4.9188,-4.9138,-4.9188,-4.9364,-4.9364,-4.9615,-5.0167,-5.0343,-5.0544,-5.0795,-5.1122,-5.0921,-5.0193,-5.0343,-5.0343,-5.0193,-4.9791,-4.9791,-5.0167,-4.9766,-4.9213,-4.851,-4.8083,-4.7531,-4.6878,-4.6476,-4.6301,-4.625,-4.5641,-4.5422,-4.5489,-4.5253,-4.5164,-4.5081,-4.4561,-4.4143,-4.3815,-4.3815,-4.3538,-4.3265,-4.3265,-4.3265,-4.3209,-4.3129,-4.3209,-4.3209,-4.3042,-4.3017,-4.3073,-4.3042,-4.2793,-4.2625,-4.2625,-4.2425,-4.2199,-4.2199,-4.2256,-4.2312,-4.2312,-4.2312,-4.2312,-4.2312,-4.2312,-4.2425,-4.265,-4.2706,-4.2818,-4.3017,-4.278,-4.2418,-4.2018,-4.1275,-4.0749,-4.0539,-3.9982,-3.9705,-3.981,-3.9608,-3.9109,-3.8212,-3.7942,-3.6701,0.0,0.0,0.0,0.0,0.0,0.0,0.0,0.0,0.0,0.0,0.0,0.0,0.0,0.0,0.0,0.0,0.0,0.0,0.0,0.0,0.0,0.0,-4.6162,-4.7129,-4.7933,-4.8862,-4.954,-4.9791,-5.0393,-5.0645,-5.0343,-4.9866,-4.959,-4.959,-4.9816,-5.0067,-5.0393,-5.087,-5.1172,-5.1272,-5.1724,-5.1599,-5.0795,-5.1021,-5.0896,-5.0419,-5.0092,-4.9992,-5.0067,-4.9741,-4.9289,-4.8736,-4.8159,-4.7606,-4.7043,-4.6552,-4.6301,-4.625,0.0,0.0,0.0,0.0,-4.5436,-4.5352,-4.481,-4.4267,-4.379,-4.379,-4.3438,-4.2986,-4.2986,-4.2986,-4.2986,-4.2986,-4.2986,-4.2986,-4.2818,-4.2818,-4.2762,-4.265,-4.2481,-4.2312,-4.2312,-4.2086,-4.1915,-4.1915,-4.1802,0.0,-4.1688,-4.194,-4.211,-4.211,-4.211,-4.211,-4.211,-4.211,-4.211,-4.211,-4.211,-4.1987,-4.1668,-4.1127,0.0,0.0,0.0,-3.9139,-3.9127,-3.8893,0.0,0.0,0.0,-3.5747,-3.3581,-3.3492,0.0,0.0,-3.2858,-3.2572,0.0,0.0,0.0,0.0,0.0,0.0,0.0,0.0,0.0,0.0,0.0,0.0,0.0,0.0,0.0,0.0,-4.8159,-4.9264,-5.0368,-5.0569,-5.0745,-5.1147,-5.1247,-5.1222,-5.1096,-5.0243,-4.9665,-4.959,-5.0167,-5.0519,-5.0519,-5.1523,0.0,0.0,0.0,-5.2402,-5.1297,-5.1774,-5.1473,-5.0419,-5.0343,-5.0092,-4.969,-4.9615,-4.9339,-4.8837,-4.8184,-4.7657,-4.7179,-4.6552,-4.6301,-4.625,-4.5773,-4.6053,-4.667,-4.6163,-4.5961,-4.5826,-4.5053,0.0,0.0,-4.389,-4.3489,-4.2986,-4.2986,-4.2986,-4.2986,-4.2986,-4.293,-4.2874,-4.2569,-4.2457,-4.2369,-4.2167,-4.2054,-4.2029,-4.2029,-4.1802,-4.1549,-4.1549,-4.1344,-4.1172,-4.1172,-4.1631,-4.1997,-4.1997,-4.1997,-4.1997,-4.1997,-4.1997,-4.1997,-4.1997,-4.1997,0.0,-4.1997,-4.1433,-4.0949,-4.0458,-3.9815,-3.9145,-3.8603,-3.8473,-3.7786,-3.6478,-3.6215,-3.5178,-3.3263,-3.3166,-3.2376,-3.097,-3.1617,-3.199,0.0,0.0,0.0,0.0,0.0,0.0,0.0,0.0,0.0,0.0,0.0,0.0,0.0,0.0,0.0,-4.7556,-4.8711,-4.9816,-5.0946,-5.1498,-5.1473,-5.067,-5.0996,-5.0921,-5.0017,-5.0117,-5.0067,-4.9615,-5.0544,-5.1122,-5.1122,-5.1749,-5.2251,-5.2603,-5.2804,-5.2402,-5.1297,-5.1398,-5.1096,-5.0419,-4.9967,0.0,-5.0243,-4.9791,-4.954,-4.9389,-4.836,-4.7857,-4.7682,-4.6702,-4.6301,-4.6301,-4.62,-4.6285,-4.6361,-4.626,-4.621,-4.6185,-4.6024,-4.5321,-4.4468,-4.4468,-4.379,-4.2986,-4.2706,-4.2818,0.0,-4.2681,-4.2569,-4.2569,-4.2513,-4.2369,-4.2167,-4.211,-4.1915,-4.172,-4.172,-4.1516,-4.1287,-4.1287,-4.123,-4.1172,-4.1172,-4.1287,-4.1344,-4.1344,-4.1344,-4.1344,-4.1344,-4.1344,-4.1344,-4.1344,-4.1344,-4.1344,-4.1344,-4.0475,-3.9982,-4.0081,-3.8539,-3.7429,-3.7143,-3.6417,-3.5731,-3.5015,-3.4962,-3.3933,-3.1909,-3.1837,-3.1021,-2.9554,-3.0905,-3.0988,0.0,0.0,0.0,0.0,0.0,0.0,0.0,0.0,0.0,0.0,0.0,-4.4871,-4.5733,0.0,-4.7983,-4.9364,-5.0293,-5.1147,-5.1975,-5.2352,-5.2101,-5.0971,-5.1096,-5.1071,-5.0494,-5.0419,-5.0419,-5.0444,-5.1222,-5.1699,-5.1699,-5.2226,-5.2628,-5.2929,-5.2929,-5.2653,-5.2126,-5.2101,-5.1674,-5.0845,-5.0569,-5.0293,-4.9992,-4.9715,-4.959,-4.954,-4.8385,-4.7908,-4.7832,-4.6753,-4.6301,-4.6301,-4.6301,-4.6301,-4.6301,-4.6301,-4.6301,-4.6301,-4.6301,-4.5573,-4.456,-4.4469,-4.3776,-4.293,-4.2425,-4.2538,-4.2706,-4.2369,-4.2312,-4.2256,-4.2061,-4.1948,-4.1802,-4.1688,-4.1516,-4.1402,-4.1402,-4.1287,-4.1172,-4.1172,-4.1172,-4.1172,-4.1172,-4.1172,-4.1172,-4.1172,-4.1172,-4.1172,-4.1172,-4.1172,-4.1172,-4.1172,-4.1172,-4.1172,-4.1172,-4.021,-3.9259,-3.8435,-3.7456,-3.6634,-3.6091,-3.5653,-3.5024,-3.434,-3.3934,-3.2911,-3.1204,-3.088,-3.0153,-2.9132,-3.0003,-3.0036,0.0,0.0,0.0,0.0,0.0,0.0,0.0,-4.3371,-4.3263,-4.4367,-4.5045,-4.5874,-4.733,-4.8435,-4.9615,-5.1197,-5.1825,-5.2302,-5.2854,-5.2929,-5.2553,-5.1548,-5.1348,-5.1272,-5.1272,-5.087,-5.077,-5.1247,-5.19,-5.2226,-5.2126,-5.2628,-5.2929,-5.2929,-5.2929,-5.2879,-5.2779,-5.2779,-5.2201,-5.1122,-5.1122,-5.0569,-4.959,-4.959,-4.959,-4.954,-4.8385,-4.7782,-4.7531,-4.6677,-4.6301,-4.6301,-4.6301,-4.6301,-4.6301,-4.6301,-4.6301,-4.6301,-4.6175,-4.5488,-4.4594,-4.4286,-4.3622,-4.2856,-4.2315,-4.2347,-4.2517,-4.2258,-4.2144,-4.2087,-4.1809,-4.1622,-4.1435,-4.123,-4.1172,-4.1172,-4.1172,-4.1172,-4.1172,-4.1172,-4.1172,-4.1172,-4.1172,-4.1172,-4.1172,-4.1172,-4.1172,-4.1172,-4.1172,-4.1172,-4.1172,-4.1172,-4.1172,-4.1043,-4.0655,-3.9866,-3.8524,-3.6541,-3.6254,-3.5763,-3.5102,-3.488,-3.4413,-3.3572,-3.2937,-3.1996,-3.0736,-3.0158,-2.9535,-2.894,-2.9084,-2.9118,-4.3641,-4.229,-4.1897,-4.333,-4.3381,-4.3652,0.0,-4.626,-4.615,-4.723,-4.7908,-4.851,-4.9188,-4.9816,-5.0619,-5.1825,-5.2076,-5.2302,-5.2854,-5.2929,-5.2703,-5.2076,-5.1574,-5.1272,-5.1272,-5.1222,-5.1222,-5.1272,-5.2251,-5.2628,-5.2126,-5.2628,-5.2929,-5.2929,-5.2929,-5.2678,-5.2201,-5.2201,-5.1624,-5.0519,-5.0519,-5.0193,-4.959,-4.959,-4.959,-4.954,-4.8385,-4.738,-4.6476,-4.6351,-4.6301,-4.6301,-4.6301,-4.6301,-4.6301,-4.6301,-4.6301,-4.6225,-4.5748,-4.532,-4.4883,-4.4351,-4.3606,-4.2856,-4.2485,-4.2625,-4.2823,-4.2452,-4.2369,-4.2369,-4.2311,-4.1798,-4.123,-4.1172,-4.1172,-4.1172,-4.1172,-4.1172,-4.1172,-4.1172,-4.1172,-4.1172,-4.1172,-4.1172,-4.1172,-4.1172,-4.1172,-4.1172,-4.1172,-4.1172,-4.1172,-4.1172,-4.1172,-4.0502,-3.8761,-3.8517,-3.7613,-3.5666,-3.4525,-3.3909,-3.3797,-3.3084,-3.2477,-3.2076,-3.1855,-3.1182,-3.0072,-2.9674,-2.9075,-2.8408,-2.8393,-2.8554,-4.3808,-4.2551,-4.2115,-4.3111,-4.3915,-4.4836,-4.5909,-4.6749,-4.7556,-4.8661,-4.9088,-4.9515,-5.0419,-5.1021,-5.1548,-5.2026,-5.2377,-5.2653,-5.2904,-5.2653,-5.2352,-5.2126,-5.1624,-5.1398,-5.1724,-5.1749,-5.19,-5.2226,-5.2678,-5.2829,-5.2603,-5.2804,-5.2929,-5.2929,-5.2929,-5.2829,-5.2578,-5.2578,-5.2176,-5.1398,-5.1071,-5.0619,-5.0067,-4.9741,-4.9414,-4.9063,-4.8259,-4.7481,-4.6753,-4.6451,-4.6301,-4.6301,-4.6301,-4.6301,-4.6301,-4.6301,-4.6301,-4.6276,-4.605,-4.551,-4.4913,-4.4546,-4.3703,-4.2806,-4.2317,-4.2351,-4.2525,-4.2258,-4.22,-4.22,-4.22,-4.1697,-4.1172,-4.1172,-4.1172,-4.1172,-4.1172,-4.1172,-4.1172,-4.1172,-4.1172,-4.1172,-4.1172,-4.1172,-4.1172,-4.1172,-4.1172,-4.1172,-4.1172,-4.1172,-4.1172,-4.1172,-4.0687,-3.98,-3.8428,-3.7747,-3.6522,-3.4479,-3.3853,-3.331,-3.2571,-3.219,-3.196,-3.1787,-3.1047,-3.0438,-2.998,-2.9159,-2.8618,-2.8301,-2.8301,-2.8354,-4.3965,-4.3125,-4.2874,-4.3502,-4.4865,-4.6042,-4.6361,-4.7419,-4.8661,-4.9615,-4.9816,-5.0167,-5.1297,-5.1825,-5.2151,-5.2302,-5.2678,-5.2929,-5.2929,-5.2521,-5.2236,-5.2236,-5.1866,-5.1766,-5.2186,-5.2169,-5.2327,-5.2879,-5.2929,-5.2929,-5.2929,-5.2929,-5.2929,-5.2929,-5.2929,-5.2929,-5.2929,-5.2929,-5.2653,-5.2101,-5.1699,-5.1122,-5.0393,-4.9841,-4.9289,-4.8736,-4.8159,-4.7606,-4.7043,-4.6552,-4.6301,-4.6301,-4.6301,-4.6301,-4.6301,-4.6301,-4.6301,-4.6301,-4.6005,-4.5565,-4.5017,-4.4544,-4.3776,-4.2964,-4.2407,-4.2455,-4.2621,-4.2097,-4.2145,-4.2217,-4.2014,-4.1581,-4.1172,-4.1172,-4.1172,-4.1172,-4.1172,-4.1172,-4.1172,-4.1172,-4.1172,-4.1172,-4.1172,-4.1172,-4.1172,-4.1172,-4.1172,-4.1172,-4.1172,-4.0942,-4.0711,-4.0397,-3.9593,-3.863,-3.7474,-3.6643,-3.5285,-3.3239,-3.3027,-3.2571,-3.1672,-3.1672,-3.1614,-3.1556,-3.0528,-2.998,-2.9905,-2.8819,-2.8301,-2.8301,-2.8301,-2.8301,-4.4151,-4.3887,-4.4036,-4.5162,-4.624,-4.7344,-4.8485,-4.9138,-4.9715,-5.0268,-5.0393,-5.0745,-5.1875,-5.2101,-5.2277,-5.2804,-5.2929,-5.2929,-5.2929,-5.2699,-5.2615,-5.2615,-5.2399,-5.2338,-5.2539,-5.2304,-5.2327,-5.2879,-5.2929,-5.2929,-5.2929,-5.2929,-5.2929,-5.2929,-5.2929,-5.2929,-5.2929,-5.2929,-5.2653,-5.2101,-5.2076,-5.1498,-5.0393,-4.9841,-4.9289,-4.8736,-4.8159,-4.7606,-4.7043,-4.6552,-4.6301,-4.6301,-4.6301,-4.6301,-4.6301,-4.6301,-4.6301,-4.6165,-4.5341,-4.513,-4.5147,-4.4269,-4.3748,-4.3361,-4.294,-4.3072,-4.3265,-4.2254,-4.241,-4.2675,-4.2169,-4.1581,-4.1172,-4.1172,-4.1172,-4.1172,-4.1172,-4.1172,-4.1172,-4.1172,-4.1172,-4.1172,-4.1172,-4.1172,-4.1172,-4.1172,-4.1172,-4.1172,-4.1172,-4.0339,-3.938,-3.8492,-3.7924,-3.6963,-3.5232,-3.4724,-3.3702,-3.1981,-3.1556,-3.1325,-3.1325,-3.1325,-3.1208,-3.0957,-3.0322,-2.9849,-2.9626,-2.8711,-2.8301,-2.8301,-2.8301,-2.8301,-4.4517,-4.3907,-4.3756,-4.4706,-4.5735,-4.6699,-4.7764,-4.8843,-4.9741,-5.0293,-5.0117,-5.0092,-5.0845,-5.1297,-5.1624,-5.18,-5.2452,-5.2929,-5.2929,-5.2521,-5.2153,-5.18,-5.1905,-5.1834,-5.1524,-5.2051,-5.2598,-5.2879,-5.2929,-5.2929,-5.2929,-5.2929,-5.2929,-5.2929,-5.2929,-5.2929,-5.2929,-5.2929,-5.2829,-5.2628,-5.19,-5.0971,-4.9866,-4.9665,-4.949,-4.9289,-4.8711,-4.8159,-4.7606,-4.7079,-4.6652,-4.6301,-4.6301,-4.6301,-4.6301,-4.6301,-4.618,-4.5914,-4.5619,-4.5426,-4.5245,-4.4683,-4.4062,-4.3409,-4.2904,-4.312,-4.3289,-4.2254,-4.241,-4.2699,-4.2169,-4.1581,-4.1172,-4.1172,-4.1172,-4.1172,-4.1172,-4.1172,-4.1172,-4.1172,-4.1172,-4.1172,-4.1172,-4.1172,-4.1,-4.0339,-4.0199,-4.0199,-4.0199,-3.918,-3.8216,-3.7606,-3.6638,-3.5516,-3.4397,-3.3568,-3.2659,-3.1538,-3.1383,-3.1208,-3.1054,-3.1054,-3.0995,-3.0898,-3.0407,-2.9956,-2.9626,-2.8984,-2.8574,-2.8301,-2.8301,-2.8301,-4.528,-4.4611,-4.4283,-4.5503,-4.6199,-4.6874,-4.7857,-4.8624,-4.9329,-4.9819,-4.9453,-4.9163,-4.9715,-5.0293,-5.067,-5.067,-5.1624,-5.2402,-5.2603,-5.2287,-5.1951,-5.1774,-5.1727,-5.1529,-5.1271,-5.1702,-5.2127,-5.248,-5.2909,-5.2991,-5.2653,-5.2829,-5.2929,-5.2929,-5.2929,-5.2829,-5.2628,-5.2829,-5.2829,-5.2628,-5.1498,-5.0594,-4.9891,-4.969,-4.959,-4.9565,-4.8786,-4.8259,-4.7857,-4.7129,-4.6627,-4.6301,-4.6301,-4.6301,-4.6301,-4.6301,-4.6059,-4.5757,-4.5635,-4.5392,-4.5086,-4.4717,-4.4085,-4.3409,-4.2904,-4.312,-4.3265,-4.2038,-4.2265,-4.2651,-4.187,-4.1437,-4.1172,-4.1172,-4.1172,-4.1172,-4.1172,-4.1172,-4.1172,-4.1172,-4.1172,-4.1172,-4.1172,-4.0884,-4.0455,-3.9791,-3.9121,-3.8648,-3.8529,-3.7657,-3.678,-3.6058,-3.4963,-3.393,-3.3293,-3.2525,-3.1817,-3.119,-3.117,-3.1054,-3.0898,-3.0898,-3.0898,-3.0898,-3.043,-3.0,-2.9626,-2.9297,-2.8848,-2.8301,-2.8437,-2.8437,-4.6446,-4.5931,-4.5713,-4.7322,-4.7594,-4.7727,-4.8669,-4.8652,-4.8604,-4.9101,-4.8522,-4.8045,-4.8573,-4.9152,-4.9515,-4.954,-5.0544,-5.1523,-5.2076,-5.2009,-5.2057,-5.2539,-5.1889,-5.1495,-5.1743,-5.1245,-5.1169,-5.1702,-5.2793,-5.3088,-5.2176,-5.2628,-5.2929,-5.2929,-5.2929,-5.2653,-5.2126,-5.2603,-5.2578,-5.2051,-5.0946,-5.0393,-5.0303,-4.9841,-4.959,-4.9425,-4.841,-4.7908,-4.7782,-4.6778,-4.6326,-4.6301,-4.6301,-4.6301,-4.6301,-4.6301,-4.6059,-4.5757,-4.5392,-4.5086,-4.4717,-4.4409,-4.3962,-4.3409,-4.2904,-4.312,-4.3192,-4.1653,-4.1966,-4.2578,-4.1485,-4.1196,-4.1172,-4.1172,-4.1172,-4.1172,-4.1172,-4.1172,-4.1172,-4.1172,-4.1172,-4.1172,-4.1172,-4.0397,-3.9674,-3.9674,-3.8052,-3.6746,-3.6441,-3.5915,-3.5158,-3.3861,-3.2995,-3.2353,-3.1959,-3.1524,-3.117,-3.0898,-3.0898,-3.0898,-3.0898,-3.0898,-3.0898,-3.0898,-3.0449,-3.0019,-2.9626,-2.959,-2.916,-2.8301,-2.873,-2.8691,-4.7125,-4.7005,-4.7114,-4.7645,-4.7712,-4.7885,-4.8892,-4.9129,-4.9159,-4.9322,-4.8532,-4.7564,-4.7044,-4.7713,-4.8485,-4.8912,-5.0619,-5.2076,-5.2628,-5.2646,-5.2538,-5.2261,-5.194,-5.1514,-5.1195,-5.1238,-5.1277,-5.1144,-5.1942,-5.2495,-5.2703,-5.2854,-5.2929,-5.2929,-5.2929,-5.2653,-5.2126,-5.1825,-5.1624,-5.1473,-5.077,-5.0062,-4.9466,-4.9536,-4.9107,-4.8259,-4.8496,-4.7958,-4.6935,-4.6906,-4.6677,-4.6301,-4.6301,-4.6301,-4.6301,-4.6301,-4.5939,-4.5392,-4.5331,-4.5086,-4.4717,-4.4409,-4.3962,-4.3409,-4.2904,-4.312,-4.3265,-4.211,-4.2313,-4.2675,-4.1942,-4.1485,-4.1172,-4.1172,-4.1172,-4.1172,-4.1172,-4.1172,-4.1172,-4.1172,-4.1172,-4.1172,-4.1172,-4.0397,-3.9474,-3.8766,-3.7654,-3.6746,-3.6441,-3.5417,-3.4309,-3.3114,-3.2553,-3.1978,-3.1211,-3.1054,-3.0937,-3.0898,-3.0898,-3.0898,-3.0898,-3.0898,-3.0898,-3.0898,-3.0781,-3.0332,-2.9626,-2.9883,-2.9434,-2.8301,-2.873,-2.8691,-4.7658,-4.7516,-4.7732,-4.8999,-4.8805,-4.8503,-4.9305,-4.9305,-4.9085,-4.883,-4.7914,-4.6917,-4.6068,-4.6823,-4.7688,-4.802,-4.9916,-5.1649,-5.2452,-5.2578,-5.2528,-5.2477,-5.2178,-5.1731,-5.1109,-5.1158,-5.1198,-5.1125,-5.1866,-5.2362,-5.2553,-5.2804,-5.2829,-5.2578,-5.2804,-5.2653,-5.2126,-5.1071,-5.067,-5.0896,-5.0318,-4.9701,-4.8982,-4.9232,-4.8779,-4.7714,-4.8031,-4.7596,-4.6613,-4.6695,-4.6602,-4.6301,-4.6301,-4.6301,-4.6301,-4.6301,-4.5878,-4.5331,-4.5331,-4.4963,-4.4532,-4.4347,-4.3818,-4.312,-4.2916,-4.2952,-4.2976,-4.1918,-4.2182,-4.2651,-4.1822,-4.1413,-4.1172,-4.1172,-4.1172,-4.1172,-4.1172,-4.1172,-4.1057,-4.0629,-4.0513,-4.0397,-3.9989,-3.9144,-3.8313,-3.7774,-3.6746,-3.589,-3.5582,-3.4575,-3.3556,-3.2591,-3.1956,-3.1406,-3.0937,-3.0898,-3.0898,-3.0898,-3.0898,-3.0898,-3.0898,-3.0898,-3.0898,-3.0898,-3.0898,-3.0547,-2.9844,-3.0293,-2.9941,-2.8867,-2.9101,-2.8984,-4.8195,-4.8043,-4.8304,-5.0599,-5.0286,-4.9516,-4.982,-4.9522,-4.8989,-4.8221,-4.7375,-4.649,-4.5812,-4.6529,-4.7223,-4.7288,-4.9089,-5.0811,-5.2026,-5.2226,-5.2402,-5.2879,-5.2452,-5.19,-5.1389,-5.1099,-5.1038,-5.1254,-5.1933,-5.2354,-5.2201,-5.2603,-5.2603,-5.2126,-5.2503,-5.2477,-5.2,-5.0393,-4.9841,-5.0293,-4.9741,-4.9124,-4.8559,-4.8853,-4.8377,-4.727,-4.7282,-4.696,-4.6427,-4.6259,-4.618,-4.618,-4.618,-4.624,-4.624,-4.6301,-4.5878,-4.5331,-4.5331,-4.484,-4.4285,-4.4285,-4.3625,-4.2819,-4.2819,-4.2771,-4.253,-4.1557,-4.2,-4.253,-4.1605,-4.1341,-4.1293,-4.1293,-4.1293,-4.1268,-4.1081,-4.1,-4.0687,-3.9732,-3.9592,-3.9416,-3.8469,-3.7473,-3.6807,-3.6807,-3.5705,-3.4735,-3.436,-3.3698,-3.3014,-3.2309,-3.1504,-3.1016,-3.0898,-3.0898,-3.0898,-3.0898,-3.0898,-3.0898,-3.0898,-3.0898,-3.0898,-3.0898,-3.0898,-3.0664,-3.0195,-3.0664,-3.041,-2.9492,-2.9607,-2.9297,-4.9101,-4.9762,-5.0641,-5.0982,-5.1084,-5.1044,-5.0531,-5.0493,-5.0348,-4.9188,-4.8686,-4.8107,-4.6828,-4.6946,-4.7476,-4.8339,-4.9645,-5.1031,-5.2571,-5.2779,-5.2829,-5.2929,-5.2452,-5.201,-5.1763,-5.1205,-5.0927,-5.0963,-5.1129,-5.1655,-5.2703,-5.2452,-5.2201,-5.2101,-5.1749,-5.1523,-5.1423,-5.0218,-4.964,-4.9741,-4.9188,-4.8357,-4.7291,-4.805,-4.7513,-4.5977,-4.6693,-4.645,-4.5515,-4.5502,-4.5453,-4.5514,-4.5757,-4.5878,-4.5939,-4.618,-4.5878,-4.5331,-4.5331,-4.484,-4.4285,-4.4285,-4.3625,-4.2819,-4.2819,-4.2506,-4.2121,-4.1894,-4.2024,-4.2217,-4.2482,-4.2217,-4.1846,-4.1846,-4.1846,-4.1526,-4.0235,-3.9966,-3.9674,-3.873,-3.918,-3.9416,-3.8469,-3.727,-3.6502,-3.6502,-3.5335,-3.436,-3.4047,-3.3845,-3.3364,-3.2307,-3.2031,-3.166,-3.0957,-3.0898,-3.0898,-3.0898,-3.0898,-3.0898,-3.0898,-3.0898,-3.0898,-3.0898,-3.0898,-3.0664,-3.0195,-3.0664,-3.0254,-2.9043,-2.9394,-2.916,-4.9342,-5.0113,-5.1118,-5.1976,-5.2061,-5.1915,-5.1533,-5.1162,-5.0611,-4.9754,-4.9326,-4.8843,-4.7999,-4.7777,-4.7878,-4.8484,-4.9196,-5.0155,-5.188,-5.2077,-5.2345,-5.3128,-5.2977,-5.254,-5.1854,-5.1681,-5.1336,-5.0705,-5.0811,-5.1352,-5.2427,-5.1975,-5.1674,-5.1674,-5.0845,-5.0544,-5.082,-5.0017,-4.959,-4.959,-4.9038,-4.8359,-4.7432,-4.7731,-4.7071,-4.5749,-4.6414,-4.6192,-4.5331,-4.5514,-4.5453,-4.5331,-4.5696,-4.5991,-4.6215,-4.6099,-4.593,-4.5613,-4.5184,-4.4717,-4.4285,-4.4285,-4.3625,-4.2819,-4.2819,-4.2458,-4.1918,-4.1629,-4.1749,-4.1966,-4.1942,-4.1749,-4.1557,-4.1557,-4.1184,-4.0446,-3.9249,-3.8944,-3.8707,-3.7774,-3.7954,-3.7872,-3.6724,-3.6013,-3.5582,-3.5397,-3.4652,-3.411,-3.3922,-3.3733,-3.3293,-3.2326,-3.1758,-3.1328,-3.0918,-3.0898,-3.0898,-3.0898,-3.0898,-3.0898,-3.0898,-3.0898,-3.0898,-3.0898,-3.0898,-3.0781,-3.0566,-3.0781,-3.043,-2.959,-2.957,-2.9183,-4.9538,-5.018,-5.1197,-5.2828,-5.2784,-5.2362,-5.2422,-5.1651,-5.0738,-5.016,-4.9809,-4.9493,-4.912,-4.8705,-4.8489,-4.8593,-4.8732,-4.948,-5.0998,-5.1311,-5.1899,-5.3148,-5.347,-5.3157,-5.2012,-5.2174,-5.1893,-5.0554,-5.067,-5.1135,-5.1875,-5.1624,-5.1348,-5.1096,-5.0243,-4.9916,-5.0243,-4.9816,-4.954,-4.9414,-4.8987,-4.846,-4.7783,-4.7495,-4.6923,-4.619,-4.6365,-4.6155,-4.565,-4.5673,-4.5588,-4.538,-4.5809,-4.6265,-4.6526,-4.6165,-4.6056,-4.5957,-4.5072,-4.4594,-4.4285,-4.4285,-4.3697,-4.2988,-4.2988,-4.2627,-4.2062,-4.1629,-4.1822,-4.2038,-4.1629,-4.1533,-4.1427,-4.1133,-4.0235,-3.9121,-3.8171,-3.7992,-3.7714,-3.6746,-3.6746,-3.6441,-3.5108,-3.4859,-3.4673,-3.436,-3.3985,-3.3796,-3.3796,-3.3466,-3.3027,-3.2383,-3.1621,-3.1094,-3.0918,-3.0898,-3.0898,-3.0898,-3.0898,-3.0898,-3.0898,-3.0898,-3.0898,-3.0898,-3.0898,-3.0898,-3.0898,-3.0898,-3.0605,-2.9945,-2.967,-2.9075,-5.0087,-5.0879,-5.1954,-5.2827,-5.2654,-5.2346,-5.2645,-5.1876,-5.102,-5.0637,-5.0581,-5.0508,-4.9979,-4.9707,-4.9494,-4.9228,-4.9279,-4.9649,-5.0872,-5.1472,-5.1986,-5.2606,-5.3419,-5.3494,-5.2368,-5.2567,-5.2168,-5.0678,-5.0507,-5.0695,-5.1322,-5.1774,-5.1548,-5.0519,-5.0393,-5.0117,-4.9665,-4.9615,-4.9339,-4.8837,-4.8786,-4.8359,-4.7495,-4.7457,-4.7383,-4.7321,-4.6501,-4.6388,-4.6644,-4.5724,-4.5441,-4.5632,-4.6254,-4.6526,-4.6576,-4.6526,-4.6316,-4.5957,-4.5072,-4.4594,-4.4285,-4.4285,-4.3938,-4.3433,-4.3433,-4.3096,-4.2747,-4.2699,-4.2699,-4.2747,-4.2699,-4.2675,-4.2317,-4.0903,-3.9465,-3.8171,-3.7231,-3.705,-3.6746,-3.5726,-3.6279,-3.6441,-3.5108,-3.4673,-3.436,-3.3985,-3.367,-3.3418,-3.3418,-3.3086,-3.2832,-3.2734,-3.2324,-3.1738,-3.0957,-3.0898,-3.0898,-3.0898,-3.0898,-3.0898,-3.0898,-3.0898,-3.0898,-3.0898,-3.0898,-3.0898,-3.0898,-3.0898,-3.0276,-2.918,-2.9141,-2.8588,-5.0424,-5.1192,-5.2002,-5.2476,-5.2541,-5.253,-5.2476,-5.1911,-5.1373,-5.1009,-5.0879,-5.0745,-5.0728,-5.0154,-4.9684,-4.9547,-4.8825,-4.8598,-4.9626,-4.9599,-5.0188,-5.1909,-5.2154,-5.2245,-5.2305,-5.2128,-5.1678,-5.083,-5.0749,-5.0716,-5.0745,-5.0971,-5.072,-4.9941,-4.9916,-4.9816,-4.959,-4.959,-4.949,-4.9264,-4.8937,-4.8598,-4.8221,-4.757,-4.7208,-4.7245,-4.686,-4.6501,-4.6217,-4.6093,-4.581,-4.549,-4.6328,-4.6836,-4.7085,-4.6489,-4.6439,-4.6423,-4.5008,-4.4409,-4.4285,-4.4285,-4.4141,-4.3901,-4.3601,-4.3168,-4.2819,-4.2819,-4.2819,-4.2747,-4.2434,-4.1626,-4.0645,-3.9488,-3.8328,-3.7171,-3.6218,-3.6034,-3.5911,-3.5479,-3.5541,-3.5459,-3.4735,-3.4298,-3.3985,-3.367,-3.3481,-3.3418,-3.3418,-3.3281,-3.3066,-3.2832,-3.2187,-3.1641,-3.1289,-3.1035,-3.0898,-3.0898,-3.0898,-3.0898,-3.0898,-3.0898,-3.0898,-3.0898,-3.0898,-3.0898,-3.0898,-3.0704,-3.0084,-2.9066,-2.8954,-2.8217,-5.0597,-5.1319,-5.2013,-5.2596,-5.2597,-5.2475,-5.2536,-5.197,-5.1433,-5.1339,-5.1105,-5.0964,-5.1182,-5.0632,-5.0057,-4.9815,-4.8894,-4.8412,-4.9091,-4.8744,-4.9159,-5.1064,-5.1106,-5.1179,-5.1807,-5.1486,-5.1139,-5.0817,-5.0623,-5.0428,-5.0167,-5.0233,-5.0057,-4.9615,-4.959,-4.959,-4.959,-4.959,-4.959,-4.959,-4.9038,-4.8761,-4.8736,-4.7631,-4.723,-4.7355,-4.7029,-4.677,-4.6563,-4.6674,-4.6452,-4.597,-4.6712,-4.7072,-4.7159,-4.6365,-4.6339,-4.6371,-4.4846,-4.4285,-4.4285,-4.4285,-4.4285,-4.4213,-4.3866,-4.3505,-4.3216,-4.3216,-4.3,-4.2544,-4.1626,-4.0539,-3.9357,-3.8194,-3.7352,-3.6624,-3.5603,-3.5418,-3.5418,-3.5418,-3.5108,-3.4797,-3.4485,-3.411,-3.3796,-3.3418,-3.3418,-3.3418,-3.3418,-3.3418,-3.3301,-3.3008,-3.2324,-3.1797,-3.1543,-3.125,-3.1016,-3.0898,-3.0898,-3.0898,-3.0898,-3.0898,-3.0898,-3.0898,-3.0898,-3.0898,-3.0898,-3.0645,-3.0065,-2.9066,-2.8841,-2.8051,-5.0691,-5.1298,-5.2096,-5.3464,-5.278,-5.2043,-5.2976,-5.2164,-5.1276,-5.1526,-5.1386,-5.1229,-5.1229,-5.1182,-5.0917,-5.0124,-4.9815,-4.9709,-4.9788,-4.958,-4.9577,-5.0166,-5.0569,-5.0763,-5.0698,-5.0684,-5.0614,-5.0614,-4.9976,-4.9615,-4.9615,-4.9937,-4.9937,-4.959,-4.959,-4.959,-4.959,-4.959,-4.959,-4.959,-4.9038,-4.8761,-4.8736,-4.7631,-4.7405,-4.7832,-4.6778,-4.707,-4.8203,-4.7395,-4.7208,-4.7432,-4.7783,-4.7333,-4.6576,-4.6217,-4.5931,-4.557,-4.4663,-4.4285,-4.4285,-4.4285,-4.4285,-4.4285,-4.4285,-4.4261,-4.4261,-4.4261,-4.3577,-4.2317,-4.0325,-3.9756,-3.9262,-3.7352,-3.6928,-3.6624,-3.5603,-3.5418,-3.5418,-3.5418,-3.5108,-3.4797,-3.4485,-3.411,-3.3796,-3.3418,-3.3418,-3.3418,-3.3418,-3.3418,-3.3418,-3.3418,-3.3027,-3.2441,-3.1582,-3.1504,-3.1328,-3.0918,-3.0898,-3.0898,-3.0898,-3.0898,-3.0898,-3.0898,-3.0898,-3.0898,-3.0898,-3.0898,-3.0257,-2.9066,-2.8841,-2.7958,-5.0453,-5.1159,-5.1777,-5.2192,-5.2101,-5.1934,-5.1827,-5.163,-5.1433,-5.1369,-5.1276,-5.1229,-5.1229,-5.1229,-5.1041,-5.0423,-4.999,-4.9568,-4.9222,-4.8415,-4.8489,-5.0001,-5.1004,-5.1471,-5.1012,-5.0954,-5.0867,-5.0588,-5.0168,-4.9847,-4.959,-4.9937,-4.9912,-4.959,-4.9783,-4.9847,-4.959,-4.959,-4.959,-4.959,-4.9038,-4.8962,-4.9289,-4.7807,-4.7405,-4.7857,-4.7179,-4.6892,-4.692,-4.7068,-4.6881,-4.667,-4.7168,-4.7157,-4.6884,-4.6279,-4.6031,-4.5833,-4.4701,-4.4285,-4.4285,-4.4285,-4.4285,-4.4285,-4.4285,-4.4285,-4.4285,-4.4285,-4.3577,-4.2592,-4.1561,-4.003,-3.859,-3.7935,-3.7041,-3.6269,-3.5956,-3.6142,-3.612,-3.5231,-3.5041,-3.4848,-3.417,-3.3796,-3.3544,-3.3418,-3.3418,-3.3418,-3.3418,-3.3418,-3.3418,-3.3418,-3.3301,-3.3008,-3.2441,-3.1855,-3.1465,-3.1328,-3.1055,-3.0898,-3.0898,-3.0898,-3.0898,-3.0898,-3.0898,-3.0898,-3.0898,-3.0704,-2.9853,-2.8502,-2.766,-2.7049,-5.0291,-5.1225,-5.1884,-5.2154,-5.2128,-5.1964,-5.1541,-5.1456,-5.1386,-5.1229,-5.1229,-5.1229,-5.1229,-5.1105,-5.0964,-5.0662,-5.0183,-4.9805,-4.9721,-4.8439,-4.7866,-4.893,-5.0298,-5.095,-5.0436,-5.0736,-5.0804,-5.0423,-5.0104,-4.9783,-4.959,-4.9937,-4.9912,-4.959,-5.004,-5.004,-4.959,-4.9719,-4.9719,-4.959,-4.9038,-4.8837,-4.8912,-4.7682,-4.7205,-4.728,-4.6954,-4.6753,0.0,-4.6943,-4.6928,-4.6652,-4.6943,-4.6881,-4.6559,-4.6007,-4.5736,-4.5502,-4.4567,-4.4285,-4.4285,-4.4285,-4.4285,-4.4285,-4.4285,-4.4285,-4.4223,-4.3826,-4.3392,-4.2758,-4.1234,-3.9865,-3.8642,-3.7825,-3.7023,-3.637,-3.637,-3.6453,-3.6306,-3.5477,-3.508,-3.4682,-3.415,-3.3733,-3.3418,-3.3418,-3.3418,-3.3418,-3.3418,-3.3418,-3.3418,-3.3418,-3.3418,-3.332,-3.3047,-3.2402,-3.1855,-3.1543,-3.1269,-3.1055,-3.0898,-3.0898,-3.0898,-3.0898,-3.0898,-3.0898,-3.0898,-3.0413,-2.9623,-2.8484,-2.7438,-2.6902,0.0,-5.1266,-5.2264,-5.2905,-5.2576,-5.2019,-5.1791,-5.1429,0.0,-5.1199,-5.1229,-5.1182,-5.1182,-5.0934,-5.0763,-5.0745,-5.0364,-5.0233,-5.0729,-4.9239,-4.7866,-4.7341,-4.8837,-4.9733,-4.9351,-5.0047,-5.0372,-5.0002,-4.9758,-4.9565,-4.954,-4.9912,-4.9912,-4.959,-5.027,-5.0295,-4.959,-4.9886,-4.9861,-4.954,-4.8937,-4.8385,-4.7883,-4.733,-4.6828,-4.6376,-4.6326,-4.6602,-4.7018,-4.7079,-4.7079,-4.7018,-4.7018,-4.6509,-4.5757,-4.5453,-4.5086,-4.4779,-4.4409,-4.4285,-4.4285,-4.4285,-4.4285,-4.4285,-4.4285,-4.4285,-4.4099,-4.3177,-4.3174,-4.2772,-3.9919,-3.9396,-3.9188,-3.7274,-3.6825,-3.6804,-3.6804,-3.6494,-3.6204,-3.61,-3.5226,-3.4463,-3.4401,-3.3879,-3.3418,-3.3418,-3.3418,-3.3418,-3.3418,-3.3418,-3.3418,-3.3418,-3.3418,-3.3418,-3.3418,-3.3027,-3.2461,-3.166,-3.1543,-3.1348,-3.0957,-3.0918,-3.0898,-3.0898,-3.0898,-3.0898,-3.0898,-3.0161,-2.9565,-2.9104,-2.8051,-2.7363,-4.9719,0.0,-5.1118,-5.181,-5.1449,-5.1042,0.0,-5.0837,-5.0554,-5.1063,-5.1229,-5.1105,-5.0917,-5.0483,-5.0117,-5.0239,-4.9743,-4.9243,-4.9123,-4.9081,-4.8756,-4.8006,-4.9609,-5.0307,-4.9148,-4.9785,-4.9812,-4.8911,-4.9304,-4.9414,-4.8987,-4.9684,-4.9912,-4.959,-5.027,-5.0295,-4.959,-4.9252,-4.9089,-4.8962,-4.7983,-4.7657,-4.7883,-4.6928,-4.6652,-4.6903,-4.6743,-4.6642,-4.6502,-4.6743,-4.6562,-4.6138,-4.6381,-4.6184,-4.5757,-4.5453,-4.527,-4.5086,-4.4532,-4.4285,-4.4285,-4.4285,-4.4285,-4.4285,-4.4285,-4.4285,-4.4223,-4.4013,-4.3198,-4.2102,-4.1043,-3.9418,-3.8008,-3.748,-3.7053,-3.6804,-3.6804,-3.6991,-3.7009,-3.638,-3.5567,-3.4863,-3.4608,-3.3887,-3.3418,-3.3418,-3.3418,-3.3418,-3.3418,-3.3418,-3.3418,-3.3418,-3.3418,-3.3418,-3.3418,-3.3027,-3.2715,-3.25,-3.1875,-3.1465,-3.1367,-3.1055,-3.0898,-3.0898,-3.0898,-3.0898,-3.0898,-2.9911,-2.947,-2.9603,-2.8015,-2.7345,-5.0049,-5.0697,-5.115,-5.1482,-5.109,-5.0652,-5.0737,-5.0272,-4.9927,-5.0491,-5.0594,-5.0547,-5.0236,-5.0301,-5.0151,-4.9388,-4.9164,-4.8603,-4.7304,-4.8108,-4.8505,-4.7733,-4.8712,-4.9347,-4.8985,-4.9228,-4.9026,-4.8294,-4.8611,-4.8686,-4.8385,-4.9103,-4.9405,-4.9213,-4.9596,-4.9596,-4.9213,-4.9128,-4.8825,-4.836,-4.7782,-4.7506,-4.7531,-4.7205,-4.6928,-4.6753,-4.6884,-4.6673,-4.6301,-4.6506,-4.6361,-4.6059,-4.624,-4.618,-4.5939,-4.5453,-4.5331,-4.5208,-4.4532,-4.4285,-4.4237,-4.3997,-4.3901,-4.3901,-4.3901,-4.3901,-4.3949,-4.4213,-4.3198,-4.1939,-4.1456,-3.979,-3.8166,-3.7895,-3.7612,-3.7446,-3.7446,-3.7301,-3.7029,-3.6588,-3.5547,-3.4722,-3.4532,-3.3891,-3.3418,-3.3418,-3.3418,-3.3418,-3.3418,-3.3418,-3.3418,-3.3418,-3.3418,-3.3418,-3.3418,-3.3203,-3.293,-3.2539,-3.207,-3.1641,-3.125,-3.1016,-3.0898,-3.0898,-3.0898,-3.082,-3.0704,-2.9928,-2.966,-2.9757,-2.8387,-2.7752,-5.0451,-5.1279,-5.16,-5.1435,-5.0893,-5.0366,-5.0138,-4.9583,-4.9269,-4.9558,-4.9719,-4.9639,-4.931,-4.9854,-4.9869,-4.8468,-4.8522,-4.7986,-4.6099,-4.7047,-4.7754,-4.7122,-4.7435,-4.7901,-4.8372,-4.8446,-4.8317,-4.7744,-4.7931,-4.8032,-4.8032,-4.8586,-4.8888,-4.8913,-4.885,-4.8686,-4.851,-4.885,-4.8535,-4.7782,-4.7707,-4.7431,-4.7029,-4.7456,-4.7179,-4.6326,-4.6803,-4.6753,-4.6301,-4.6386,-4.6276,-4.6115,-4.6175,-4.6115,-4.5935,-4.539,-4.5196,-4.5147,-4.4532,-4.4285,-4.4189,-4.3697,-4.3577,-4.3625,-4.3529,-4.3577,-4.3746,-4.4141,-4.326,-4.1916,-4.1343,-4.0032,-3.8637,-3.802,-3.7922,-3.7964,-3.7881,-3.7301,-3.6825,-3.6887,-3.5595,-3.4526,-3.4667,-3.4021,-3.3481,-3.3481,-3.3418,-3.3418,-3.3418,-3.3418,-3.3418,-3.3418,-3.3418,-3.3418,-3.3418,-3.3418,-3.3086,-3.2305,-3.2207,-3.1777,-3.0918,-3.0898,-3.0898,-3.0898,-3.0898,-3.0762,-3.045,-3.0098,-2.9927,-2.993,-2.889,-2.8366,-4.9539,-5.0641,-5.156,-5.0614,-4.9928,-4.9494,-4.9449,-4.8925,-4.8417,-4.8479,-4.8852,-4.8949,-4.8035,-4.756,-4.7488,-4.8032,-4.757,-4.719,-4.7261,-4.7282,-4.7213,-4.6907,-4.7744,-4.7901,-4.6813,-4.7738,-4.8049,-4.705,-4.808,-4.8738,-4.8738,-4.9025,-4.9141,-4.9229,-4.8976,-4.8335,-4.738,-4.738,-4.7355,-4.7255,-4.6778,-4.6502,-4.6451,-4.6527,-4.6476,-4.6326,-4.6702,-4.6642,-4.6301,-4.6626,-4.6084,-4.5241,-4.5479,-4.5241,-4.4762,-4.4642,-4.4755,-4.484,-4.4409,-4.4285,-4.4189,-4.3697,-4.3842,-4.4069,-4.3649,-4.3842,-4.4165,-4.4261,-4.3198,-4.1784,-4.0914,-3.9283,-3.7588,-3.6665,-3.6722,-3.6908,-3.6515,-3.6618,-3.6908,-3.7322,-3.6011,-3.5104,-3.5878,-3.4799,-3.3796,-3.3796,-3.3607,-3.3418,-3.3418,-3.3418,-3.3418,-3.3418,-3.3418,-3.3418,-3.3418,-3.3418,-3.3223,-3.2734,-3.2363,-3.1777,-3.0918,-3.0898,-3.0898,-3.0898,-3.0898,-3.0879,-3.082,-3.0235,-3.0197,-3.0665,-2.9137,-2.8663,-4.9209,-4.9812,-5.0158,-4.9445,-4.9592,-4.9609,-4.8541,-4.7741,-4.7245,-4.7108,-4.707,-4.7044,-4.6867,-4.7118,-4.745,-4.7649,-4.7078,-4.6409,-4.6051,-4.6129,-4.6364,-4.6491,-4.6743,-4.6834,-4.6753,-4.705,-4.7157,-4.6831,-4.7383,-4.7844,-4.8,-4.8233,-4.8353,-4.8379,-4.8069,-4.7631,-4.7093,-4.6828,-4.6702,-4.6677,-4.6125,-4.6024,-4.6326,-4.6627,-4.6602,-4.6326,-4.6748,-4.6698,-4.6301,-4.6506,-4.621,-4.566,-4.5538,-4.5375,-4.5094,-4.4497,-4.3989,-4.3711,-4.3794,-4.3721,-4.3457,-4.3192,-4.3072,-4.3072,-4.3096,-4.3289,-4.3553,-4.3818,-4.3023,-4.1823,-4.0824,-3.9481,-3.8038,-3.679,-3.6846,-3.7115,-3.6908,-3.6825,-3.6867,-3.7074,-3.6157,-3.535,-3.5513,-3.4622,-3.3922,-3.3922,-3.3607,-3.3418,-3.3418,-3.3418,-3.3418,-3.3418,-3.3418,-3.3418,-3.3418,-3.3418,-3.3242,-3.2832,-3.2402,-3.1894,-3.125,-3.123,-3.1133,-3.0898,-3.0898,-3.082,-3.0645,-3.0333,-3.0216,-3.0352,-2.9439,-2.8981,-4.894,-4.9064,-4.8891,-4.8288,-4.8779,-4.9069,-4.7667,-4.6659,-4.6007,-4.5811,-4.5591,-4.5436,-4.5512,-4.6513,-4.7184,-4.6747,-4.6425,-4.5902,-4.5087,-4.5429,-4.585,-4.626,-4.5949,-4.6024,-4.6853,-4.6612,-4.6481,-4.6806,-4.684,-4.707,-4.741,-4.752,-4.7592,-4.7592,-4.7252,-4.7079,-4.6892,-4.6401,-4.6175,-4.6301,-4.5748,-4.5773,-4.6326,-4.6627,-4.6602,-4.6326,-4.6753,-4.6702,-4.6301,-4.6301,-4.6225,-4.6075,-4.5497,-4.5235,-4.5017,-4.4061,-4.3409,-4.3,-4.3385,-4.3265,-4.2988,-4.2867,-4.2554,-4.2265,-4.2554,-4.2723,-4.2832,-4.3216,-4.2827,-4.1923,-4.057,-3.9582,-3.842,-3.7021,-3.6908,-3.7177,-3.7177,-3.697,-3.6804,-3.6804,-3.6241,-3.566,-3.5415,-3.4627,-3.4047,-3.4047,-3.367,-3.3418,-3.3418,-3.3418,-3.3418,-3.3418,-3.3418,-3.3418,-3.3418,-3.3418,-3.3281,-3.2969,-3.2461,-3.1973,-3.1543,-3.1523,-3.1328,-3.0898,-3.0898,-3.0762,-3.0509,-3.045,-3.0333,-3.0098,-2.9686,-2.9341,-4.8356,-4.8571,-4.8489,-4.7387,-4.6812,-4.6658,-4.7202,-4.6061,-4.4851,-4.457,-4.5169,-4.5312,-4.388,-4.4361,-4.4918,-4.4781,-4.5221,-4.5725,-4.6109,-4.626,-4.6285,-4.6301,-4.6276,-4.6276,-4.6351,-4.6566,-4.6806,-4.6806,-4.7053,-4.7436,-4.8,-4.7749,-4.7592,-4.7592,-4.7252,-4.6878,-4.6376,-4.5824,-4.5799,-4.6301,-4.5748,-4.5773,-4.6301,-4.5824,-4.5874,-4.6301,-4.6351,-4.6351,-4.6301,-4.6301,-4.5999,-4.5497,-4.492,-4.4012,-4.3085,-4.2936,-4.3156,-4.3457,-4.3505,-4.3481,-4.3385,-4.2904,-4.2795,-4.2675,-4.2217,-4.2434,-4.2819,-4.2867,-4.2808,-4.2209,-3.9803,-3.8806,-3.7956,-3.6499,-3.6183,-3.6204,-3.6204,-3.6515,-3.6804,-3.6804,-3.6432,-3.6182,-3.6575,-3.5346,-3.436,-3.436,-3.3796,-3.3418,-3.3418,-3.3418,-3.3418,-3.3418,-3.3418,-3.3418,-3.3418,-3.3418,-3.3418,-3.3379,-3.2617,-3.1973,-3.1543,-3.1523,-3.1328,-3.0898,-3.0898,-3.0898,-3.0879,-3.0567,-3.0567,-3.084,-2.9922,-2.9608,-4.7668,-4.7877,-4.7854,-4.688,-4.5678,-4.4901,-4.5331,-4.466,-4.3808,-4.3359,-4.3546,-4.3776,-4.3698,-4.3913,-4.4249,-4.4551,-4.4792,-4.5128,-4.5757,-4.5799,-4.5924,-4.6276,-4.6301,-4.6175,-4.5824,-4.5917,-4.6036,-4.6189,-4.6035,-4.6262,-4.7,-4.673,-4.6552,-4.6552,-4.6547,-4.6527,-4.6301,-4.5773,-4.5773,-4.6301,-4.5397,-4.5422,-4.6301,-4.5748,-4.5598,-4.5799,-4.5799,-4.5799,-4.5799,-4.5799,-4.5874,-4.5889,-4.4933,-4.3696,-4.2422,-4.2321,-4.2182,-4.211,-4.2447,-4.2327,-4.2086,-4.223,-4.2062,-4.1798,-4.1942,-4.211,-4.2338,-4.2338,-4.2338,-4.1793,-3.9643,-3.9181,-3.8697,-3.6624,-3.6328,-3.6535,-3.6535,-3.668,-3.6722,-3.6432,-3.6225,-3.608,-3.5956,-3.5084,-3.4423,-3.4423,-3.3859,-3.3418,-3.3418,-3.3418,-3.3418,-3.3418,-3.3418,-3.3418,-3.3418,-3.3418,-3.3418,-3.3418,-3.3125,-3.2637,-3.1953,-3.1914,-3.1601,-3.0898,-3.0898,-3.0898,-3.0898,-3.0762,-3.0704,-3.0567,-3.0039,-2.9686,-4.7309,-4.7094,-4.6782,-4.631,-4.4782,-4.3459,-4.3467,-4.3154,-4.284,-4.2626,-4.2457,-4.2616,-4.3507,-4.3444,-4.3514,-4.4242,-4.4367,-4.4618,-4.5372,-4.5497,-4.5623,-4.5999,-4.605,-4.5824,-4.5271,-4.5221,-4.528,-4.5489,-4.5135,-4.5276,-4.6094,-4.5885,-4.5843,-4.602,-4.622,-4.6301,-4.6301,-4.5924,-4.5849,-4.605,-4.507,-4.5121,-4.6024,-4.5472,-4.5221,-4.5221,-4.5221,-4.5221,-4.5221,-4.5422,-4.5598,-4.5689,-4.4611,-4.3364,-4.2103,-4.1813,-4.1605,-4.1485,-4.1846,-4.1725,-4.1485,-4.1846,-4.1629,-4.1244,-4.1629,-4.1725,-4.1725,-4.1725,-4.1725,-4.1293,-3.9468,-3.9235,-3.897,-3.6771,-3.6372,-3.658,-3.6871,-3.6744,-3.6535,-3.637,-3.6204,-3.6018,-3.5687,-3.5024,-3.4548,-3.4423,-3.3985,-3.367,-3.3544,-3.3544,-3.3544,-3.3418,-3.3418,-3.3418,-3.3418,-3.3418,-3.3418,-3.3418,-3.3418,-3.3047,-3.2207,-3.2229,-3.1758,-3.0918,-3.0898,-3.0898,-3.0898,-3.0898,-3.0704,-3.0392,-3.0039,-2.9745,-4.7279,-4.6211,-4.5178,-4.559,-4.4081,-4.2364,-4.1827,-4.1772,-4.1935,-4.2493,-4.2084,-4.2008,-4.3178,-4.273,-4.2564,-4.3614,-4.379,-4.4192,-4.5321,-4.5472,-4.5472,-4.5497,-4.5472,-4.5246,-4.4669,-4.4618,-4.4618,-4.4618,-4.4618,-4.4869,-4.5447,-4.5472,-4.5723,-4.6276,-4.6301,-4.6301,-4.6301,-4.6276,-4.6024,-4.5472,-4.4895,-4.492,-4.5472,-4.4895,-4.4618,-4.4618,-4.4618,-4.4618,-4.4669,-4.5246,-4.5146,-4.456,-4.3894,-4.302,-4.2054,-4.1426,-4.1509,-4.1966,-4.1966,-4.1966,-4.1966,-4.1966,-4.1605,-4.1172,-4.1172,-4.1172,-4.1172,-4.1172,-4.1172,-4.0826,-3.9226,-3.8812,-3.8447,-3.6935,-3.6268,-3.6184,-3.7107,-3.6686,-3.6246,-3.6701,-3.6411,-3.6101,-3.6101,-3.5416,-3.4797,-3.4423,-3.4423,-3.4298,-3.3922,-3.3922,-3.3796,-3.3418,-3.3418,-3.3418,-3.3418,-3.3418,-3.3418,-3.3418,-3.3418,-3.3047,-3.2268,-3.2229,-3.1758,-3.0918,-3.0898,-3.0898,-3.0898,-3.0898,-3.0704,-3.0392,-3.0039,-2.9745,-4.5526,-4.5273,-4.5024,-4.3892,-4.334,-4.2862,-4.1931,-4.1772,-4.178,-4.1717,-4.0933,-4.0732,-4.2272,-4.1685,-4.148,-4.2986,-4.2886,-4.3162,-4.4669,-4.4543,-4.4593,-4.5397,-4.5121,-4.4669,-4.4091,-4.4041,-4.4041,-4.4041,-4.3689,-4.389,-4.4844,-4.4895,-4.4945,-4.5121,-4.5522,-4.5522,-4.5121,-4.4744,-4.4669,-4.4869,-4.4317,-4.4342,-4.4869,-4.4292,-4.4041,-4.4041,-4.4041,-4.4041,-4.4091,-4.4644,-4.4543,-4.3984,-4.3375,-4.2725,-4.2054,-4.1426,-4.1293,-4.1413,-4.1413,-4.1413,-4.1413,-4.1413,-4.1317,-4.1172,-4.1172,-4.1172,-4.1172,-4.1172,-4.1172,-4.0942,-3.9732,-3.9144,-3.8507,-3.7267,-3.6832,-3.6748,-3.6771,-3.6583,-3.6311,-3.5936,-3.5728,-3.5625,-3.5625,-3.519,-3.4859,-3.4797,-3.436,-3.3922,-3.3607,-3.3544,-3.3481,-3.3418,-3.3418,-3.3418,-3.3418,-3.3418,-3.3418,-3.3418,-3.3418,-3.3184,-3.2637,-3.2324,-3.1894,-3.1348,-3.1035,-3.0898,-3.0898,-3.0898,-3.0704,-3.0392,-3.0039,-2.9745,-4.6064,-4.538,-4.4844,-4.4124,-4.3737,-4.3255,-4.2138,-4.1715,-4.1544,-4.1329,-4.0651,-4.04,-4.1605,-4.1103,-4.0978,-4.2409,-4.2414,-4.2715,-4.4091,-4.4016,-4.4041,-4.4744,-4.4518,-4.4091,-4.3539,-4.3463,-4.3463,-4.3463,-4.3162,-4.3363,-4.4242,-4.4292,-4.4392,-4.4618,-4.497,-4.497,-4.4618,-4.4292,-4.4192,-4.4292,-4.3966,-4.3865,-4.3966,-4.384,-4.3689,-4.3463,-4.3463,-4.3589,-4.384,-4.4166,-4.4091,-4.3733,-4.3128,-4.2577,-4.2054,-4.1426,-4.1172,-4.1172,-4.1172,-4.1172,-4.1172,-4.1172,-4.1172,-4.1172,-4.1172,-4.1172,-4.1172,-4.1172,-4.1172,-4.1,-4.0165,-3.9615,-3.8999,-3.7562,-3.691,-3.6642,-3.6582,-3.6353,-3.6061,-3.5707,-3.5542,-3.5418,-3.5418,-3.5232,-3.5046,-3.4922,-3.4423,-3.3985,-3.367,-3.3607,-3.3544,-3.3418,-3.3418,-3.3418,-3.3418,-3.3418,-3.3418,-3.3418,-3.3418,-3.3301,-3.3066,-3.2637,-3.2129,-3.1523,-3.1269,-3.1055,-3.0898,-3.0898,-3.0645,-3.0216,-2.9981,-2.9745,-4.7502,-4.601,-4.4526,-4.5358,-4.4606,-4.3387,-4.2394,-4.1679,-4.12,-4.115,-4.0802,-4.0601,-4.1125,-4.0802,-4.0827,-4.1982,-4.2108,-4.2484,-4.3582,-4.3708,-4.3683,-4.379,-4.3765,-4.3539,-4.3037,-4.2986,-4.2986,-4.2986,-4.2986,-4.3212,-4.3765,-4.379,-4.4041,-4.4543,-4.4543,-4.4518,-4.4468,-4.4468,-4.4217,-4.374,-4.374,-4.3463,-4.2986,-4.3489,-4.3463,-4.2986,-4.2986,-4.3263,-4.374,-4.374,-4.374,-4.3683,-4.3111,-4.2585,-4.2054,-4.1459,-4.1311,-4.1311,-4.123,-4.123,-4.123,-4.1172,-4.1172,-4.1172,-4.1172,-4.1172,-4.1172,-4.1172,-4.1172,-4.1057,-4.0455,-4.0223,-3.9697,-3.7916,-3.6767,-3.616,-3.6457,-3.5977,-3.5542,-3.5976,-3.5707,-3.5418,-3.5418,-3.5418,-3.5294,-3.4984,-3.461,-3.4298,-3.3985,-3.3922,-3.3796,-3.3481,-3.3418,-3.3418,-3.3418,-3.3418,-3.3418,-3.3418,-3.3418,-3.3418,-3.3418,-3.3008,-3.2402,-3.1601,-3.1543,-3.1309,-3.0898,-3.0898,-3.0587,-2.9922,-2.9922,-2.9745,-4.428,-4.3823,-4.3554,-4.3067,-4.2756,-4.2446,-4.1996,-4.1269,-4.0576,-4.0149,-3.9948,-4.0049,-4.0601,-4.0249,-4.0322,-4.1579,-4.1454,-4.1728,-4.3273,-4.3099,-4.3031,-4.374,-4.3413,-4.3112,-4.2986,-4.2986,-4.2986,-4.2986,-4.2986,-4.3212,-4.3765,-4.379,-4.3865,-4.3966,-4.3991,-4.3765,-4.3338,-4.3338,-4.3263,-4.3162,-4.3162,-4.3087,-4.2986,-4.3112,-4.3087,-4.2986,-4.2986,-4.3037,-4.3162,-4.3162,-4.3162,-4.3162,-4.2768,-4.2524,-4.2369,-4.2029,-4.194,-4.1859,-4.1631,-4.1492,-4.1492,-4.1287,-4.1172,-4.1172,-4.1172,-4.1172,-4.1172,-4.1172,-4.1172,-4.1172,-4.1,-4.0397,-3.9498,-3.8373,-3.7796,-3.7236,-3.6243,-3.5933,-3.5768,-3.5562,-3.5686,-3.5726,-3.5418,-3.5603,-3.5603,-3.4984,-3.4859,-3.4673,-3.436,-3.4047,-3.3859,-3.3796,-3.3544,-3.3418,-3.3418,-3.3418,-3.3418,-3.3418,-3.3418,-3.3418,-3.3418,-3.3008,-3.2559,-3.2031,-3.1699,-3.1309,-3.0898,-3.0898,-3.0704,-3.0274,-3.0039,-2.9863,-4.5126,-4.4402,-4.3717,-4.2762,-4.2289,-4.2007,-4.185,-4.105,-4.0231,-3.9954,-3.98,-3.9798,-4.0074,-3.9898,-4.0045,-4.1151,-4.118,-4.1559,-4.2761,-4.2824,-4.2918,-4.3363,-4.3162,-4.2986,-4.2986,-4.2986,-4.2986,-4.2986,-4.2986,-4.3112,-4.3388,-4.3413,-4.347,-4.3613,-4.3444,-4.3319,-4.3184,-4.3073,-4.2986,-4.2986,-4.2986,-4.2986,-4.2986,-4.2986,-4.2986,-4.2986,-4.2986,-4.2986,-4.2986,-4.2986,-4.2986,-4.2986,-4.2625,-4.2513,-4.2457,-4.2199,-4.211,-4.2054,-4.172,-4.1606,-4.1549,-4.1287,-4.1172,-4.1172,-4.1172,-4.1287,-4.1344,-4.123,-4.1287,-4.1344,-4.123,-4.0826,-4.0141,-3.918,-3.8194,-3.7071,-3.5911,-3.5665,-3.5603,-3.5418,-3.5541,-3.5665,-3.5665,-3.5788,-3.5726,-3.5232,-3.4984,-3.4797,-3.4423,-3.4235,-3.411,-3.3922,-3.3733,-3.3544,-3.3418,-3.3418,-3.3418,-3.3418,-3.3418,-3.3418,-3.3418,-3.3203,-3.2793,-3.2187,-3.1738,-3.1309,-3.0898,-3.0898,-3.0704,-3.0392,-3.0216,-3.0157,-4.6943,-4.5607,-4.4132,-4.3395,-4.2545,-4.1879,-4.1828,-4.0901,-4.0083,-4.0083,-3.9878,-3.9697,-3.9697,-3.9697,-3.9944,-4.0778,-4.1114,-4.1513,-4.2364,-4.2762,-4.293,-4.2986,-4.2986,-4.2986,-4.2986,-4.2986,-4.2986,-4.2986,-4.2986,-4.2986,-4.2986,-4.2986,-4.3129,-4.3381,-4.3184,-4.3184,-4.3381,-4.3184,-4.3017,-4.2986,-4.2986,-4.2986,-4.2986,-4.2986,-4.2986,-4.2986,-4.2986,-4.2986,-4.2986,-4.2986,-4.2986,-4.2986,-4.2681,-4.2569,-4.2594,-4.2312,-4.228,-4.2199,-4.1834,-4.1663,-4.1606,-4.1287,-4.1172,-4.1172,-4.1172,-4.1344,-4.1492,-4.123,-4.1344,-4.1492,-4.123,-4.1172,-4.0942,-3.9966,-3.8529,-3.705,-3.5972,-3.5603,-3.5479,-3.5479,-3.5418,-3.5541,-3.5932,-3.5932,-3.5809,-3.5541,-3.5232,-3.4922,-3.461,-3.4548,-3.436,-3.4047,-3.3922,-3.3733,-3.3418,-3.3418,-3.3418,-3.3418,-3.3418,-3.3418,-3.3418,-3.3359,-3.2949,-3.2187,-3.1816,-3.1387,-3.0898,-3.0898,-3.0762,-3.045,-3.045,-3.045,-4.6059,-4.5135,-4.4141,-4.4053,-4.3063,-4.2058,-4.1828,-4.0901,-4.0083,-4.0083,-3.9878,-3.9697,-3.9697,-3.9697,-3.9944,-4.0778,-4.0952,-4.1325,-4.2364,-4.2513,-4.2681,-4.2986,-4.2986,-4.2986,-4.2986,-4.2986,-4.2986,-4.2986,-4.2986,-4.2986,-4.2986,-4.2986,-4.3129,-4.3381,-4.3406,-4.3351,-4.3381,-4.3351,-4.324,-4.2986,-4.2986,-4.2986,-4.2986,-4.2986,-4.2986,-4.2986,-4.2986,-4.2986,-4.2986,-4.2986,-4.2986,-4.2986,-4.2986,-4.2905,-4.293,-4.2874,-4.2874,-4.2818,-4.2199,-4.2029,-4.1915,-4.1344,-4.1172,-4.1172,-4.1172,-4.123,-4.123,-4.1172,-4.123,-4.123,-4.1172,-4.1172,-4.0942,-3.9966,-3.9498,-3.8885,-3.7435,-3.6462,-3.5849,-3.5849,-3.5603,-3.5603,-3.6239,-3.6116,-3.5849,-3.587,-3.5788,-3.5665,-3.5294,-3.4984,-3.4673,-3.436,-3.4047,-3.3733,-3.3418,-3.3418,-3.3418,-3.3418,-3.3418,-3.3418,-3.3418,-3.3066,-3.2656,-3.2187,-3.2109,-3.1699,-3.0898,-3.0898,-3.0898,-3.082,-3.0509,-3.0567,-4.6679,-4.5293,-4.4068,-4.4235,-4.3219,-4.2116,-4.1966,-4.1128,-4.0338,-4.0338,-3.9981,-3.9697,-3.9697,-3.9697,-3.9944,-4.0778,-4.0757,-4.1085,-4.2314,-4.2432,-4.2524,-4.2936,-4.2986,-4.2986,-4.2986,-4.2986,-4.2986,-4.2986,-4.2986,-4.2986,-4.2986,-4.2986,-4.3209,-4.3653,-4.3517,-4.3517,-4.3708,-4.3517,-4.3295,-4.2986,-4.2986,-4.2986,-4.2986,-4.2986,-4.2986,-4.2986,-4.2986,-4.2986,-4.2986,-4.2986,-4.2986,-4.2986,-4.2986,-4.2986,-4.2986,-4.2986,-4.2986,-4.293,-4.2312,-4.211,-4.1997,-4.1426,-4.1172,-4.1172,-4.1172,-4.1287,-4.1402,-4.123,-4.1287,-4.1402,-4.123,-4.1172,-4.1115,-4.0629,-4.0083,-3.9556,-3.9085,-3.7654,-3.6279,-3.5726,-3.5665,-3.5788,-3.6055,-3.6178,-3.6178,-3.6178,-3.6055,-3.5849,-3.5665,-3.5356,-3.5046,-3.4735,-3.4548,-3.4235,-3.3733,-3.367,-3.3607,-3.3418,-3.3418,-3.3418,-3.3418,-3.3242,-3.2949,-3.2519,-3.2051,-3.1504,-3.0898,-3.0898,-3.0898,-3.0898,-3.0762,-3.0762,-4.7317,-4.5834,-4.453,-4.4248,-4.3313,-4.2409,-4.2048,-4.1392,-4.0744,-4.0643,-4.0185,-3.98,-3.9697,-3.9697,-3.9997,-4.0885,-4.0818,-4.1146,-4.2426,-4.2524,-4.2564,-4.2936,-4.2986,-4.2986,-4.2986,-4.2986,-4.2986,-4.2986,-4.2986,-4.2986,-4.2986,-4.2986,-4.3265,-4.3899,-4.3653,-4.3653,-4.3899,-4.3487,-4.3184,-4.2986,-4.2986,-4.2986,-4.2986,-4.2986,-4.2986,-4.2986,-4.2986,-4.2986,-4.2986,-4.2986,-4.2986,-4.2986,-4.2986,-4.2986,-4.2986,-4.2986,-4.2986,-4.293,-4.2369,-4.2167,-4.2054,-4.1598,-4.1344,-4.1344,-4.1402,-4.1573,-4.1688,-4.1459,-4.1516,-4.1549,-4.1344,-4.123,-4.1172,-4.1172,-4.0629,-4.0024,-3.9873,-3.8551,-3.711,-3.6095,-3.6034,-3.6095,-3.5932,-3.6116,-3.63,-3.63,-3.6055,-3.587,-3.5788,-3.5541,-3.5294,-3.4922,-3.4922,-3.4673,-3.411,-3.4047,-3.3859,-3.3544,-3.3544,-3.3481,-3.3418,-3.3418,-3.3223,-3.2793,-3.207,-3.1523,-3.1211,-3.0996,-3.0937,-3.1055,-3.0937,-3.0898,-4.7387,-4.6682,-4.5811,-4.4322,-4.3713,-4.3184,-4.1937,-4.1595,-4.1498,-4.0997,-4.044,-3.9981,-3.9749,-3.9697,-4.0049,-4.11,-4.1275,-4.1626,-4.2811,-4.2961,-4.2936,-4.2986,-4.2986,-4.2986,-4.2986,-4.2986,-4.2986,-4.2986,-4.2986,-4.2986,-4.2986,-4.2986,-4.3265,-4.3899,-4.3899,-4.3899,-4.3899,-4.3321,-4.3042,-4.2986,-4.2986,-4.2986,-4.2986,-4.2986,-4.2986,-4.2986,-4.2986,-4.2986,-4.2986,-4.2986,-4.2986,-4.2986,-4.2986,-4.2986,-4.2986,-4.2986,-4.2986,-4.2986,-4.2569,-4.2312,-4.211,-4.2054,-4.1859,-4.1663,-4.1972,-4.2054,-4.2054,-4.2054,-4.1859,-4.1606,-4.1606,-4.1402,-4.1172,-4.1172,-4.1172,-4.0711,-3.9226,-3.8789,-3.8455,-3.7495,-3.7071,-3.6646,-3.6034,-3.5911,-3.5932,-3.5932,-3.5911,-3.5809,-3.5479,-3.5418,-3.5294,-3.4922,-3.4922,-3.4735,-3.4423,-3.436,-3.4235,-3.3922,-3.3859,-3.3733,-3.3418,-3.3418,-3.3223,-3.2793,-3.2363,-3.2129,-3.215,-3.1289,-3.1094,-3.1484,-3.1074,-3.0898,-4.7902,-4.7308,-4.6582,-4.5665,-4.4885,-4.4066,-4.2812,-4.2257,-4.1743,-4.0969,-4.0587,-4.0287,-4.0032,-4.0077,-4.035,-4.0752,-4.105,-4.1605,-4.2333,-4.2514,-4.264,-4.2936,-4.2986,-4.2986,-4.2986,-4.2986,-4.3073,-4.324,-4.3073,-4.3073,-4.324,-4.3073,-4.3184,-4.3572,-4.3572,-4.3572,-4.3572,-4.3184,-4.2986,-4.2986,-4.2986,-4.2986,-4.2986,-4.2986,-4.2986,-4.2986,-4.2986,-4.2986,-4.2986,-4.2986,-4.2986,-4.2986,-4.2986,-4.2986,-4.2986,-4.2986,-4.2986,-4.2986,-4.265,-4.2425,-4.2312,-4.1891,-4.1859,-4.1915,-4.1802,-4.1777,-4.1777,-4.1777,-4.1573,-4.1344,-4.1344,-4.1287,-4.1172,-4.1172,-4.1172,-4.1057,-4.0455,-3.9814,-3.8908,-3.7352,-3.7011,-3.6646,-3.5726,-3.5747,-3.5932,-3.5932,-3.5932,-3.587,-3.5726,-3.5541,-3.5356,-3.5232,-3.5232,-3.5108,-3.4735,-3.4735,-3.461,-3.4235,-3.4047,-3.3859,-3.3733,-3.3481,-3.3359,-3.3203,-3.2519,-3.2031,-3.1758,-3.1172,-3.0976,-3.1113,-3.0957,-3.0898,-4.8209,-4.7869,-4.7445,-4.6674,-4.5887,-4.4991,-4.3851,-4.3165,-4.2426,-4.1362,-4.1055,-4.0709,-4.0032,-4.0413,-4.0736,-4.0526,-4.1128,-4.1731,-4.2162,-4.2363,-4.2615,-4.2936,-4.2986,-4.2986,-4.2986,-4.2986,-4.3073,-4.324,-4.3073,-4.3073,-4.324,-4.3073,-4.3129,-4.3381,-4.3381,-4.3381,-4.3381,-4.3129,-4.2986,-4.2986,-4.2986,-4.2986,-4.2986,-4.2986,-4.2986,-4.2986,-4.2986,-4.2986,-4.2986,-4.2986,-4.2986,-4.2986,-4.2986,-4.2986,-4.2986,-4.2986,-4.2986,-4.2986,-4.2737,-4.2569,-4.2457,-4.2174,-4.2118,-4.2199,-4.2118,-4.2061,-4.2061,-4.1948,-4.1745,-4.1459,-4.1344,-4.1287,-4.1172,-4.1172,-4.1172,-4.1172,-4.1172,-4.0687,-3.9732,-3.8134,-3.7594,-3.705,-3.6095,-3.5788,-3.5726,-3.5726,-3.6034,-3.6095,-3.5788,-3.5849,-3.5788,-3.5418,-3.5418,-3.5294,-3.5108,-3.517,-3.5046,-3.461,-3.4485,-3.4298,-3.411,-3.3733,-3.3607,-3.3733,-3.2858,-3.2229,-3.1918,-3.1231,-3.0957,-3.1094,-3.0957,-3.0898,0.0,0.0,0.0,-4.7209,-4.6557,-4.5921,-4.4891,-4.4311,-4.3632,-4.2228,-4.1846,-4.1319,-3.9915,-4.0517,-4.1078,-4.0555,-4.1458,-4.2187,-4.2187,-4.2665,-4.2961,-4.2986,-4.2986,-4.2986,-4.2986,-4.2986,-4.2986,-4.3042,-4.2986,-4.2986,-4.3042,-4.3042,-4.3129,-4.3406,-4.3381,-4.3381,-4.3381,-4.3129,-4.2986,-4.2986,-4.2986,-4.2986,-4.2986,-4.2986,-4.2986,-4.2986,-4.2986,-4.2986,-4.2986,-4.2986,-4.2986,-4.2986,-4.2986,-4.2986,-4.2986,-4.2986,-4.2986,-4.2986,-4.2986,-4.2818,-4.2569,-4.2849,-4.2737,-4.2569,-4.2874,-4.2986,-4.293,-4.2569,-4.2312,-4.2054,-4.1663,-4.1402,-4.1172,-4.1172,-4.1172,-4.1172,-4.1172,-4.1172,-4.0884,-3.9908,-3.8944,-3.7992,-3.705,-3.6095,-3.5479,-3.5418,-3.6279,-3.6563,-3.5541,-3.6279,-3.6524,-3.5603,-3.5418,-3.5418,-3.5418,-3.5726,-3.5603,-3.4984,-3.5232,-3.5108,-3.4423,-3.411,-3.4047,-3.4423,-3.3381,-3.2782,-3.2713,-3.1505,-3.1113,-3.1484,-3.1074,-3.0898,-4.7588,0.0,0.0,0.0,0.0,0.0,-4.5841,-4.5098,-4.4295,-4.3531,-4.3041,-4.2373,-4.1031,-4.0962,-4.0853,-4.0257,-4.1076,-4.1825,-4.1825,-4.2196,-4.259,-4.2936,-4.2986,-4.2986,-4.2986,-4.2986,-4.3073,-4.3295,-4.3129,-4.3073,-4.3295,-4.3295,-4.324,-4.3129,-4.3295,-4.3295,-4.3129,-4.3042,-4.2986,-4.2986,-4.2986,-4.2986,-4.2986,-4.2986,-4.2986,-4.2986,-4.2986,-4.2986,-4.2986,-4.2986,-4.2986,-4.2986,-4.2986,-4.2986,-4.2986,-4.2986,-4.2986,-4.2986,-4.2986,-4.293,-4.2874,-4.2681,-4.2762,-4.2793,-4.2681,-4.2625,-4.2625,-4.2513,-4.2312,-4.2054,-4.1663,-4.1549,-4.1435,-4.123,-4.1172,-4.1172,-4.1172,-4.1172,-4.0884,-3.9908,-3.9498,-3.8766,-3.7171,-3.7231,-3.705,-3.5603,-3.6807,-3.7594,-3.6624,-3.6746,-3.705,-3.7473,-3.6258,-3.5665,-3.6401,-3.5911,-3.5479,-3.5294,-3.5108,-3.4984,-3.4797,-3.4423,-3.4298,-3.4423,-3.3815,-3.3253,-3.2713,-3.18,-3.125,-3.1055,-3.0937,-3.0898,-4.7636,-4.792,-4.8142,-4.7245,0.0,0.0,-4.6648,-4.6089,-4.552,-4.4825,-4.4309,-4.3634,-4.235,-4.198,-4.1649,-4.076,-4.1334,-4.18,-4.1537,-4.2141,-4.2612,-4.2831,-4.3058,-4.3129,-4.3042,-4.2986,-4.3073,-4.324,-4.3073,-4.3073,-4.324,-4.3351,-4.3351,-4.3184,-4.3351,-4.3351,-4.3184,-4.3073,-4.2986,-4.2986,-4.2986,-4.2861,-4.269,-4.269,-4.269,-4.269,-4.269,-4.276,-4.2986,-4.2986,-4.2986,-4.2986,-4.2986,-4.2986,-4.2986,-4.2986,-4.2986,-4.2986,-4.2986,-4.2986,-4.2986,-4.2737,-4.2874,-4.2986,-4.2762,-4.2681,-4.2706,-4.2513,-4.2199,-4.1859,-4.1663,-4.1492,-4.1402,-4.123,-4.1172,-4.1172,-4.1172,-4.1172,-4.1,-4.0455,-3.9966,-3.9262,-3.7774,-3.7954,-3.7752,-3.6258,-3.7632,-3.8529,-3.7594,-3.7834,-3.8111,-3.8291,-3.6928,-3.6258,-3.6868,-3.6095,-3.5541,-3.5418,-3.5356,-3.5232,-3.5108,-3.4797,-3.4673,-3.4797,-3.4306,-3.3678,-3.2874,-3.2078,-3.1427,-3.0898,-3.0898,-3.0898,-4.7983,-4.8284,-4.8652,-4.8041,-4.8037,0.0,-4.7325,-4.7144,-4.6905,-4.6086,-4.5625,-4.5033,-4.3848,-4.3541,-4.3127,-4.1965,-4.2085,-4.212,-4.1363,-4.2261,-4.2897,-4.2649,-4.3132,-4.3351,-4.3073,-4.3042,-4.3042,-4.2986,-4.2986,-4.2986,-4.2986,-4.3295,-4.3462,-4.3381,-4.3386,-4.336,-4.3305,-4.2977,-4.2785,-4.2785,-4.2785,-4.2534,-4.2112,-4.2112,-4.2112,-4.2112,-4.2187,-4.2489,-4.2942,-4.2961,-4.2986,-4.2986,-4.2986,-4.2986,-4.2986,-4.2986,-4.2986,-4.2986,-4.2986,-4.2986,-4.2986,-4.2986,-4.2986,-4.2986,-4.2986,-4.2986,-4.293,-4.2569,-4.2118,-4.1663,-4.1606,-4.1459,-4.123,-4.1172,-4.1172,-4.1172,-4.1172,-4.1172,-4.1172,-4.1172,-4.0455,-3.9556,-3.8588,-3.8551,-3.8253,-3.7231,-3.867,-3.9556,-3.8588,-3.918,-3.9416,-3.873,-3.7714,-3.705,-3.705,-3.6401,-3.5849,-3.5418,-3.5665,-3.5726,-3.5418,-3.5108,-3.5108,-3.5418,-3.4696,-3.3961,-3.3175,-3.2336,-3.1604,-3.0937,-3.0898,-3.0898,-4.7328,-4.7354,-4.7515,-4.7815,-4.7912,0.0,-4.7784,-4.7544,-4.7201,-4.6716,-4.6675,-4.6401,-4.5269,-4.5277,-4.4974,-4.3637,-4.3666,-4.3255,-4.1495,-4.2035,-4.2729,-4.2923,-4.3431,-4.3653,-4.3351,-4.3351,-4.324,-4.3042,-4.2986,-4.2986,-4.2986,-4.3487,-4.3708,-4.3381,-4.3194,-4.2965,-4.2772,-4.199,-4.1601,-4.1601,-4.1601,-4.1605,-4.1505,-4.1505,-4.1505,-4.153,-4.1957,-4.2263,-4.2414,-4.2785,-4.2986,-4.2986,-4.2986,-4.2986,-4.2986,-4.2986,-4.2986,-4.2986,-4.2986,-4.2986,-4.2986,-4.2986,-4.2986,-4.2986,-4.2986,-4.2986,-4.293,-4.2569,-4.24,-4.2231,-4.172,-4.1549,-4.1435,-4.123,-4.1172,-4.1172,-4.1172,-4.1172,-4.1172,-4.1172,-4.1057,-4.0571,-3.9615,-4.0106,-4.0048,-3.8313,-3.9674,-4.0571,-3.9556,-3.9615,-3.9966,-4.0571,-3.9085,-3.8014,-3.8014,-3.7231,-3.634,-3.5479,-3.5479,-3.5479,-3.5418,-3.5356,-3.5356,-3.5418,-3.4329,-3.3638,-3.3535,-3.2134,-3.1346,-3.1208,-3.0995,-3.0898,-4.7436,-4.7209,-4.7045,-4.7417,-4.7804,0.0,0.0,-4.802,-4.8135,-4.7946,-4.7767,-4.7473,-4.6937,-4.6679,-4.6253,-4.5494,-4.5292,-4.4807,-4.3653,-4.3177,-4.2873,-4.2526,-4.3021,-4.3319,-4.303,-4.3,-4.3017,-4.3017,-4.2986,-4.2986,-4.2986,-4.3432,-4.35,-4.322,-4.2965,-4.2684,-4.2404,-4.1695,-4.1275,-4.1275,-4.1275,-4.115,-4.0874,-4.0874,-4.0874,-4.0953,-4.1229,-4.1656,-4.2238,-4.2514,-4.2791,-4.2986,-4.2986,-4.2986,-4.2986,-4.2986,-4.2986,-4.2986,-4.2986,-4.2986,-4.2986,-4.2986,-4.2986,-4.2986,-4.2986,-4.2849,-4.2706,-4.2369,-4.2174,-4.2004,-4.1663,-4.1492,-4.1402,-4.123,-4.1172,-4.1172,-4.1172,-4.1172,-4.1172,-4.1172,-4.1172,-4.0884,-3.9849,-4.0513,-4.0711,-3.9203,-4.0281,-4.1,-4.0513,-4.0455,-4.0629,-4.1115,-3.9849,-3.9003,-3.9003,-3.7714,-3.6685,-3.6218,-3.6156,-3.5911,-3.5418,-3.5911,-3.5911,-3.5418,-3.4634,-3.406,-3.3834,-3.2666,-3.1814,-3.1325,-3.117,-3.1054,-4.7505,-4.7291,-4.7089,-4.734,-4.7897,-4.8322,0.0,0.0,0.0,-4.8815,-4.8438,-4.8187,-4.8321,-4.7902,-4.7433,-4.7358,-4.6952,-4.6591,-4.6392,-4.4991,-4.3696,-4.2895,-4.3075,-4.3206,-4.3113,-4.2866,-4.2743,-4.2897,-4.3078,-4.3154,-4.3073,-4.3351,-4.3318,-4.292,-4.2656,-4.2325,-4.195,-4.1372,-4.1028,-4.0974,-4.0974,-4.0802,-4.035,-4.035,-4.035,-4.035,-4.0475,-4.1078,-4.2062,-4.2162,-4.2539,-4.2986,-4.2986,-4.2986,-4.2986,-4.2986,-4.2986,-4.2986,-4.2986,-4.2986,-4.2986,-4.2986,-4.2986,-4.2986,-4.2986,-4.2793,-4.2538,-4.2199,-4.1972,-4.1777,-4.1606,-4.1435,-4.1287,-4.1287,-4.123,-4.1172,-4.1172,-4.1172,-4.1172,-4.1172,-4.1172,-4.0942,-4.0141,-4.0629,-4.0942,-4.0083,-4.0687,-4.1172,-4.1172,-4.1172,-4.1172,-4.1172,-4.0455,-3.9908,-3.9732,-3.8291,-3.7352,-3.7171,-3.7171,-3.6685,-3.5726,-3.6462,-3.6462,-3.5418,-3.5166,-3.4768,-3.4132,-3.3361,-3.2502,-3.1498,-3.1441,-3.1286,-4.6636,-4.7193,-4.7933,-4.8322,-4.8762,-4.8891,-4.8054,0.0,-4.8815,-4.8173,0.0,-4.8149,-4.879,0.0,0.0,-4.8995,-4.8827,-4.8582,-4.8381,-4.707,-4.6081,-4.6053,-4.4889,-4.428,-4.4776,-4.3674,-4.2891,-4.2641,-4.3343,-4.3653,-4.3351,-4.3653,-4.3479,-4.2674,-4.2381,-4.1845,-4.1049,-4.0514,-4.0131,-3.9873,-3.9873,-3.9848,-3.9798,-3.9798,-3.9798,-3.9823,-4.03,-4.0852,-4.1455,-4.1957,-4.2539,-4.2986,-4.2986,-4.2986,-4.2986,-4.2986,-4.2986,-4.2986,-4.2986,-4.2986,-4.2986,-4.2986,-4.2986,-4.2986,-4.2986,-4.2986,-4.2818,-4.228,-4.2256,-4.2287,-4.172,-4.1606,-4.1549,-4.1549,-4.1402,-4.1172,-4.1172,-4.1172,-4.1172,-4.1172,-4.1172,-4.1172,-4.1057,-4.1115,-4.1172,-4.1057,-4.1115,-4.1172,-4.1172,-4.1172,-4.1172,-4.1172,-4.1115,-4.0687,-3.9791,-3.9474,-3.9003,-3.8194,-3.8111,-3.7714,-3.6767,-3.6807,-3.6462,-3.5418,-3.5813,-3.5406,-3.4132,-3.3596,-3.2909,-3.219,-3.1903,-3.173,-4.5633,-4.5696,-4.6166,-4.748,-4.7887,-4.8133,-4.8751,-4.8964,-4.8917,-4.8612,0.0,0.0,0.0,0.0,0.0,0.0,-4.9284,-4.9057,-4.946,-4.8122,-4.7098,-4.7156,-4.5727,-4.4743,-4.4853,-4.4438,-4.3987,-4.3441,-4.4071,-4.4092,-4.3198,-4.3332,-4.3077,-4.2353,-4.1766,-4.1258,-4.0875,-4.0517,-4.0185,-3.9929,-3.9929,-3.9826,-3.9697,-3.9697,-3.9697,-3.9697,-3.9948,-4.035,-4.0877,-4.1103,-4.153,-4.2057,-4.2384,-4.2766,-4.2986,-4.2986,-4.2986,-4.2986,-4.2986,-4.2986,-4.2986,-4.2986,-4.2986,-4.2986,-4.2737,-4.2681,-4.265,-4.2224,-4.2029,-4.1948,-4.1915,-4.1631,-4.1402,-4.1549,-4.1402,-4.1172,-4.1172,-4.1172,-4.1172,-4.1172,-4.1172,-4.1172,-4.1172,-4.1172,-4.1172,-4.1172,-4.1172,-4.1172,-4.1172,-4.1172,-4.1172,-4.1172,-4.1172,-4.1057,-4.0629,-4.0024,-3.9533,-3.9121,-3.8588,-3.835,-3.8529,-3.7992,-3.7533,-3.711,-3.7314,-3.6747,-3.5342,-3.513,-3.4459,-3.3317,-3.2493,-3.2102,-4.4881,-4.4756,-4.5172,-4.6829,-4.7141,-4.7452,-4.916,-4.9288,-4.9106,-4.9403,-4.9396,0.0,0.0,0.0,-4.9526,-5.027,0.0,-4.9502,-5.0574,-4.9121,-4.8092,-4.8403,-4.7098,-4.5874,-4.5091,-4.5196,-4.5001,-4.4284,-4.4854,-4.4745,-4.3651,-4.3333,-4.2888,-4.211,-4.1385,-4.09,-4.0694,-4.0542,-4.0338,-4.0083,-4.0032,-3.9878,-3.9697,-3.9697,-3.9697,-3.9697,-3.9697,-3.9998,-4.0526,-4.0526,-4.0852,-4.1351,-4.1932,-4.2464,-4.2816,-4.2911,-4.2986,-4.2986,-4.2986,-4.2986,-4.2986,-4.2986,-4.2986,-4.2986,-4.2681,-4.2625,-4.2594,-4.2312,-4.2086,-4.2004,-4.2142,-4.1859,-4.1573,-4.1745,-4.1516,-4.1287,-4.123,-4.1172,-4.1172,-4.1172,-4.1172,-4.1172,-4.1172,-4.1172,-4.1172,-4.1172,-4.1172,-4.1172,-4.1172,-4.1172,-4.1172,-4.1172,-4.1172,-4.1172,-4.1172,-4.0513,-4.0083,-4.0083,-3.9203,-3.9003,-3.9674,-3.9085,-3.8529,-3.8313,-3.8529,-3.7985,-3.6572,-3.6441,-3.5731,-3.4446,-3.3331,-3.2857,-4.4398,-4.5092,-4.6142,-4.6944,-4.6919,-4.7203,-4.9088,-4.922,-4.9294,-5.0426,-5.035,-5.027,-5.1014,-5.0541,-5.0304,-5.1048,-5.0541,0.0,0.0,-5.034,-4.935,-5.0465,-4.9575,-4.8071,-4.5976,-4.5758,-4.5468,-4.4809,-4.5539,-4.5727,-4.5183,-4.4178,-4.3173,-4.2109,-4.1544,-4.09,-4.0134,-4.0389,-4.0338,-4.0083,-3.9826,-3.9697,-3.9697,-3.9697,-3.9697,-3.9697,-3.9697,-3.9998,-4.0526,-4.0526,-4.0852,-4.1351,-4.1932,-4.2213,-4.2313,-4.2841,-4.2986,-4.2986,-4.2986,-4.2986,-4.2986,-4.2986,-4.2986,-4.2986,-4.2986,-4.2986,-4.293,-4.2569,-4.2681,-4.2849,-4.2569,-4.2457,-4.2425,-4.2142,-4.1859,-4.1492,-4.123,-4.1172,-4.1172,-4.1172,-4.1172,-4.1172,-4.1172,-4.1172,-4.1172,-4.1172,-4.1172,-4.1172,-4.1172,-4.1172,-4.1172,-4.1172,-4.1172,-4.1172,-4.1172,-4.1172,-4.1115,-4.1115,-4.0199,-3.9674,-3.9732,-3.9674,-3.9262,-3.8313,-3.918,-3.8928,-3.7551,-3.7023,-3.6316,-3.5445,-3.4505,-3.4031,-4.3778,-4.4038,-4.4828,-4.6208,-4.6447,-4.6837,-4.8728,-4.9026,-4.9104,-5.0055,-5.0259,-5.0323,-5.0443,-5.0676,-5.0608,-4.9864,-5.0371,-5.0676,0.0,-4.9898,-4.9873,-5.0257,-4.9888,-4.9111,-4.7901,-4.7439,-4.6815,-4.5809,-4.6368,-4.6262,-4.5204,-4.4698,-4.3927,-4.2841,-4.2145,-4.1455,-4.0896,-4.0795,-4.0643,-4.0338,-4.0083,-3.9878,-3.9697,-3.9697,-3.9697,-3.9697,-3.9697,-3.9798,-3.9973,-3.9973,-4.0074,-4.035,-4.1254,-4.1605,-4.1731,-4.2635,-4.2986,-4.2986,-4.2986,-4.2986,-4.2986,-4.2986,-4.2986,-4.2986,-4.2986,-4.2986,-4.2986,-4.2874,-4.2737,-4.2681,-4.2818,-4.2538,-4.2199,-4.211,-4.1859,-4.1549,-4.123,-4.1172,-4.1172,-4.1172,-4.1172,-4.1172,-4.1172,-4.1172,-4.1172,-4.1172,-4.1172,-4.1172,-4.1172,-4.1172,-4.1172,-4.1172,-4.1172,-4.1172,-4.1172,-4.1172,-4.1172,-4.1172,-4.0884,-4.0687,-4.0687,-4.0687,-4.0513,-4.0223,-4.0513,-4.0129,-3.8987,-3.8826,-3.8267,-3.7325,-3.7028,-3.587,-4.3289,-4.3329,-4.3897,-4.5667,-4.5629,-4.5882,-4.8302,-4.8498,-4.8556,-4.9693,-5.029,-5.0648,-5.0727,-5.1027,-5.099,-4.9968,-5.0371,-5.0405,0.0,-4.9864,-5.0405,-5.0135,-5.0089,-4.9738,-4.8828,-4.8376,-4.7532,-4.6089,-4.6742,-4.6648,-4.5476,-4.4809,-4.4111,-4.3335,-4.2225,-4.1421,-4.0997,-4.0846,-4.0643,-4.0338,-4.0083,-3.9878,-3.9697,-3.9697,-3.9697,-3.9697,-3.9697,-3.9697,-3.9697,-3.9697,-3.9798,-4.0074,-4.0924,-4.1401,-4.1731,-4.2635,-4.2986,-4.2986,-4.2986,-4.2986,-4.2986,-4.2986,-4.2986,-4.2986,-4.2986,-4.2986,-4.2986,-4.2986,-4.2849,-4.2762,-4.2905,-4.265,-4.2199,-4.211,-4.1915,-4.1688,-4.1402,-4.1344,-4.1344,-4.1344,-4.1287,-4.1172,-4.1172,-4.1172,-4.1172,-4.1172,-4.1172,-4.1172,-4.1172,-4.1287,-4.1287,-4.1172,-4.1287,-4.1287,-4.1172,-4.1172,-4.1172,-4.1172,-4.1172,-4.1172,-4.1172,-4.1172,-4.1268,-4.1461,-4.1268,-4.098,-4.054,-4.0105,-3.9546,-3.8766,-3.8485,-3.7236]},{"header":{"parameterUnit":"m.s-1","parameterCategory":1,"la1":30.6,"la2":29.2853,"lo1":-89.7004,"lo2":-87.6739,"dy":0.0162,"dx":0.0183,"nx":112,"ny":82,"refTime":"2023-05-11T12:00:00:Z","depth":0,"parameterNumber":3,"parameterNumberName":"V-component_of_WINDS"},"data":[0.0,0.0,0.0,0.0,0.0,0.0,0.0,0.0,0.0,0.0,0.0,0.0,0.0,0.0,0.0,0.0,0.0,0.0,0.0,0.0,0.0,0.0,0.0,0.0,0.0,0.0,0.0,0.0,0.0,0.0,0.0,0.0,0.0,0.0,0.0,0.0,0.0,0.0,0.0,0.0,0.0,0.0,0.0,0.0,0.0,0.0,0.0,0.0,0.0,0.0,0.0,0.0,0.0,0.0,0.0,0.0,0.0,0.0,0.0,0.0,0.0,0.0,0.0,0.0,0.0,0.0,0.0,0.0,0.0,0.0,0.0,0.0,0.0,0.0,0.0,0.0,0.0,0.0,0.0,0.0,0.0,0.0,0.0,0.0,0.0,0.0,0.0,0.0,0.0,0.0,2.6516,2.6145,2.6757,2.6581,2.5032,2.5866,2.6027,2.5073,0.0,0.0,0.0,0.0,0.0,0.0,0.0,0.0,0.0,0.0,0.0,0.0,0.0,0.0,0.0,0.0,0.0,0.0,0.0,0.0,0.0,0.0,0.0,0.0,0.0,0.0,0.0,0.0,0.0,0.0,0.0,0.0,0.0,0.0,0.0,0.0,0.0,0.0,0.0,0.0,0.0,0.0,0.0,0.0,0.0,0.0,0.0,0.0,0.0,0.0,0.0,0.0,0.0,0.0,0.0,0.0,0.0,0.0,0.0,0.0,0.0,0.0,0.0,0.0,0.0,0.0,0.0,0.0,0.0,0.0,0.0,0.0,0.0,0.0,0.0,0.0,0.0,0.0,0.0,0.0,0.0,0.0,0.0,0.0,0.0,0.0,0.0,0.0,0.0,0.0,0.0,0.0,0.0,0.0,0.0,0.0,0.0,0.0,0.0,0.0,0.0,0.0,0.0,0.0,2.7269,2.8109,2.8876,2.881,2.761,2.7509,2.6672,2.4875,0.0,0.0,0.0,0.0,0.0,0.0,0.0,0.0,0.0,0.0,0.0,0.0,0.0,0.0,0.0,0.0,0.0,0.0,0.0,0.0,0.0,0.0,0.0,0.0,0.0,0.0,0.0,0.0,0.0,0.0,0.0,0.0,0.0,0.0,0.0,0.0,0.0,0.0,0.0,0.0,0.0,0.0,0.0,0.0,0.0,0.0,0.0,0.0,0.0,0.0,0.0,0.0,0.0,0.0,0.0,0.0,0.0,0.0,0.0,0.0,0.0,0.0,0.0,0.0,0.0,0.0,0.0,0.0,0.0,0.0,0.0,0.0,0.0,0.0,0.0,0.0,0.0,0.0,0.0,0.0,0.0,0.0,0.0,0.0,0.0,0.0,0.0,0.0,0.0,0.0,0.0,0.0,0.0,0.0,0.0,0.0,0.0,0.0,0.0,0.0,0.0,0.0,0.0,2.9094,2.9346,3.088,3.0698,3.0179,2.9409,2.849,2.7426,2.6215,2.4921,0.0,0.0,0.0,0.0,0.0,0.0,0.0,0.0,0.0,0.0,0.0,0.0,0.0,0.0,0.0,0.0,0.0,0.0,0.0,0.0,0.0,0.0,0.0,0.0,0.0,0.0,0.0,0.0,0.0,0.0,0.0,0.0,0.0,0.0,0.0,0.0,0.0,0.0,0.0,0.0,0.0,0.0,0.0,0.0,0.0,0.0,0.0,0.0,0.0,0.0,0.0,0.0,0.0,0.0,0.0,0.0,0.0,0.0,0.0,0.0,0.0,0.0,0.0,0.0,0.0,0.0,0.0,0.0,0.0,0.0,0.0,0.0,0.0,0.0,0.0,0.0,0.0,0.0,0.0,0.0,0.0,0.0,0.0,0.0,0.0,0.0,0.0,0.0,0.0,0.0,0.0,0.0,0.0,0.0,0.0,0.0,0.0,0.0,0.0,0.0,0.0,0.0,3.1388,3.1746,3.3105,3.2513,3.1736,3.0889,2.9359,2.8109,2.7206,2.5574,0.0,0.0,0.0,0.0,0.0,0.0,0.0,0.0,0.0,0.0,0.0,0.0,0.0,0.0,0.0,0.0,0.0,0.0,0.0,0.0,0.0,0.0,0.0,0.0,0.0,0.0,0.0,0.0,0.0,0.0,0.0,0.0,0.0,0.0,0.0,0.0,0.0,0.0,0.0,0.0,0.0,0.0,0.0,0.0,0.0,0.0,0.0,0.0,0.0,0.0,0.0,0.0,0.0,0.0,0.0,0.0,0.0,0.0,0.0,0.0,0.0,0.0,0.0,0.0,0.0,0.0,0.0,0.0,0.0,0.0,0.0,0.0,0.0,0.0,0.0,0.0,0.0,0.0,0.0,0.0,0.0,0.0,0.0,0.0,0.0,0.0,0.0,0.0,0.0,0.0,0.0,0.0,0.0,0.0,0.0,0.0,0.0,0.0,0.0,0.0,0.0,0.0,3.3155,3.4112,3.4066,3.4642,3.4245,3.2175,3.0324,2.8488,2.652,2.5185,0.0,0.0,0.0,0.0,0.0,0.0,0.0,0.0,0.0,0.0,0.0,0.0,0.0,0.0,0.0,0.0,0.0,0.0,0.0,0.0,0.0,0.0,0.0,0.0,0.0,0.0,0.0,0.0,0.0,0.0,0.0,0.0,0.0,0.0,0.0,0.0,0.0,0.0,0.0,0.0,0.0,0.0,0.0,0.0,0.0,0.0,0.0,0.0,0.0,0.0,0.0,0.0,0.0,0.0,0.0,0.0,0.0,0.0,0.0,0.0,0.0,0.0,0.0,0.0,0.0,0.0,0.0,0.0,0.0,0.0,0.0,0.0,0.0,0.0,0.0,0.0,0.0,0.0,0.0,0.0,0.0,0.0,0.0,0.0,0.0,0.0,0.0,0.0,0.0,0.0,0.0,0.0,0.0,0.0,0.0,0.0,0.0,0.0,0.0,0.0,0.0,0.0,3.3395,3.4568,3.5371,3.5148,3.4717,3.4227,3.2447,3.0158,2.7477,0.0,0.0,0.0,0.0,0.0,0.0,0.0,0.0,0.0,0.0,0.0,0.0,0.0,0.0,0.0,0.0,0.0,0.0,0.0,0.0,0.0,0.0,0.0,0.0,0.0,0.0,0.0,0.0,0.0,0.0,0.0,0.0,0.0,0.0,0.0,0.0,0.0,0.0,0.0,0.0,0.0,0.0,0.0,0.0,0.0,0.0,0.0,0.0,0.0,0.0,0.0,0.0,0.0,0.0,0.0,0.0,0.0,0.0,0.0,0.0,0.0,0.0,0.0,0.0,0.0,0.0,0.0,0.0,0.0,0.0,0.0,0.0,0.0,0.0,0.0,0.0,0.0,0.0,0.0,0.0,0.0,0.0,0.0,0.0,0.0,0.0,0.0,0.0,0.0,0.0,0.0,0.0,0.0,0.0,0.0,0.0,0.0,0.0,0.0,0.0,0.0,0.0,3.2731,3.4454,3.5905,3.681,3.6506,3.601,3.5588,3.3899,3.1635,2.8737,0.0,0.0,0.0,0.0,0.0,0.0,0.0,0.0,0.0,0.0,0.0,0.0,0.0,0.0,0.0,0.0,0.0,0.0,0.0,0.0,0.0,0.0,0.0,0.0,0.0,0.0,0.0,0.0,0.0,0.0,0.0,0.0,0.0,0.0,0.0,0.0,0.0,0.0,0.0,0.0,0.0,0.0,0.0,0.0,0.0,0.0,0.0,0.0,0.0,0.0,0.0,0.0,0.0,0.0,0.0,0.0,0.0,0.0,0.0,0.0,0.0,0.0,0.0,0.0,0.0,0.0,0.0,0.0,0.0,0.0,0.0,0.0,0.0,0.0,0.0,0.0,0.0,0.0,0.0,0.0,0.0,0.0,0.0,0.0,0.0,0.0,0.0,0.0,0.0,0.0,0.0,0.0,0.0,0.0,0.0,0.0,0.0,0.0,0.0,0.0,0.0,0.0,3.4038,3.661,3.8349,3.8244,3.8933,3.8444,3.6044,3.4571,3.2688,0.0,0.0,0.0,0.0,0.0,0.0,0.0,0.0,0.0,0.0,0.0,0.0,0.0,0.0,0.0,0.0,0.0,0.0,0.0,0.0,0.0,0.0,0.0,0.0,0.0,0.0,0.0,0.0,0.0,0.0,0.0,0.0,0.0,0.0,0.0,0.0,0.0,0.0,0.0,0.0,0.0,0.0,0.0,0.0,0.0,0.0,0.0,0.0,0.0,0.0,0.0,0.0,0.0,0.0,0.0,0.0,0.0,0.0,0.0,0.0,0.0,0.0,0.0,0.0,0.0,0.0,0.0,0.0,0.0,0.0,0.0,0.0,0.0,0.0,0.0,0.0,0.0,0.0,0.0,0.0,0.0,0.0,0.0,0.0,0.0,0.0,0.0,0.0,0.0,0.0,0.0,0.0,0.0,0.0,0.0,0.0,0.0,0.0,0.0,0.0,0.0,0.0,0.0,3.5199,3.6804,3.8296,3.9257,3.9611,3.9219,3.7912,3.6892,3.5022,3.2154,0.0,0.0,0.0,0.0,0.0,0.0,0.0,0.0,0.0,0.0,0.0,0.0,0.0,0.0,0.0,0.0,0.0,0.0,0.0,0.0,0.0,0.0,0.0,0.0,0.0,0.0,0.0,0.0,0.0,0.0,0.0,0.0,0.0,0.0,0.0,0.0,0.0,0.0,0.0,0.0,0.0,0.0,0.0,0.0,0.0,0.0,0.0,0.0,0.0,0.0,0.0,0.0,0.0,0.0,0.0,0.0,0.0,0.0,0.0,0.0,0.0,0.0,0.0,0.0,0.0,0.0,0.0,0.0,0.0,0.0,0.0,0.0,0.0,0.0,0.0,0.0,0.0,0.0,0.0,0.0,0.0,0.0,0.0,0.0,0.0,0.0,0.0,0.0,0.0,0.0,0.0,0.0,0.0,0.0,0.0,0.0,0.0,0.0,0.0,0.0,0.0,0.0,3.6395,3.8264,3.9732,4.0396,4.0595,4.0292,3.9249,3.8653,3.7116,3.4175,0.0,0.0,0.0,0.0,0.0,0.0,0.0,0.0,0.0,0.0,0.0,0.0,0.0,0.0,0.0,0.0,0.0,0.0,0.0,0.0,0.0,0.0,0.0,0.0,0.0,0.0,0.0,0.0,0.0,0.0,0.0,0.0,0.0,0.0,0.0,0.0,0.0,0.0,0.0,0.0,0.0,0.0,0.0,0.0,0.0,0.0,0.0,0.0,0.0,0.0,0.0,0.0,0.0,0.0,0.0,0.0,0.0,0.0,0.0,0.0,0.0,0.0,0.0,0.0,0.0,0.0,0.0,0.0,0.0,0.0,0.0,0.0,0.0,0.0,0.0,0.0,0.0,0.0,0.0,0.0,0.0,0.0,0.0,0.0,0.0,0.0,0.0,0.0,0.0,0.0,0.0,0.0,0.0,0.0,0.0,0.0,0.0,0.0,0.0,0.0,0.0,0.0,3.7647,4.0326,4.2035,4.1492,4.1705,4.1412,4.0085,4.0002,3.8849,3.621,0.0,0.0,0.0,0.0,0.0,0.0,0.0,0.0,0.0,0.0,0.0,0.0,0.0,0.0,0.0,0.0,0.0,0.0,0.0,0.0,0.0,0.0,0.0,0.0,0.0,0.0,0.0,0.0,0.0,0.0,0.0,0.0,0.0,0.0,0.0,0.0,0.0,0.0,0.0,0.0,0.0,0.0,0.0,0.0,0.0,0.0,0.0,0.0,0.0,0.0,0.0,0.0,0.0,0.0,0.0,0.0,0.0,0.0,0.0,0.0,3.8613,3.721,0.0,0.0,0.0,0.0,0.0,0.0,0.0,0.0,0.0,0.0,0.0,0.0,0.0,0.0,0.0,0.0,0.0,0.0,0.0,0.0,0.0,0.0,0.0,0.0,0.0,0.0,0.0,0.0,0.0,0.0,0.0,0.0,0.0,0.0,0.0,0.0,0.0,0.0,0.0,0.0,3.8847,4.086,4.2298,4.2612,4.2687,4.2209,4.098,4.054,3.9533,3.7808,3.6315,0.0,0.0,0.0,0.0,0.0,0.0,0.0,0.0,0.0,0.0,0.0,0.0,0.0,0.0,0.0,0.0,0.0,0.0,0.0,0.0,0.0,0.0,0.0,0.0,0.0,0.0,0.0,0.0,0.0,0.0,0.0,0.0,0.0,0.0,0.0,0.0,0.0,0.0,0.0,0.0,0.0,0.0,0.0,0.0,0.0,0.0,0.0,0.0,0.0,0.0,0.0,0.0,0.0,0.0,0.0,0.0,0.0,0.0,0.0,4.2528,4.0743,0.0,0.0,0.0,0.0,0.0,0.0,0.0,0.0,0.0,0.0,0.0,0.0,0.0,0.0,0.0,0.0,0.0,0.0,0.0,0.0,0.0,0.0,0.0,0.0,0.0,0.0,0.0,0.0,0.0,0.0,0.0,0.0,0.0,0.0,0.0,0.0,0.0,0.0,0.0,0.0,3.9572,4.1395,4.2798,4.3381,4.3321,4.2905,4.2238,4.1879,4.0929,3.9224,3.8221,0.0,0.0,0.0,0.0,0.0,0.0,0.0,0.0,0.0,0.0,0.0,0.0,0.0,0.0,0.0,0.0,0.0,0.0,0.0,0.0,0.0,0.0,0.0,0.0,0.0,0.0,0.0,0.0,0.0,0.0,0.0,0.0,0.0,0.0,0.0,0.0,0.0,0.0,0.0,0.0,0.0,0.0,0.0,0.0,0.0,0.0,0.0,0.0,0.0,0.0,0.0,0.0,0.0,4.7616,4.8113,4.8531,4.8367,4.834,4.8177,4.6322,4.4546,4.291,4.2178,0.0,0.0,0.0,0.0,0.0,0.0,0.0,0.0,0.0,0.0,0.0,0.0,0.0,0.0,0.0,0.0,0.0,0.0,0.0,0.0,0.0,0.0,4.2678,4.4889,4.5571,4.4235,3.8642,0.0,0.0,0.0,0.0,0.0,0.0,0.0,0.0,0.0,0.0,0.0,3.9956,4.1896,4.3361,4.3848,4.3653,4.3517,4.3517,4.3295,4.2363,4.0592,4.0364,3.8855,0.0,0.0,0.0,0.0,0.0,0.0,0.0,0.0,0.0,0.0,0.0,0.0,0.0,0.0,0.0,0.0,0.0,0.0,0.0,0.0,0.0,0.0,0.0,0.0,0.0,0.0,0.0,0.0,0.0,0.0,0.0,0.0,4.4193,4.3433,0.0,0.0,0.0,0.0,0.0,0.0,0.0,0.0,0.0,0.0,0.0,0.0,0.0,5.0969,5.1288,5.1757,5.2178,5.2444,5.2793,5.2984,5.299,5.2284,5.192,5.1811,5.0749,0.0,4.5991,4.5493,0.0,0.0,0.0,0.0,0.0,0.0,0.0,0.0,0.0,0.0,0.0,0.0,0.0,0.0,0.0,0.0,0.0,0.0,0.0,0.0,0.0,0.0,4.5459,4.5741,4.6489,4.6738,4.5226,4.4084,4.2821,4.1191,4.0404,3.9559,0.0,0.0,0.0,0.0,0.0,0.0,4.0058,4.2253,4.3823,4.3899,4.3844,4.3844,4.3844,4.3789,4.3252,4.1972,4.146,4.0746,3.9728,3.8481,0.0,0.0,0.0,0.0,0.0,0.0,0.0,0.0,0.0,0.0,0.0,0.0,0.0,0.0,0.0,0.0,0.0,0.0,0.0,0.0,0.0,0.0,0.0,0.0,0.0,0.0,0.0,0.0,0.0,4.3457,4.46,4.4357,4.4905,4.5386,0.0,0.0,0.0,0.0,0.0,0.0,0.0,0.0,0.0,5.2733,5.3229,5.3524,5.3635,5.4119,5.4391,5.458,5.5066,5.5242,5.5213,5.4814,5.4492,5.4088,5.3691,5.2526,5.0743,4.8486,4.6877,4.5813,0.0,0.0,0.0,0.0,4.4217,4.3655,4.3655,4.3491,4.3327,4.3356,0.0,0.0,0.0,0.0,0.0,0.0,0.0,4.3106,4.504,4.6329,4.7301,4.7951,4.8869,4.9463,4.9103,4.8231,4.6875,4.4709,4.4222,4.3609,4.1881,4.1699,0.0,0.0,0.0,4.1847,4.1595,4.2912,4.4004,4.4341,4.4203,4.4313,4.475,4.4642,4.4253,4.3593,4.289,4.1954,4.0754,3.9558,3.837,0.0,0.0,0.0,0.0,0.0,0.0,0.0,0.0,0.0,0.0,0.0,0.0,0.0,0.0,0.0,0.0,0.0,0.0,0.0,0.0,0.0,0.0,0.0,0.0,0.0,0.0,0.0,0.0,4.4936,4.6399,4.6029,4.708,4.7807,0.0,0.0,0.0,0.0,0.0,0.0,5.2163,5.344,5.4353,5.4856,5.5389,5.5619,5.5567,5.6012,5.6232,5.6126,5.6598,5.678,5.678,5.6603,5.619,5.5542,5.5394,5.4923,5.4053,5.119,4.9154,4.7833,4.7359,4.6606,4.5776,4.5866,4.5789,4.5552,4.5552,4.5552,4.5579,4.5597,4.4848,4.3959,4.4298,0.0,0.0,0.0,0.0,4.5219,4.7215,4.8114,4.8759,4.9893,5.0683,5.1229,5.1229,5.0794,4.9762,4.7377,4.7105,4.6684,4.4872,4.4797,0.0,4.2343,4.3177,4.3818,4.3307,4.4045,4.4732,4.4912,4.4753,4.4863,4.5474,4.5367,4.5144,4.4911,4.433,4.3486,4.2269,4.1267,4.0189,3.8997,0.0,0.0,0.0,0.0,0.0,0.0,0.0,0.0,0.0,0.0,0.0,0.0,0.0,0.0,0.0,0.0,0.0,0.0,0.0,0.0,0.0,0.0,0.0,0.0,0.0,0.0,0.0,0.0,0.0,4.9687,5.1408,0.0,0.0,0.0,0.0,5.2868,5.3555,5.3973,5.4062,5.5308,5.6077,5.6107,5.7281,5.7832,5.7565,5.8218,5.8352,5.8048,5.8077,5.8107,5.8077,5.7517,5.6868,5.619,5.5571,5.4923,5.4245,5.374,5.2783,5.1531,5.1472,5.0319,4.8752,4.911,4.87,4.794,4.794,4.794,4.7934,4.8067,4.7433,4.6805,4.8037,4.663,0.0,0.0,4.7619,4.6976,4.9169,4.9779,4.9974,5.0614,5.0981,5.1229,5.1229,5.1199,5.0679,4.9008,4.8159,4.7347,4.6006,0.0,4.4869,4.4525,4.5226,4.5524,4.4706,4.5792,4.6347,4.5635,4.5523,4.5484,4.5484,4.5573,4.5712,4.5755,4.5706,4.5797,4.5998,4.4379,4.3551,4.3751,4.1781,0.0,0.0,0.0,0.0,0.0,0.0,0.0,0.0,0.0,0.0,0.0,0.0,0.0,0.0,0.0,0.0,0.0,0.0,0.0,0.0,0.0,0.0,0.0,0.0,0.0,0.0,0.0,0.0,5.2109,5.3655,0.0,5.3893,5.3883,5.4072,5.4461,5.5089,5.5658,5.6047,5.6944,5.7633,5.8052,5.8501,5.8716,5.8608,5.8817,5.8882,5.8773,5.8773,5.8773,5.8773,5.8535,5.7821,5.6779,5.6541,5.5827,5.4896,5.4759,5.3962,5.2802,5.2339,5.1531,5.0508,5.0063,4.978,4.9651,4.9432,4.9479,4.9574,4.9227,4.8854,4.8547,4.8781,4.8179,4.7735,4.9304,4.9238,4.8981,5.0176,5.0466,5.0525,5.0763,5.1011,5.1229,5.1229,5.1229,5.1046,5.0478,5.0147,4.971,4.8817,4.8858,4.8563,4.7367,4.7806,4.7941,4.6969,4.7258,4.7485,4.7177,4.7137,4.7164,4.7221,4.7291,4.7195,4.6893,4.6461,4.6073,4.5709,4.4678,4.3929,4.3676,4.2502,4.153,0.0,0.0,0.0,0.0,0.0,0.0,0.0,0.0,0.0,0.0,0.0,0.0,0.0,0.0,0.0,0.0,0.0,0.0,0.0,0.0,0.0,0.0,0.0,0.0,0.0,5.1967,5.3926,5.4285,5.5835,5.6586,5.5927,5.5837,5.5927,5.6166,5.6585,5.7094,5.7723,5.8411,5.889,5.9099,5.9548,5.9578,5.9099,5.9308,5.9308,5.9099,5.9099,5.9099,5.9099,5.9099,5.8381,5.7094,5.7094,5.6376,5.5179,5.5179,5.4738,5.3879,5.292,5.225,5.1709,5.074,5.0505,5.0651,5.0319,5.0357,5.0412,4.997,4.9823,4.9811,4.9554,4.9453,4.9588,5.019,5.0245,5.0223,5.0798,5.087,5.0822,5.0917,5.1058,5.1229,5.1229,5.1276,5.1339,5.1339,5.1276,5.1079,5.0584,5.093,5.0815,4.9681,4.9879,4.9757,4.8795,4.8696,4.8596,4.8296,4.8247,4.826,4.8346,4.8431,4.8313,4.7981,4.7528,4.7095,4.6719,4.5849,4.5213,4.492,4.3621,4.268,4.2051,0.0,0.0,0.0,0.0,0.0,0.0,0.0,0.0,0.0,0.0,0.0,0.0,0.0,0.0,0.0,0.0,0.0,0.0,0.0,0.0,0.0,0.0,0.0,5.1503,5.4836,5.6915,5.6368,5.7962,5.862,5.7274,5.7154,5.7423,5.8112,5.8141,5.8441,5.9099,5.9727,5.9787,5.9189,6.0416,6.0475,5.9159,5.9757,5.9757,5.9129,5.9129,5.9129,5.9129,5.9129,5.8381,5.7124,5.7094,5.6376,5.5209,5.5209,5.5179,5.5059,5.3446,5.2694,5.2308,5.1414,5.1081,5.1042,5.0669,5.0607,5.053,5.053,5.053,5.0501,5.0501,5.0501,5.0567,5.0775,5.0662,5.0644,5.1088,5.1011,5.087,5.1105,5.1229,5.1229,5.1229,5.1386,5.1618,5.1618,5.1386,5.1229,5.1229,5.1229,5.1229,5.1229,5.1229,0.0,5.0172,5.0076,4.9757,4.8993,4.8866,4.8777,4.8777,4.885,4.8907,4.8878,4.8907,4.8998,4.9239,4.8118,4.7628,4.7837,4.5288,4.3634,4.3031,0.0,0.0,0.0,0.0,0.0,0.0,0.0,0.0,0.0,0.0,0.0,0.0,0.0,0.0,0.0,0.0,0.0,0.0,0.0,0.0,0.0,5.1699,5.3377,5.4082,5.6273,5.7782,5.7603,5.8919,5.9488,5.862,5.856,5.862,5.883,5.883,5.9129,5.9787,5.9997,6.0236,6.0535,6.0924,6.0685,5.9817,5.9997,5.9997,5.9817,5.9338,5.9338,5.9787,5.9308,5.865,5.7812,5.7304,5.6645,5.5867,5.5388,5.5179,5.5119,5.4152,5.3774,5.3615,5.2635,5.23,5.2319,5.2405,5.2144,5.1757,5.1757,5.1429,5.0994,5.0994,5.0994,5.1041,5.1058,5.1041,5.1041,5.1182,5.1152,5.1105,5.1182,5.1339,5.1479,5.1479,5.1695,5.188,5.188,5.1834,5.1787,5.1787,5.1787,5.1787,5.1787,5.1787,5.1695,5.1509,5.1463,5.1369,5.1152,5.1096,5.0889,5.0409,4.996,4.9432,4.8743,4.8394,4.8166,4.8079,4.7942,4.7443,4.6562,4.5823,4.482,0.0,0.0,0.0,0.0,0.0,0.0,0.0,0.0,0.0,0.0,0.0,0.0,0.0,0.0,0.0,0.0,0.0,0.0,0.0,0.0,0.0,0.0,5.4529,5.6166,5.7124,5.8231,5.9039,5.9338,6.0057,6.0356,5.9997,5.9428,5.9099,5.9099,5.9368,5.9668,6.0057,6.0625,6.0984,6.1104,6.1642,6.1493,6.0535,6.0805,6.0655,6.0086,5.9697,5.9578,5.9668,5.9279,5.874,5.8082,5.7393,5.6735,5.6188,5.5478,5.5179,5.5119,0.0,0.0,0.0,0.0,5.3199,5.3218,5.3166,5.2755,5.2187,5.2187,5.1768,5.1229,5.1229,5.1229,5.1229,5.1229,5.1229,5.1229,5.1369,5.1369,5.1416,5.1509,5.1649,5.1787,5.1787,5.1972,5.2109,5.2109,5.22,0.0,5.2291,5.2139,5.2002,5.2002,5.2002,5.2002,5.2002,5.2002,5.2002,5.2002,5.2002,5.185,5.1455,5.0788,0.0,0.0,0.0,4.8225,4.7782,4.7922,0.0,0.0,0.0,4.6377,4.5175,4.5677,0.0,0.0,4.4203,4.422,0.0,0.0,0.0,0.0,0.0,0.0,0.0,0.0,0.0,0.0,0.0,0.0,0.0,0.0,0.0,0.0,5.7393,5.871,6.0027,6.0266,6.0475,6.0954,6.1074,6.1044,6.0894,5.9877,5.9189,5.9099,5.9787,6.0206,6.0206,6.1403,0.0,0.0,0.0,6.245,6.1134,6.1702,6.1343,6.0086,5.9997,5.9697,5.9219,5.9129,5.88,5.8201,5.7423,5.6795,5.6226,5.5478,5.5179,5.5119,5.4551,5.452,5.4764,5.417,5.3932,5.3893,5.3574,0.0,0.0,5.2306,5.1828,5.1229,5.1229,5.1229,5.1229,5.1229,5.1276,5.1323,5.1526,5.1618,5.1741,5.1956,5.2048,5.2017,5.2017,5.22,5.2352,5.2352,5.2563,5.2698,5.2698,5.2337,5.2094,5.2094,5.2094,5.2094,5.2094,5.2094,5.2094,5.2094,5.2094,0.0,5.2094,5.1394,5.068,5.0073,4.9387,4.8773,4.8206,4.826,4.8255,4.808,4.8278,4.7977,4.7285,4.8256,4.8226,4.7237,4.6003,4.5792,0.0,0.0,0.0,0.0,0.0,0.0,0.0,0.0,0.0,0.0,0.0,0.0,0.0,0.0,0.0,5.6675,5.8052,5.9368,6.0715,6.1373,6.1343,6.0386,6.0775,6.0685,5.9608,5.9727,5.9668,5.9129,6.0236,6.0924,6.0924,6.1672,6.2271,6.269,6.2929,6.245,6.1134,6.1253,6.0894,6.0086,5.9548,0.0,5.9877,5.9338,5.9039,5.886,5.7633,5.7034,5.6825,5.5658,5.5179,5.5179,5.5059,5.5039,5.5128,5.5009,5.4949,5.4919,5.485,5.4012,5.2995,5.2995,5.2187,5.1229,5.1463,5.1369,0.0,5.1433,5.1526,5.1526,5.1572,5.1741,5.1956,5.2002,5.2109,5.2215,5.2215,5.2427,5.2608,5.2608,5.2653,5.2698,5.2698,5.2608,5.2563,5.2563,5.2563,5.2563,5.2563,5.2563,5.2563,5.2563,5.2563,5.2563,5.2563,5.1458,5.0603,5.0275,4.955,4.9221,4.9291,4.9781,4.9748,4.9203,4.9241,4.8914,4.8209,4.8444,4.846,4.8227,4.7932,4.7831,0.0,0.0,0.0,0.0,0.0,0.0,0.0,0.0,0.0,0.0,0.0,5.2653,5.3664,0.0,5.7184,5.883,5.9937,6.0954,6.1942,6.2391,6.2091,6.0745,6.0894,6.0864,6.0176,6.0086,6.0086,6.0116,6.1044,6.1613,6.1613,6.2241,6.272,6.3079,6.3079,6.275,6.2121,6.2091,6.1583,6.0595,6.0266,5.9937,5.9578,5.9249,5.9099,5.9039,5.7663,5.7094,5.7004,5.5718,5.5179,5.5179,5.5179,5.5179,5.5179,5.5179,5.5179,5.5179,5.5179,5.4311,5.3223,5.335,5.2402,5.1276,5.1695,5.1602,5.1463,5.1741,5.1787,5.1834,5.1941,5.2033,5.22,5.2291,5.2427,5.2518,5.2518,5.2608,5.2698,5.2698,5.2698,5.2698,5.2698,5.2698,5.2698,5.2698,5.2698,5.2698,5.2698,5.2698,5.2698,5.2698,5.2698,5.2698,5.2698,5.1467,5.0475,4.9976,4.9593,4.9622,5.0018,5.0331,5.0486,5.0435,5.0191,4.9841,4.9455,4.9658,4.9326,4.8483,4.896,4.8894,0.0,0.0,0.0,0.0,0.0,0.0,0.0,5.1006,5.1558,5.2875,5.3683,5.467,5.6406,5.7723,5.9129,6.1014,6.1762,6.2331,6.2989,6.3079,6.263,6.1433,6.1194,6.1104,6.1104,6.0625,6.0505,6.1074,6.1852,6.2241,6.2121,6.272,6.3079,6.3079,6.3079,6.3019,6.2899,6.2899,6.2211,6.0924,6.0924,6.0266,5.9099,5.9099,5.9099,5.9039,5.7663,5.6944,5.6645,5.5628,5.5179,5.5179,5.5179,5.5179,5.5179,5.5179,5.5179,5.5179,5.5029,5.4331,5.35,5.3604,5.2683,5.1643,5.2138,5.2061,5.1923,5.2184,5.2276,5.2322,5.2444,5.2443,5.2442,5.2653,5.2698,5.2698,5.2698,5.2698,5.2698,5.2698,5.2698,5.2698,5.2698,5.2698,5.2698,5.2698,5.2698,5.2698,5.2698,5.2698,5.2698,5.2698,5.2698,5.2651,5.2507,5.1487,5.0548,4.9836,4.99,5.0253,5.0717,5.087,5.114,5.1696,5.1083,5.0711,5.0526,5.0691,5.0016,4.8644,4.9375,4.931,4.7005,4.8328,4.9491,5.1297,5.1357,5.1792,0.0,5.5009,5.4999,5.6286,5.7094,5.7812,5.862,5.9368,6.0326,6.1762,6.2061,6.2331,6.2989,6.3079,6.281,6.2061,6.1463,6.1104,6.1104,6.1044,6.1044,6.1104,6.2271,6.272,6.2121,6.272,6.3079,6.3079,6.3079,6.278,6.2211,6.2211,6.1523,6.0206,6.0206,5.9817,5.9099,5.9099,5.9099,5.9039,5.7663,5.6466,5.5388,5.5239,5.5179,5.5179,5.5179,5.5179,5.5179,5.5179,5.5179,5.5089,5.4521,5.437,5.4326,5.3803,5.3252,5.2805,5.3054,5.2992,5.2882,5.3131,5.3147,5.3147,5.3193,5.2902,5.2653,5.2698,5.2698,5.2698,5.2698,5.2698,5.2698,5.2698,5.2698,5.2698,5.2698,5.2698,5.2698,5.2698,5.2698,5.2698,5.2698,5.2698,5.2698,5.2698,5.2698,5.2427,5.1789,5.1581,5.1181,5.0466,5.1065,5.1475,5.1549,5.2056,5.2483,5.2729,5.1856,5.1261,5.0924,5.0252,4.9607,4.8956,4.9055,4.8962,4.7808,4.9601,5.109,5.3001,5.4109,5.5122,5.6566,5.6585,5.6675,5.7992,5.8501,5.9009,6.0086,6.0805,6.1433,6.2002,6.2421,6.275,6.3049,6.275,6.2391,6.2121,6.1523,6.1253,6.1642,6.1672,6.1852,6.2241,6.278,6.2959,6.269,6.2929,6.3079,6.3079,6.3079,6.2959,6.266,6.266,6.2181,6.1253,6.0864,6.0326,5.9668,5.9279,5.889,5.8471,5.7513,5.6585,5.5718,5.5359,5.5179,5.5179,5.5179,5.5179,5.5179,5.5179,5.5179,5.5149,5.488,5.472,5.4605,5.4401,5.3728,5.3097,5.3438,5.3361,5.3222,5.3484,5.353,5.353,5.353,5.3131,5.2698,5.2698,5.2698,5.2698,5.2698,5.2698,5.2698,5.2698,5.2698,5.2698,5.2698,5.2698,5.2698,5.2698,5.2698,5.2698,5.2698,5.2698,5.2698,5.2698,5.3024,5.2816,5.1696,5.1954,5.1917,5.1237,5.1512,5.1911,5.2378,5.2659,5.2799,5.2903,5.1799,5.1161,5.1024,4.9875,4.9196,4.9018,4.9018,4.8987,4.777,4.9828,5.178,5.384,5.5652,5.7111,5.7507,5.7652,5.7992,5.9129,5.9368,5.9787,6.1134,6.1762,6.2151,6.2331,6.278,6.3079,6.3079,6.2453,6.1978,6.1978,6.1267,6.1148,6.1918,6.2034,6.2361,6.3019,6.3079,6.3079,6.3079,6.3079,6.3079,6.3079,6.3079,6.3079,6.3079,6.3079,6.275,6.2091,6.1613,6.0924,6.0057,5.9398,5.874,5.8082,5.7393,5.6735,5.6188,5.5478,5.5179,5.5179,5.5179,5.5179,5.5179,5.5179,5.5179,5.5179,5.507,5.503,5.4975,5.5007,5.4422,5.3772,5.3914,5.3975,5.3944,5.376,5.3822,5.3914,5.3775,5.3221,5.2698,5.2698,5.2698,5.2698,5.2698,5.2698,5.2698,5.2698,5.2698,5.2698,5.2698,5.2698,5.2698,5.2698,5.2698,5.2698,5.2698,5.2877,5.3055,5.3246,5.3507,5.3292,5.2295,5.2453,5.2436,5.205,5.2092,5.2378,5.2972,5.2972,5.3007,5.3041,5.1698,5.1024,5.1023,4.9666,4.9018,4.9018,4.9018,4.9018,4.6526,4.8528,5.1106,5.3584,5.5229,5.6547,5.7782,5.856,5.9249,5.9907,6.0057,6.0475,6.1822,6.2091,6.2301,6.2929,6.3079,6.3079,6.3079,6.2251,6.1605,6.1605,6.0812,6.0607,6.1516,6.1921,6.2361,6.3019,6.3079,6.3079,6.3079,6.3079,6.3079,6.3079,6.3079,6.3079,6.3079,6.3079,6.275,6.2091,6.2061,6.1373,6.0057,5.9398,5.874,5.8082,5.7393,5.6735,5.6188,5.5478,5.5179,5.5179,5.5179,5.5179,5.5179,5.5179,5.5179,5.514,5.4759,5.5236,5.5876,5.5529,5.5494,5.5499,5.4837,5.513,5.5376,5.4083,5.416,5.4498,5.3853,5.3221,5.2698,5.2698,5.2698,5.2698,5.2698,5.2698,5.2698,5.2698,5.2698,5.2698,5.2698,5.2698,5.2698,5.2698,5.2698,5.2698,5.2698,5.329,5.3954,5.4591,5.4035,5.3657,5.3738,5.309,5.2774,5.2832,5.3041,5.3179,5.3179,5.3179,5.3247,5.3484,5.1864,5.1055,5.1185,4.9729,4.9018,4.9018,4.9018,4.9018,4.481,4.7291,5.0004,5.2692,5.499,5.703,5.833,5.8858,5.9279,5.9937,5.9727,5.9697,6.0595,6.1134,6.1523,6.1732,6.251,6.3079,6.3079,6.2453,6.1741,6.1324,6.0773,6.0422,6.0327,6.1213,6.2132,6.3019,6.3079,6.3079,6.3079,6.3079,6.3079,6.3079,6.3079,6.3079,6.3079,6.3079,6.2959,6.272,6.1852,6.0745,5.9428,5.9189,5.8979,5.874,5.8052,5.7393,5.6735,5.6107,5.5598,5.5179,5.5179,5.5179,5.5179,5.5179,5.528,5.5451,5.534,5.5599,5.5998,5.6048,5.5892,5.5561,5.4914,5.5191,5.5407,5.4083,5.416,5.4529,5.3853,5.3221,5.2698,5.2698,5.2698,5.2698,5.2698,5.2698,5.2698,5.2698,5.2698,5.2698,5.2698,5.2698,5.2833,5.329,5.3346,5.3346,5.3346,5.4051,5.4451,5.4209,5.4445,5.4299,5.3349,5.346,5.3425,5.3143,5.3144,5.3247,5.3382,5.3382,5.3416,5.3518,5.2403,5.1626,5.1185,5.0202,4.9492,4.9018,4.9018,4.9018,4.3251,4.5595,4.822,5.0647,5.3263,5.5616,5.7034,5.7819,5.8399,5.911,5.8806,5.859,5.9249,5.9937,6.0386,6.0386,6.1523,6.245,6.269,6.2037,6.1503,6.1294,6.0565,6.0067,6.003,6.0535,6.1303,6.2129,6.2637,6.2874,6.275,6.2959,6.3079,6.3079,6.3079,6.2959,6.272,6.2959,6.2959,6.272,6.1373,6.0296,5.9458,5.9219,5.9099,5.9069,5.8141,5.7513,5.7034,5.6166,5.5568,5.5179,5.5179,5.5179,5.5179,5.5179,5.5381,5.5631,5.5731,5.5929,5.6176,5.647,5.6173,5.5561,5.4914,5.5191,5.5376,5.3806,5.3976,5.4468,5.3591,5.3037,5.2698,5.2698,5.2698,5.2698,5.2698,5.2698,5.2698,5.2698,5.2698,5.2698,5.2698,5.2922,5.3201,5.3652,5.4094,5.4433,5.4517,5.4791,5.4915,5.4737,5.4749,5.4431,5.3539,5.3599,5.3613,5.3348,5.3314,5.3382,5.3518,5.3518,5.3518,5.3518,5.2706,5.1961,5.1185,5.0744,4.9965,4.9018,4.9255,4.9255,4.1821,4.3587,4.5713,4.7529,5.0044,5.2428,5.4052,5.5477,5.6657,5.7363,5.7189,5.7132,5.7759,5.8447,5.9009,5.9039,6.0236,6.1403,6.2061,6.13,6.0951,6.1516,6.022,5.9632,6.0449,6.0001,5.9912,6.0535,6.1813,6.2433,6.2181,6.272,6.3079,6.3079,6.3079,6.275,6.2121,6.269,6.266,6.2032,6.0715,6.0057,6.0082,5.9398,5.9099,5.9033,5.7693,5.7094,5.6944,5.5748,5.5209,5.5179,5.5179,5.5179,5.5179,5.5179,5.5381,5.5631,5.5929,5.6176,5.647,5.6713,5.6269,5.5561,5.4914,5.5191,5.5284,5.3314,5.3714,5.4375,5.3098,5.2729,5.2698,5.2698,5.2698,5.2698,5.2698,5.2698,5.2698,5.2698,5.2698,5.2698,5.2698,5.3246,5.3738,5.3738,5.4851,5.5781,5.5981,5.5437,5.532,5.6077,5.4912,5.4112,5.4256,5.3651,5.3314,5.3518,5.3518,5.3518,5.3518,5.3518,5.3518,5.3518,5.2739,5.1995,5.1185,5.1251,5.0507,4.9018,4.9763,4.9695,4.0337,4.1132,4.2422,4.3754,4.6075,4.8621,5.1073,5.257,5.3765,5.4778,5.4855,5.4716,5.4598,5.6236,5.7782,5.8291,6.0326,6.2061,6.272,6.2603,6.2336,6.2007,6.0948,6.0182,5.9941,5.9596,5.951,5.9882,6.1357,6.2423,6.281,6.2989,6.3079,6.3079,6.3079,6.275,6.2121,6.1762,6.1523,6.1343,6.0505,5.9927,5.9609,5.9297,5.9045,5.8934,5.8181,5.7408,5.6684,5.6149,5.5628,5.5179,5.5179,5.5179,5.5179,5.5179,5.5481,5.5929,5.5979,5.6176,5.647,5.6713,5.6269,5.5561,5.4914,5.5191,5.5376,5.3899,5.4037,5.4498,5.3683,5.3098,5.2698,5.2698,5.2698,5.2698,5.2698,5.2698,5.2698,5.2698,5.2698,5.2698,5.2698,5.3246,5.3836,5.4348,5.5172,5.5781,5.5981,5.6404,5.64,5.566,5.5402,5.4833,5.3788,5.3518,5.345,5.3518,5.3518,5.3518,5.3518,5.3518,5.3518,5.3518,5.3315,5.2536,5.1185,5.1758,5.098,4.9018,4.9763,4.9695,3.9461,3.9694,4.0408,4.0843,4.299,4.5528,4.7406,4.9413,5.1051,5.1456,5.1833,5.2107,5.2184,5.4221,5.6206,5.7102,5.9488,6.1553,6.251,6.266,6.26,6.254,6.1771,6.0972,6.0373,5.9767,5.9681,6.0257,6.1267,6.2127,6.263,6.2929,6.2959,6.266,6.2929,6.275,6.2121,6.0864,6.0386,6.0655,5.9967,5.9363,5.8894,5.9195,5.8911,5.8269,5.8008,5.7355,5.6545,5.602,5.5538,5.5179,5.5179,5.5179,5.5179,5.5179,5.5531,5.5979,5.5979,5.6274,5.6616,5.6761,5.6084,5.5191,5.4806,5.4976,5.5007,5.3652,5.3991,5.4468,5.3529,5.3006,5.2698,5.2698,5.2698,5.2698,5.2698,5.2698,5.2788,5.3069,5.3157,5.3246,5.3552,5.4125,5.4717,5.509,5.5781,5.6336,5.6531,5.6421,5.6124,5.5606,5.5072,5.4397,5.3585,5.3518,5.3518,5.3518,5.3518,5.3518,5.3518,5.3518,5.3518,5.3518,5.3518,5.2909,5.1691,5.2469,5.186,4.9999,5.0405,5.0202,3.9115,3.8992,3.929,3.8651,4.063,4.2949,4.3787,4.6383,4.8457,4.8011,4.8738,4.9636,5.0104,5.2246,5.4444,5.5982,5.8244,6.042,6.2002,6.2241,6.245,6.3019,6.251,6.1852,6.1108,6.0228,6.0023,6.0813,6.1211,6.157,6.2211,6.269,6.269,6.2121,6.257,6.254,6.1972,6.0057,5.9398,5.9937,5.9279,5.8674,5.8128,5.9001,5.8686,5.7471,5.7613,5.7221,5.6445,5.5621,5.528,5.528,5.528,5.5229,5.5229,5.5179,5.5531,5.5979,5.5979,5.6372,5.681,5.681,5.5838,5.4683,5.4683,5.4621,5.4314,5.3191,5.3637,5.4314,5.3252,5.2914,5.2852,5.2852,5.2852,5.2821,5.2819,5.2833,5.3024,5.3695,5.375,5.3879,5.4559,5.5295,5.5741,5.5741,5.6453,5.7101,5.7327,5.6221,5.5492,5.568,5.4566,5.3721,5.3518,5.3518,5.3518,5.3518,5.3518,5.3518,5.3518,5.3518,5.3518,5.3518,5.3518,5.3112,5.23,5.3112,5.2672,5.1082,5.1151,5.0744,3.9672,3.8966,3.8595,3.7553,3.9109,4.1058,4.1933,4.4087,4.5834,4.5768,4.681,4.7793,4.807,4.9905,5.2497,5.5854,5.7616,5.9618,6.2513,6.2899,6.2959,6.3079,6.251,6.1709,6.074,6.0086,5.9759,5.9934,5.9997,6.0883,6.281,6.251,6.2211,6.2091,6.1672,6.1403,6.1283,5.9847,5.9159,5.9279,5.862,5.8144,5.801,5.8549,5.8282,5.7414,5.779,5.7233,5.6081,5.594,5.588,5.583,5.5631,5.5531,5.5481,5.528,5.5531,5.5979,5.5979,5.6372,5.681,5.681,5.5838,5.4683,5.4683,5.4283,5.3791,5.3622,5.3668,5.3914,5.4252,5.3914,5.356,5.356,5.356,5.3511,5.3515,5.3521,5.3738,5.4423,5.4051,5.3879,5.4559,5.5385,5.5941,5.5941,5.6685,5.7327,5.7514,5.7315,5.6783,5.5817,5.548,5.4837,5.3619,5.3518,5.3518,5.3518,5.3518,5.3518,5.3518,5.3518,5.3518,5.3518,5.3518,5.3112,5.23,5.3112,5.2401,5.0304,5.0913,5.0507,4.0674,3.9594,3.8871,3.7849,3.8787,4.0016,4.0443,4.2457,4.4189,4.3922,4.51,4.6249,4.6453,4.8618,5.1119,5.3377,5.5728,5.8208,6.0743,6.1652,6.2244,6.2758,6.2579,6.1925,6.0714,6.0244,5.9974,5.9896,5.9755,6.0525,6.248,6.1942,6.1583,6.1583,6.0595,6.0236,6.0565,5.9608,5.9099,5.9099,5.8441,5.7888,5.754,5.7902,5.7484,5.6495,5.7061,5.6789,5.5979,5.583,5.588,5.5979,5.5681,5.5792,5.6063,5.5551,5.5842,5.6453,5.6298,5.647,5.681,5.681,5.5838,5.4683,5.4683,5.4222,5.3652,5.3283,5.3437,5.3714,5.3683,5.3437,5.3191,5.3191,5.3431,5.3796,5.4146,5.4221,5.4391,5.509,5.4966,5.4975,5.5749,5.6257,5.6531,5.6647,5.7105,5.7476,5.7588,5.7698,5.7232,5.585,5.5006,5.4262,5.3551,5.3518,5.3518,5.3518,5.3518,5.3518,5.3518,5.3518,5.3518,5.3518,5.3518,5.3315,5.2942,5.3315,5.2706,5.1251,5.1217,5.0674,4.1659,4.0635,3.973,3.847,3.9058,3.9817,3.9413,4.1362,4.3144,4.2557,4.3682,4.4858,4.5208,4.724,4.9342,5.0872,5.3415,5.605,5.8667,5.9945,6.1035,6.2228,6.2467,6.1964,6.063,6.0284,5.9959,5.9717,5.9721,6.0403,6.1822,6.1523,6.1194,6.0894,5.9877,5.9488,5.9877,5.9368,5.9039,5.889,5.8381,5.7752,5.7198,5.7488,5.7049,5.6033,5.6496,5.6617,5.6373,5.5901,5.5921,5.629,5.5942,5.6124,5.6566,5.6003,5.6244,5.6879,5.6537,5.6567,5.681,5.681,5.593,5.4898,5.4898,5.4437,5.3837,5.3283,5.3529,5.3806,5.3283,5.316,5.3143,5.3124,5.3515,5.4094,5.4768,5.4893,5.5131,5.5781,5.5781,5.5981,5.6872,5.7025,5.7139,5.7327,5.7551,5.7662,5.7662,5.7673,5.7205,5.6089,5.4769,5.3856,5.3551,5.3518,5.3518,5.3518,5.3518,5.3518,5.3518,5.3518,5.3518,5.3518,5.3518,5.3518,5.3518,5.3518,5.301,5.2128,5.152,5.0871,4.2402,4.1941,4.1233,3.9001,3.9949,4.0989,3.9312,4.108,4.2811,4.1928,4.2725,4.3713,4.4315,4.4855,4.6356,5.0095,5.0918,5.2778,5.7374,5.8564,5.9671,6.1458,6.1996,6.1673,6.0375,5.9941,5.9356,5.8427,5.9398,6.0416,6.1164,6.1702,6.1433,6.0206,6.0057,5.9727,5.9189,5.9129,5.88,5.8201,5.8141,5.7888,5.7488,5.757,5.748,5.7278,5.7041,5.7284,5.773,5.6464,5.6492,5.7239,5.6738,5.6566,5.6626,5.6566,5.6688,5.6879,5.6537,5.6567,5.681,5.681,5.6238,5.5592,5.5592,5.5161,5.4591,5.4529,5.4529,5.4591,5.4529,5.4498,5.453,5.4527,5.4568,5.4768,5.5458,5.558,5.5781,5.6486,5.6132,5.5981,5.6872,5.7139,5.7327,5.7551,5.7735,5.7881,5.7881,5.7306,5.6867,5.6697,5.5987,5.4972,5.3619,5.3518,5.3518,5.3518,5.3518,5.3518,5.3518,5.3518,5.3518,5.3518,5.3518,5.3518,5.3518,5.3518,5.2839,5.1575,5.1507,5.0788,4.2971,4.2482,4.1736,4.0631,4.0865,4.1133,4.0631,4.1663,4.2631,4.2518,4.2977,4.3436,4.3517,4.4177,4.5229,4.6813,4.8401,5.0435,5.3334,5.4844,5.6727,5.9583,5.9732,5.9705,6.017,5.9703,5.9318,5.9122,5.9551,6.0041,6.0475,6.0745,6.0446,5.9518,5.9488,5.9368,5.9099,5.9099,5.8979,5.871,5.8321,5.8045,5.7851,5.7071,5.6762,5.668,5.6594,5.6536,5.6567,5.6416,5.6445,5.6553,5.6577,5.6817,5.7118,5.69,5.7092,5.7456,5.6837,5.6713,5.681,5.681,5.6625,5.6317,5.5807,5.5253,5.4683,5.4683,5.4683,5.4591,5.4191,5.4126,5.4184,5.46,5.4992,5.5499,5.6172,5.629,5.6369,5.6641,5.6603,5.6608,5.7101,5.7364,5.7551,5.7735,5.7845,5.7881,5.7881,5.7645,5.7273,5.6867,5.575,5.4803,5.4194,5.3754,5.3518,5.3518,5.3518,5.3518,5.3518,5.3518,5.3518,5.3518,5.3518,5.3518,5.3518,5.3584,5.2904,5.1505,5.1568,5.0905,4.3309,4.3062,4.2591,4.2307,4.2119,4.2021,4.1882,4.2273,4.2681,4.2793,4.3073,4.324,4.3042,4.3628,4.4287,4.4559,4.6196,4.8096,4.9955,5.1591,5.3765,5.6837,5.7009,5.7467,5.8945,5.8967,5.8958,5.9236,5.9402,5.9568,5.9787,5.9732,5.9523,5.9129,5.9099,5.9099,5.9099,5.9099,5.9099,5.9099,5.8441,5.8112,5.8082,5.6765,5.6286,5.6436,5.6047,5.611,5.6485,5.6495,5.6476,5.6516,5.6666,5.6976,5.7209,5.7001,5.7223,5.7649,5.7015,5.681,5.681,5.681,5.681,5.6717,5.6146,5.5684,5.5315,5.5315,5.5037,5.47,5.4617,5.4166,5.3922,5.48,5.5377,5.5861,5.6564,5.668,5.668,5.668,5.6872,5.7063,5.7252,5.7476,5.7662,5.7881,5.7881,5.7881,5.7881,5.7881,5.7679,5.7171,5.5987,5.5074,5.4634,5.4126,5.3721,5.3518,5.3518,5.3518,5.3518,5.3518,5.3518,5.3518,5.3518,5.3518,5.3518,5.3618,5.287,5.1505,5.1631,5.0998,4.3199,4.3812,4.42,4.3779,4.3994,4.396,4.2708,4.2715,4.293,4.2569,4.2737,4.2986,4.2986,4.3042,4.3295,4.4152,4.4559,4.5549,4.7975,4.958,5.1227,5.3096,5.4111,5.5156,5.643,5.754,5.8225,5.8225,5.8773,5.9129,5.9129,5.8857,5.8857,5.9099,5.9099,5.9099,5.9099,5.9099,5.9099,5.9099,5.8441,5.8112,5.8082,5.6765,5.6496,5.7004,5.5748,5.647,5.8475,5.6861,5.6762,5.754,5.7198,5.6912,5.6626,5.6819,5.7101,5.7289,5.691,5.681,5.681,5.681,5.681,5.681,5.681,5.6779,5.6779,5.6779,5.5776,5.5024,5.6403,5.5225,5.404,5.5377,5.5661,5.5861,5.6564,5.668,5.668,5.668,5.6872,5.7063,5.7252,5.7476,5.7662,5.7881,5.7881,5.7881,5.7881,5.7881,5.7881,5.7881,5.7205,5.619,5.4702,5.4566,5.4262,5.3551,5.3518,5.3518,5.3518,5.3518,5.3518,5.3518,5.3518,5.3518,5.3518,5.3518,5.2805,5.1505,5.1631,5.1093,4.2148,4.2643,4.3062,4.2928,4.2854,4.2811,4.2818,4.275,4.2681,4.2818,4.293,4.2986,4.2986,4.2986,4.3209,4.3929,4.4422,4.5124,4.6303,4.8204,5.0431,5.3037,5.5783,5.7416,5.7406,5.7719,5.8003,5.8195,5.8609,5.8882,5.9099,5.8857,5.8828,5.9099,5.8936,5.8882,5.9099,5.9099,5.9099,5.9099,5.8441,5.8351,5.874,5.6974,5.6496,5.7034,5.6226,5.6008,5.629,5.6218,5.6119,5.599,5.6338,5.6449,5.6372,5.6769,5.697,5.6979,5.6831,5.681,5.681,5.681,5.681,5.681,5.681,5.681,5.681,5.681,5.5776,5.5008,5.6423,5.5605,5.4857,5.6774,5.7175,5.7206,5.7403,5.7839,5.7945,5.7072,5.7463,5.7854,5.7577,5.7662,5.7808,5.7881,5.7881,5.7881,5.7881,5.7881,5.7881,5.7881,5.7679,5.7171,5.619,5.5175,5.4499,5.4262,5.3788,5.3518,5.3518,5.3518,5.3518,5.3518,5.3518,5.3518,5.3518,5.3584,5.3034,5.1819,5.0944,5.0341,4.1549,4.232,4.3056,4.328,4.3067,4.2836,4.3344,4.3081,4.2737,4.2986,4.2986,4.2986,4.2986,4.3073,4.324,4.3653,4.4203,4.4746,4.5362,4.729,4.9784,5.2701,5.5739,5.7462,5.7134,5.7599,5.8059,5.839,5.8664,5.8936,5.9099,5.8857,5.8828,5.9099,5.8719,5.8719,5.9099,5.8991,5.8991,5.9099,5.8441,5.8201,5.8291,5.6825,5.6256,5.6346,5.5957,5.5718,0.0,5.6068,5.5927,5.5598,5.6068,5.6119,5.5981,5.6436,5.6605,5.6694,5.6787,5.681,5.681,5.681,5.681,5.681,5.681,5.681,5.6858,5.7115,5.6168,5.5472,5.7146,5.6538,5.5963,5.783,5.8254,5.8204,5.8204,5.8336,5.8243,5.7471,5.7668,5.7863,5.7544,5.7698,5.7881,5.7881,5.7881,5.7881,5.7881,5.7881,5.7881,5.7881,5.7881,5.7712,5.7239,5.6122,5.5175,5.4634,5.416,5.3788,5.3518,5.3518,5.3518,5.3518,5.3518,5.3518,5.3518,5.3346,5.276,5.1785,5.0798,5.0199,0.0,4.2637,4.3758,4.4392,4.4116,4.3746,4.4136,4.3538,0.0,4.2961,4.2986,4.3042,4.3042,4.3215,4.3356,4.3436,4.3878,4.4442,4.5178,4.7136,4.9567,5.2462,5.4478,5.5721,5.5904,5.7319,5.8331,5.8545,5.8907,5.9069,5.9039,5.8828,5.8828,5.9099,5.847,5.85,5.9099,5.8798,5.8768,5.9039,5.8321,5.7663,5.7064,5.6406,5.5807,5.5269,5.5209,5.5538,5.6158,5.6107,5.6107,5.6158,5.6158,5.5921,5.5631,5.588,5.6176,5.6421,5.6713,5.681,5.681,5.681,5.681,5.681,5.681,5.681,5.6954,5.7559,5.6777,5.6249,5.8355,5.7861,5.7152,5.865,5.8933,5.8899,5.8899,5.8403,5.7939,5.7912,5.7625,5.7356,5.7394,5.7658,5.7881,5.7881,5.7881,5.7881,5.7881,5.7881,5.7881,5.7881,5.7881,5.7881,5.7881,5.7205,5.6224,5.4837,5.4634,5.4296,5.3619,5.3551,5.3518,5.3518,5.3518,5.3518,5.3518,5.2905,5.2255,5.1573,5.1131,5.0527,4.1076,0.0,4.2326,4.2899,4.26,4.2357,0.0,4.2846,4.2514,4.2942,4.2986,4.3073,4.3295,4.3022,4.3089,4.3962,4.3816,4.4144,4.5608,4.8974,5.217,5.4381,5.6196,5.6987,5.629,5.7651,5.8194,5.7268,5.8369,5.889,5.8381,5.856,5.8828,5.9099,5.847,5.85,5.9099,5.8567,5.8244,5.8351,5.7184,5.6795,5.7064,5.5927,5.5598,5.5897,5.5215,5.5096,5.5418,5.5215,5.5368,5.5722,5.552,5.5531,5.5631,5.588,5.6028,5.6176,5.6616,5.681,5.681,5.681,5.681,5.681,5.681,5.681,5.6858,5.6971,5.6808,5.6898,5.848,5.7893,5.7288,5.9259,5.9297,5.8899,5.8899,5.9198,5.9371,5.8933,5.8469,5.8165,5.8316,5.8106,5.7881,5.7881,5.7881,5.7881,5.7881,5.7881,5.7881,5.7881,5.7881,5.7881,5.7881,5.7205,5.6664,5.6292,5.5209,5.4499,5.4329,5.3788,5.3518,5.3518,5.3518,5.3518,5.3518,5.3002,5.2622,5.2323,5.1463,5.0892,4.1718,4.1977,4.2165,4.2438,4.2115,4.1848,4.2479,4.2183,4.1986,4.265,4.2831,4.2886,4.319,4.3534,4.3884,4.4274,4.4755,4.5821,4.7823,5.0364,5.2934,5.5397,5.6409,5.6893,5.7102,5.7511,5.7529,5.6921,5.7676,5.8022,5.7663,5.8131,5.8489,5.865,5.8327,5.8327,5.865,5.8161,5.7802,5.7633,5.6944,5.6615,5.6645,5.6256,5.5927,5.5718,5.5505,5.5377,5.5179,5.5057,5.5128,5.5381,5.5229,5.528,5.5481,5.588,5.5979,5.6077,5.6616,5.681,5.6748,5.644,5.6317,5.6317,5.6317,5.6317,5.6378,5.6717,5.6808,5.7067,5.8523,5.8302,5.8213,6.006,6.0191,5.9926,5.9926,5.9694,5.9404,5.9126,5.8436,5.793,5.8043,5.7968,5.7881,5.7881,5.7881,5.7881,5.7881,5.7881,5.7881,5.7881,5.7881,5.7881,5.7881,5.7509,5.7036,5.6359,5.5547,5.4803,5.4126,5.3721,5.3518,5.3518,5.3518,5.3517,5.3584,5.344,5.3098,5.2595,5.2283,5.1649,4.2333,4.2743,4.2725,4.2494,4.2047,4.1703,4.1978,4.1605,4.1433,4.242,4.2652,4.2866,4.3244,4.4398,4.5199,4.4705,4.6247,4.8301,5.0529,5.1568,5.3036,5.5662,5.5909,5.6333,5.752,5.71,5.6697,5.6773,5.687,5.6989,5.6989,5.7647,5.8005,5.8035,5.8088,5.8022,5.7812,5.7577,5.7332,5.6944,5.6855,5.6526,5.6047,5.6555,5.6226,5.5209,5.5777,5.5718,5.5179,5.5158,5.5149,5.508,5.5029,5.508,5.523,5.5679,5.5937,5.6127,5.6616,5.681,5.6686,5.593,5.5776,5.5838,5.5715,5.5776,5.5992,5.6625,5.6761,5.7035,5.8364,5.8657,5.8932,6.0258,6.0688,6.0755,6.0622,5.9694,5.8933,5.9032,5.8086,5.7319,5.7553,5.7756,5.7845,5.7845,5.7881,5.7881,5.7881,5.7881,5.7881,5.7881,5.7881,5.7881,5.7881,5.7881,5.7306,5.5953,5.5784,5.504,5.3551,5.3518,5.3518,5.3518,5.3518,5.3551,5.3684,5.3882,5.3575,5.2767,5.321,5.2516,4.1476,4.2776,4.3745,4.2564,4.1802,4.1347,4.1401,4.1053,4.0988,4.2235,4.2936,4.3593,4.4598,4.5331,4.5858,4.6081,4.7778,4.9728,5.169,5.3092,5.4193,5.4921,5.5902,5.6333,5.5667,5.6266,5.6258,5.521,5.5923,5.6439,5.6439,5.7274,5.7791,5.7767,5.7981,5.7603,5.6466,5.6466,5.6436,5.6316,5.5748,5.5418,5.5359,5.5448,5.5388,5.5209,5.5045,5.5096,5.5179,5.4955,5.48,5.4638,5.4441,5.4638,5.5031,5.5129,5.564,5.6372,5.6713,5.681,5.6686,5.593,5.6115,5.6532,5.5869,5.6115,5.6656,5.6779,5.6808,5.6987,5.7758,5.756,5.7331,5.8111,5.8767,5.9065,5.8436,5.8601,5.9065,5.9728,5.8335,5.7425,5.8691,5.8203,5.7662,5.7662,5.7772,5.7881,5.7881,5.7881,5.7881,5.7881,5.7881,5.7881,5.7881,5.7881,5.7543,5.6697,5.6055,5.504,5.3551,5.3518,5.3518,5.3518,5.3518,5.3484,5.3517,5.385,5.3782,5.3382,5.3386,5.3066,4.12,4.2544,4.3698,4.3267,4.292,4.284,4.3229,4.2424,4.1983,4.3356,4.4086,4.4741,4.5656,4.7015,4.8391,4.945,5.0155,5.1092,5.2511,5.3065,5.3689,5.4917,5.5215,5.5445,5.5718,5.5825,5.5581,5.4832,5.5234,5.5404,5.5217,5.61,5.6614,5.6644,5.6907,5.6765,5.6248,5.5807,5.5658,5.5628,5.497,5.485,5.5209,5.5568,5.5538,5.5209,5.5466,5.5406,5.5179,5.5057,5.4949,5.49,5.4391,5.4679,5.5315,5.5196,5.5302,5.5572,5.6053,5.5961,5.5622,5.5284,5.513,5.513,5.5161,5.5407,5.5745,5.6084,5.645,5.6909,5.7631,5.785,5.8017,5.8309,5.8966,5.9396,5.9065,5.8933,5.8999,5.933,5.8428,5.7686,5.7953,5.7763,5.7588,5.7588,5.7772,5.7881,5.7881,5.7881,5.7881,5.7881,5.7881,5.7881,5.7881,5.7881,5.7577,5.6867,5.6122,5.5243,5.4126,5.4093,5.3923,5.3518,5.3518,5.3517,5.3618,5.375,5.3816,5.3784,5.38,5.3516,4.0974,4.2276,4.3541,4.3861,4.4017,4.4279,4.5333,4.4181,4.3279,4.4725,4.5393,4.5934,4.6516,4.8376,5.0378,5.226,5.2129,5.2226,5.3495,5.3308,5.3564,5.5009,5.476,5.485,5.5837,5.5427,5.5027,5.4803,5.4722,5.4627,5.4539,5.5271,5.5723,5.5723,5.6064,5.6107,5.6008,5.5299,5.5029,5.5179,5.4521,5.4551,5.5209,5.5568,5.5538,5.5209,5.5718,5.5658,5.5179,5.5179,5.5089,5.491,5.4221,5.4389,5.4975,5.5145,5.5064,5.5037,5.553,5.5376,5.4898,5.4745,5.4345,5.3976,5.4345,5.456,5.4822,5.5315,5.5814,5.6398,5.714,5.7592,5.8046,5.8533,5.9065,5.9496,5.9496,5.9164,5.8899,5.8899,5.8422,5.7908,5.7509,5.7486,5.7514,5.7514,5.7735,5.7881,5.7881,5.7881,5.7881,5.7881,5.7881,5.7881,5.7881,5.7881,5.7645,5.7103,5.6224,5.5378,5.4634,5.46,5.4262,5.3518,5.3518,5.3551,5.3651,5.3684,5.375,5.3882,5.411,5.3898,4.0576,4.2129,4.3755,4.3804,4.4133,4.4861,4.6487,4.5363,4.4364,4.5853,4.6469,4.682,4.7262,4.8625,5.0437,5.2781,5.2714,5.295,5.483,5.5009,5.5039,5.5179,5.5149,5.5149,5.5239,5.5006,5.4803,5.4803,5.4487,5.4569,5.5217,5.5538,5.5723,5.5723,5.6064,5.5867,5.5269,5.461,5.4581,5.5179,5.4521,5.4551,5.5179,5.461,5.467,5.5179,5.5239,5.5239,5.5179,5.5179,5.482,5.4221,5.3533,5.3272,5.3324,5.4342,5.5114,5.5622,5.5684,5.5653,5.553,5.4914,5.4652,5.4498,5.3914,5.4191,5.4683,5.4745,5.4791,5.5008,5.5673,5.5421,5.5486,5.743,5.7906,5.7939,5.7939,5.8436,5.8899,5.8899,5.8303,5.8045,5.8674,5.7963,5.7327,5.7327,5.7662,5.7881,5.7881,5.7881,5.7881,5.7881,5.7881,5.7881,5.7881,5.7881,5.7881,5.7814,5.6494,5.5378,5.4634,5.46,5.4262,5.3518,5.3518,5.3518,5.3484,5.3617,5.3617,5.3551,5.398,5.4108,3.9998,4.1619,4.3467,4.4004,4.5084,4.6294,4.756,4.6959,4.6367,4.7318,4.8151,4.9047,5.0158,5.0851,5.1695,5.2976,5.3028,5.3307,5.4411,5.4581,5.473,5.5149,5.5179,5.5029,5.461,5.448,5.438,5.42,5.3663,5.3571,5.4068,5.4353,5.4506,5.4506,5.5227,5.5448,5.5179,5.4551,5.4551,5.5179,5.4102,5.4132,5.5179,5.4521,5.4341,5.4581,5.4581,5.4581,5.4581,5.4581,5.467,5.481,5.4387,5.3481,5.2504,5.3684,5.3991,5.3899,5.433,5.4176,5.3868,5.4052,5.3837,5.3498,5.3683,5.3899,5.4068,5.4068,5.4068,5.4342,5.545,5.5826,5.6304,5.7489,5.8138,5.8469,5.8469,5.8701,5.8767,5.8303,5.7972,5.774,5.7541,5.7392,5.7289,5.7289,5.7625,5.7881,5.7881,5.7881,5.7881,5.7881,5.7881,5.7881,5.7881,5.7881,5.7881,5.7881,5.7374,5.6528,5.5344,5.5277,5.4735,5.3518,5.3518,5.3518,5.3518,5.3551,5.3584,5.3617,5.3915,5.411,3.9697,4.1209,4.2961,4.3755,4.5372,4.7014,4.7854,4.7927,4.7998,4.8605,4.9166,5.0007,5.1506,5.1661,5.1858,5.2725,5.2875,5.3174,5.4072,5.4221,5.4371,5.482,5.488,5.461,5.3952,5.3892,5.3843,5.3615,5.3198,5.3129,5.3612,5.3843,5.4032,5.4241,5.4839,5.5179,5.5179,5.473,5.464,5.488,5.3713,5.3773,5.485,5.4192,5.3892,5.3892,5.3892,5.3892,5.3892,5.4132,5.4341,5.4571,5.4601,5.355,5.2109,5.3039,5.3252,5.3098,5.356,5.3406,5.3098,5.356,5.3283,5.279,5.3283,5.3406,5.3406,5.3406,5.3406,5.3692,5.4951,5.5645,5.6306,5.7442,5.7926,5.8257,5.872,5.8661,5.8469,5.8204,5.7939,5.7641,5.7111,5.7153,5.7214,5.7289,5.7551,5.7735,5.7808,5.7808,5.7808,5.7881,5.7881,5.7881,5.7881,5.7881,5.7881,5.7881,5.7881,5.7239,5.5784,5.5681,5.5006,5.3551,5.3518,5.3518,5.3518,5.3518,5.3584,5.3717,5.3915,5.4078,3.9672,4.0794,4.2221,4.2981,4.4857,4.6639,4.707,4.8054,4.91,4.9753,4.9383,4.9294,5.0555,5.0475,5.0614,5.1977,5.2187,5.2665,5.4012,5.4192,5.4192,5.4221,5.4192,5.3922,5.3234,5.3174,5.3174,5.3174,5.3174,5.3473,5.4162,5.4192,5.4491,5.5149,5.5179,5.5179,5.5179,5.5149,5.485,5.4192,5.3503,5.3533,5.4192,5.3503,5.3174,5.3174,5.3174,5.3174,5.3234,5.3922,5.3803,5.3223,5.3723,5.3125,5.2048,5.2549,5.3129,5.3714,5.3714,5.3714,5.3714,5.3714,5.3252,5.2698,5.2698,5.2698,5.2698,5.2698,5.2698,5.2966,5.4114,5.4412,5.4909,5.7011,5.6929,5.6797,5.8247,5.8144,5.8005,5.8734,5.827,5.7773,5.7773,5.7371,5.7063,5.7289,5.7289,5.7364,5.7588,5.7588,5.7662,5.7881,5.7881,5.7881,5.7881,5.7881,5.7881,5.7881,5.7881,5.7239,5.5749,5.5681,5.5006,5.3551,5.3518,5.3518,5.3518,5.3518,5.3584,5.3717,5.3915,5.4078,3.9141,4.0496,4.1985,4.2664,4.4978,4.7084,4.7186,4.8054,4.9026,4.9387,4.8566,4.8328,5.0044,4.9568,4.9434,5.1229,5.1109,5.1439,5.3234,5.3084,5.3144,5.4102,5.3773,5.3234,5.2546,5.2486,5.2486,5.2486,5.2067,5.2306,5.3443,5.3503,5.3563,5.3773,5.4251,5.4251,5.3773,5.3324,5.3234,5.3473,5.2815,5.2845,5.3473,5.2785,5.2486,5.2486,5.2486,5.2486,5.2546,5.3204,5.3084,5.2534,5.3088,5.2761,5.2048,5.2549,5.2852,5.3006,5.3006,5.3006,5.3006,5.3006,5.2883,5.2698,5.2698,5.2698,5.2698,5.2698,5.2698,5.2877,5.3695,5.4125,5.4867,5.6841,5.7124,5.7131,5.7719,5.7701,5.7549,5.737,5.7177,5.7011,5.7011,5.7005,5.7025,5.7063,5.7327,5.7588,5.7772,5.7808,5.7845,5.7881,5.7881,5.7881,5.7881,5.7881,5.7881,5.7881,5.7881,5.7476,5.6528,5.5987,5.5243,5.4296,5.3754,5.3518,5.3518,5.3518,5.3584,5.3717,5.3915,5.4078,4.0131,4.1311,4.2462,4.3932,4.5788,4.7308,4.7629,4.8413,4.9073,4.9254,4.8446,4.8147,4.9583,4.8985,4.8835,5.0541,5.0435,5.0794,5.2546,5.2456,5.2486,5.3324,5.3054,5.2546,5.1887,5.1798,5.1798,5.1798,5.1439,5.1678,5.2725,5.2785,5.2905,5.3174,5.3593,5.3593,5.3174,5.2785,5.2665,5.2785,5.2396,5.2276,5.2396,5.2247,5.2067,5.1798,5.1798,5.1947,5.2247,5.2636,5.2546,5.2234,5.2786,5.2579,5.2048,5.2549,5.2698,5.2698,5.2698,5.2698,5.2698,5.2698,5.2698,5.2698,5.2698,5.2698,5.2698,5.2698,5.2698,5.2833,5.3421,5.3782,5.4422,5.6083,5.6701,5.6967,5.7423,5.7338,5.7153,5.7144,5.6879,5.668,5.668,5.6796,5.6911,5.6987,5.7289,5.7551,5.7735,5.7772,5.7808,5.7881,5.7881,5.7881,5.7881,5.7881,5.7881,5.7881,5.7881,5.7679,5.7273,5.6528,5.5649,5.46,5.416,5.3788,5.3518,5.3518,5.3618,5.3816,5.3948,5.4078,4.175,4.2531,4.347,4.5956,4.6902,4.7452,4.8341,4.8907,4.9209,4.9149,4.8626,4.8386,4.912,4.8626,4.8656,5.0032,5.0182,5.0631,5.2055,5.2204,5.2174,5.2187,5.2157,5.1887,5.1289,5.1229,5.1229,5.1229,5.1229,5.1498,5.2157,5.2187,5.2486,5.3084,5.3084,5.3054,5.2995,5.2995,5.2695,5.2127,5.2127,5.1798,5.1229,5.1828,5.1798,5.1229,5.1229,5.1558,5.2127,5.2127,5.2127,5.2174,5.2648,5.2472,5.2048,5.2473,5.2639,5.2639,5.2653,5.2653,5.2653,5.2698,5.2698,5.2698,5.2698,5.2698,5.2698,5.2698,5.2698,5.2788,5.3201,5.3377,5.377,5.504,5.5814,5.6488,5.7225,5.702,5.6879,5.7574,5.7144,5.668,5.668,5.668,5.6757,5.6949,5.7176,5.7364,5.7551,5.7588,5.7662,5.7845,5.7881,5.7881,5.7881,5.7881,5.7881,5.7881,5.7881,5.7881,5.7881,5.7171,5.6122,5.4735,5.4634,5.4228,5.3518,5.3518,5.3651,5.398,5.398,5.4078,3.9262,4.1495,4.384,4.5185,4.6864,4.8295,4.8739,4.8641,4.8356,4.7848,4.7608,4.7728,4.8386,4.7967,4.8161,5.0216,5.0065,5.0396,5.2262,5.2051,5.1854,5.2127,5.1738,5.1379,5.1229,5.1229,5.1229,5.1229,5.1229,5.1498,5.2157,5.2187,5.2276,5.2396,5.2426,5.2157,5.1648,5.1648,5.1558,5.1439,5.1439,5.1349,5.1229,5.1379,5.1349,5.1229,5.1229,5.1289,5.1439,5.1439,5.1439,5.1439,5.1767,5.1816,5.1741,5.2017,5.2139,5.2155,5.2337,5.2397,5.2397,5.2608,5.2698,5.2698,5.2698,5.2698,5.2698,5.2698,5.2698,5.2698,5.2833,5.3246,5.3868,5.4675,5.5122,5.5596,5.6481,5.654,5.6552,5.6912,5.6696,5.6486,5.668,5.6564,5.6564,5.6949,5.7025,5.7139,5.7327,5.7514,5.7625,5.7662,5.7808,5.7881,5.7881,5.7881,5.7881,5.7881,5.7881,5.7881,5.7881,5.7171,5.6393,5.548,5.4905,5.4228,5.3518,5.3518,5.3584,5.3783,5.3915,5.4013,3.9661,4.1678,4.3622,4.5259,4.6761,4.79,4.8038,4.7852,4.7523,4.7195,4.7222,4.7429,4.7758,4.7549,4.7935,4.9809,4.9734,5.008,5.1874,5.172,5.149,5.1678,5.1439,5.1229,5.1229,5.1229,5.1229,5.1229,5.1229,5.1379,5.1708,5.1738,5.169,5.1518,5.1661,5.1511,5.1011,5.1105,5.1229,5.1229,5.1229,5.1229,5.1229,5.1229,5.1229,5.1229,5.1229,5.1229,5.1229,5.1229,5.1229,5.1229,5.1479,5.1572,5.1618,5.188,5.2002,5.2048,5.2215,5.2306,5.2352,5.2608,5.2698,5.2698,5.2698,5.2608,5.2563,5.2653,5.2608,5.2563,5.2653,5.2966,5.339,5.4051,5.48,5.5612,5.6369,5.6525,5.6564,5.668,5.6603,5.6525,5.6525,5.6447,5.6486,5.6796,5.6949,5.7063,5.7289,5.7402,5.7476,5.7588,5.7698,5.7808,5.7881,5.7881,5.7881,5.7881,5.7881,5.7881,5.7881,5.7509,5.6799,5.575,5.4972,5.4228,5.3518,5.3518,5.3584,5.3717,5.3816,5.3849,3.9828,4.17,4.3369,4.5629,4.6633,4.7128,4.7174,4.7051,4.6931,4.6931,4.7106,4.7309,4.7309,4.7309,4.7815,4.9357,4.9434,4.9915,5.1391,5.1416,5.1276,5.1229,5.1229,5.1229,5.1229,5.1229,5.1229,5.1229,5.1229,5.1229,5.1229,5.1229,5.1058,5.0793,5.1011,5.1011,5.0793,5.1011,5.1152,5.1229,5.1229,5.1229,5.1229,5.1229,5.1229,5.1229,5.1229,5.1229,5.1229,5.1229,5.1229,5.1229,5.1433,5.1526,5.1556,5.1787,5.1864,5.188,5.2124,5.2261,5.2306,5.2608,5.2698,5.2698,5.2698,5.2563,5.2397,5.2653,5.2563,5.2397,5.2653,5.2698,5.2877,5.3521,5.4517,5.558,5.633,5.6564,5.6641,5.6641,5.668,5.6603,5.6402,5.6402,5.648,5.6603,5.6796,5.6987,5.7176,5.7214,5.7327,5.7514,5.7588,5.7698,5.7881,5.7881,5.7881,5.7881,5.7881,5.7881,5.7881,5.778,5.707,5.575,5.5108,5.4363,5.3518,5.3518,5.3551,5.3684,5.3684,5.3684,3.5583,3.9235,4.3472,4.5918,4.6688,4.6916,4.7174,4.7051,4.6931,4.6931,4.7106,4.7309,4.7309,4.7309,4.7815,4.9357,4.9568,5.002,5.1391,5.1572,5.1433,5.1229,5.1229,5.1229,5.1229,5.1229,5.1229,5.1229,5.1229,5.1229,5.1229,5.1229,5.1058,5.0793,5.0822,5.087,5.0793,5.087,5.0964,5.1229,5.1229,5.1229,5.1229,5.1229,5.1229,5.1229,5.1229,5.1229,5.1229,5.1229,5.1229,5.1229,5.1229,5.1246,5.1276,5.1323,5.1323,5.1369,5.188,5.2017,5.2109,5.2563,5.2698,5.2698,5.2698,5.2653,5.2653,5.2698,5.2653,5.2653,5.2698,5.2698,5.2877,5.3521,5.3868,5.4264,5.5369,5.6013,5.6408,5.6408,5.6564,5.6564,5.6205,5.6284,5.6408,5.6441,5.6447,5.6525,5.6757,5.6949,5.7139,5.7327,5.7514,5.7698,5.7881,5.7881,5.7881,5.7881,5.7881,5.7881,5.7881,5.7273,5.6562,5.575,5.5615,5.4905,5.3518,5.3518,5.3518,5.3517,5.3651,5.3617,3.5738,3.9113,4.237,4.4042,4.5148,4.5861,4.5999,4.6384,4.6712,4.6712,4.7019,4.7309,4.7309,4.7309,4.7815,4.9357,4.9223,4.9509,5.1331,5.1132,5.0903,5.1169,5.1229,5.1229,5.1229,5.1229,5.1229,5.1229,5.1229,5.1229,5.1229,5.1229,5.1041,5.0662,5.0728,5.0728,5.0614,5.0728,5.0917,5.1229,5.1229,5.1229,5.1229,5.1229,5.1229,5.1229,5.1229,5.1229,5.1229,5.1229,5.1229,5.1229,5.1229,5.1229,5.1229,5.1229,5.1229,5.1276,5.1787,5.2002,5.2094,5.2549,5.2698,5.2698,5.2698,5.2608,5.2518,5.2653,5.2608,5.2518,5.2653,5.2698,5.2743,5.3069,5.3434,5.3825,5.4168,5.5172,5.6132,5.6486,5.6525,5.6447,5.6323,5.6244,5.6244,5.6244,5.6323,5.6408,5.6525,5.6719,5.6911,5.7101,5.7214,5.7402,5.7698,5.7735,5.7772,5.7881,5.7881,5.7881,5.7881,5.7577,5.707,5.6325,5.5513,5.4566,5.3518,5.3518,5.3518,5.3518,5.3551,5.3551,3.5413,3.7867,3.9745,4.1443,4.3031,4.4301,4.4698,4.557,4.6358,4.6447,4.6844,4.7222,4.7309,4.7309,4.7772,4.9268,4.8969,4.9254,5.1239,5.0903,5.0614,5.1169,5.1229,5.1229,5.1229,5.1229,5.1229,5.1229,5.1229,5.1229,5.1229,5.1229,5.0994,5.0501,5.0662,5.0662,5.0501,5.0805,5.1011,5.1229,5.1229,5.1229,5.1229,5.1229,5.1229,5.1229,5.1229,5.1229,5.1229,5.1229,5.1229,5.1229,5.1229,5.1229,5.1229,5.1229,5.1229,5.1276,5.1741,5.1956,5.2048,5.2413,5.2563,5.2563,5.2518,5.2382,5.2291,5.2473,5.2427,5.2352,5.2563,5.2653,5.2698,5.2698,5.3069,5.3477,5.364,5.4549,5.5539,5.6251,5.629,5.6251,5.6402,5.6284,5.6165,5.6165,5.6323,5.6441,5.6447,5.6603,5.6757,5.6987,5.6987,5.7139,5.7476,5.7514,5.7625,5.7808,5.7808,5.7845,5.7881,5.7881,5.7543,5.6799,5.5547,5.46,5.4059,5.3687,5.3585,5.3788,5.3585,5.3518,3.2568,3.3839,3.5073,3.8444,4.0585,4.216,4.3617,4.48,4.5685,4.6135,4.6624,4.7019,4.7266,4.7309,4.7728,4.909,4.9299,4.9719,5.102,5.1199,5.1169,5.1229,5.1229,5.1229,5.1229,5.1229,5.1229,5.1229,5.1229,5.1229,5.1229,5.1229,5.0994,5.0501,5.0501,5.0501,5.0501,5.0947,5.1182,5.1229,5.1229,5.1229,5.1229,5.1229,5.1229,5.1229,5.1229,5.1229,5.1229,5.1229,5.1229,5.1229,5.1229,5.1229,5.1229,5.1229,5.1229,5.1229,5.1526,5.1787,5.2002,5.2048,5.2155,5.2261,5.2063,5.2048,5.2048,5.2048,5.2155,5.2306,5.2306,5.2518,5.2698,5.2698,5.2698,5.3055,5.4114,5.438,5.4665,5.5328,5.5612,5.5894,5.629,5.6369,5.6402,5.6402,5.6369,5.648,5.6641,5.668,5.6757,5.6987,5.6987,5.7101,5.7289,5.7327,5.7402,5.7588,5.7625,5.7698,5.7881,5.7881,5.7543,5.6799,5.6055,5.5649,5.5546,5.4194,5.3856,5.4532,5.3822,5.3518,3.0444,3.206,3.3843,3.5517,3.7663,3.9677,4.1253,4.2814,4.418,4.5004,4.5976,4.6756,4.6975,4.7551,4.8087,4.8566,4.903,4.9583,5.0451,5.0554,5.0704,5.1169,5.1229,5.1229,5.1229,5.1229,5.1105,5.0964,5.1105,5.1105,5.0964,5.1105,5.1011,5.068,5.068,5.068,5.068,5.1011,5.1229,5.1229,5.1229,5.1229,5.1229,5.1229,5.1229,5.1229,5.1229,5.1229,5.1229,5.1229,5.1229,5.1229,5.1229,5.1229,5.1229,5.1229,5.1229,5.1229,5.1509,5.1695,5.1787,5.2079,5.2155,5.2109,5.22,5.217,5.217,5.217,5.2382,5.2563,5.2563,5.2608,5.2698,5.2698,5.2698,5.2788,5.3201,5.3683,5.4295,5.5377,5.5653,5.5894,5.6486,5.6519,5.6402,5.6402,5.6402,5.6441,5.6486,5.6603,5.6719,5.6796,5.6796,5.6872,5.7101,5.7101,5.7176,5.7402,5.7514,5.7625,5.7698,5.7845,5.778,5.7509,5.6325,5.548,5.5006,5.3991,5.3653,5.389,5.3619,5.3518,2.8753,3.0203,3.1927,3.2909,3.4973,3.717,3.8626,4.0428,4.215,4.3302,4.4608,4.5711,4.6357,4.7317,4.8119,4.8297,4.9015,4.9733,5.0136,5.0375,5.0674,5.1169,5.1229,5.1229,5.1229,5.1229,5.1105,5.0964,5.1105,5.1105,5.0964,5.1105,5.1058,5.0793,5.0793,5.0793,5.0793,5.1058,5.1229,5.1229,5.1229,5.1229,5.1229,5.1229,5.1229,5.1229,5.1229,5.1229,5.1229,5.1229,5.1229,5.1229,5.1229,5.1229,5.1229,5.1229,5.1229,5.1229,5.1386,5.1526,5.1618,5.1849,5.1895,5.188,5.1895,5.1941,5.1941,5.2033,5.2246,5.2473,5.2563,5.2608,5.2698,5.2698,5.2698,5.2698,5.2698,5.3024,5.3695,5.4842,5.5213,5.558,5.6251,5.6447,5.6486,5.6486,5.629,5.6251,5.6447,5.6408,5.6447,5.668,5.668,5.6757,5.6872,5.6834,5.6911,5.7176,5.7252,5.7364,5.7476,5.7698,5.7772,5.7698,5.6626,5.5681,5.4868,5.3957,5.3619,5.3856,5.3619,5.3518,0.0,0.0,0.0,3.0512,3.26,3.4604,3.5868,3.7678,3.9459,4.0958,4.2397,4.3828,4.5215,4.6609,4.7673,4.8118,4.9299,5.0166,5.0166,5.0734,5.1199,5.1229,5.1229,5.1229,5.1229,5.1229,5.1229,5.1182,5.1229,5.1229,5.1182,5.1182,5.1058,5.0822,5.0793,5.0793,5.0793,5.1058,5.1229,5.1229,5.1229,5.1229,5.1229,5.1229,5.1229,5.1229,5.1229,5.1229,5.1229,5.1229,5.1229,5.1229,5.1229,5.1229,5.1229,5.1229,5.1229,5.1229,5.1229,5.1369,5.1526,5.1293,5.1386,5.1526,5.1323,5.1229,5.1276,5.1526,5.1787,5.2048,5.2261,5.2518,5.2698,5.2698,5.2698,5.2698,5.2698,5.2698,5.2922,5.3565,5.4221,5.4893,5.558,5.6251,5.6641,5.668,5.6132,5.5901,5.6603,5.6132,5.5974,5.6564,5.668,5.668,5.668,5.6486,5.6564,5.6949,5.6796,5.6872,5.7289,5.7476,5.7514,5.7289,5.6954,5.6354,5.5398,5.4159,5.389,5.4532,5.3822,5.3518,2.6787,0.0,0.0,0.0,0.0,0.0,3.3001,3.4526,3.611,3.7925,3.97,4.1368,4.2862,4.4215,4.5372,4.6006,4.7881,4.9296,4.9296,4.9954,5.0644,5.1169,5.1229,5.1229,5.1229,5.1229,5.1105,5.0917,5.1058,5.1105,5.0917,5.0917,5.0964,5.1058,5.0917,5.0917,5.1058,5.1182,5.1229,5.1229,5.1229,5.1229,5.1229,5.1229,5.1229,5.1229,5.1229,5.1229,5.1229,5.1229,5.1229,5.1229,5.1229,5.1229,5.1229,5.1229,5.1229,5.1229,5.1229,5.1276,5.1323,5.1433,5.1416,5.1339,5.1433,5.1479,5.1479,5.1572,5.1787,5.2048,5.2261,5.2352,5.2442,5.2653,5.2698,5.2698,5.2698,5.2698,5.2922,5.3565,5.3868,5.4348,5.5499,5.5458,5.558,5.6564,5.5741,5.5213,5.5861,5.5781,5.558,5.5295,5.61,5.6525,5.6053,5.6369,5.6641,5.6757,5.6872,5.6949,5.7063,5.7289,5.7364,5.7289,5.6697,5.6032,5.5398,5.4665,5.4126,5.3788,5.3585,5.3518,2.702,2.7389,2.7865,2.7621,0.0,0.0,3.0657,3.1973,3.3377,3.4943,3.6769,3.8519,3.9926,4.1434,4.2754,4.371,4.5306,4.6936,4.8206,4.9232,5.0113,5.0594,5.0862,5.1058,5.1182,5.1229,5.1105,5.0964,5.1105,5.1105,5.0964,5.087,5.087,5.1011,5.087,5.087,5.1011,5.1105,5.1229,5.1229,5.1229,5.1079,5.0764,5.0764,5.0764,5.0764,5.0764,5.096,5.1229,5.1229,5.1229,5.1229,5.1229,5.1229,5.1229,5.1229,5.1229,5.1229,5.1229,5.1229,5.1229,5.1386,5.1323,5.1229,5.1416,5.1433,5.1463,5.1572,5.188,5.2155,5.2261,5.2397,5.2518,5.2653,5.2698,5.2698,5.2698,5.2698,5.2833,5.3201,5.3521,5.404,5.509,5.4966,5.5058,5.61,5.514,5.4517,5.5213,5.5049,5.481,5.4685,5.5661,5.61,5.5701,5.6251,5.6603,5.668,5.6719,5.6796,5.6872,5.7063,5.7139,5.7063,5.6813,5.6188,5.5257,5.473,5.416,5.3518,5.3518,5.3518,2.7983,2.8088,2.8231,2.7806,2.8508,0.0,2.8859,2.9889,3.1119,3.2046,3.3761,3.5501,3.6712,3.8269,3.9779,4.1059,4.1994,4.3712,4.6958,4.8509,4.9457,4.9825,5.0389,5.087,5.1105,5.1182,5.1182,5.1229,5.1229,5.1229,5.1229,5.0917,5.0775,5.0793,5.0686,5.0656,5.0704,5.0879,5.099,5.099,5.099,5.069,5.0076,5.0076,5.0076,5.0076,5.0166,5.0524,5.1063,5.1199,5.1229,5.1229,5.1229,5.1229,5.1229,5.1229,5.1229,5.1229,5.1229,5.1229,5.1229,5.1229,5.1229,5.1229,5.1229,5.1229,5.1276,5.1526,5.1895,5.2261,5.2306,5.2473,5.2653,5.2698,5.2698,5.2698,5.2698,5.2698,5.2698,5.2698,5.3201,5.3825,5.4475,5.4549,5.4758,5.5458,5.4465,5.3825,5.4475,5.4051,5.3879,5.4423,5.5131,5.558,5.558,5.6053,5.6408,5.668,5.6525,5.6486,5.668,5.6872,5.6872,5.668,5.6896,5.6382,5.5077,5.4487,5.3921,5.345,5.3518,5.3518,2.9003,2.8735,2.862,2.7885,2.7872,0.0,2.7937,2.8496,2.9209,2.9833,3.104,3.2415,3.365,3.4742,3.6015,3.7683,3.8718,4.0958,4.5582,4.7512,4.8723,4.9486,5.0183,5.0662,5.087,5.087,5.0964,5.1182,5.1229,5.1229,5.1229,5.0805,5.0614,5.0793,5.0129,4.9863,5.008,4.9821,4.9689,4.9689,4.9689,4.9583,4.9464,4.9464,4.9464,4.9494,5.0002,5.0255,5.0435,5.099,5.1229,5.1229,5.1229,5.1229,5.1229,5.1229,5.1229,5.1229,5.1229,5.1229,5.1229,5.1229,5.1229,5.1229,5.1229,5.1229,5.1276,5.1526,5.1665,5.1803,5.2215,5.2352,5.2442,5.2653,5.2698,5.2698,5.2698,5.2698,5.2698,5.2698,5.2788,5.3113,5.3782,5.3465,5.3509,5.4717,5.3738,5.3113,5.3825,5.3782,5.3521,5.3113,5.4168,5.4925,5.4925,5.5458,5.6093,5.6641,5.6641,5.6641,5.668,5.6719,5.6719,5.668,5.5746,5.5162,5.4859,5.3879,5.3347,5.3247,5.3416,5.3518,3.0879,3.0439,2.9899,2.8632,2.8441,0.0,0.0,2.8075,2.8495,2.8737,2.9631,3.0535,3.1141,3.2082,3.3298,3.4909,3.5866,3.7514,4.0707,4.3937,4.6279,4.723,4.8413,4.9504,5.027,5.0347,5.059,5.1152,5.1229,5.1229,5.1229,5.0852,5.0484,5.0159,4.9863,4.9538,4.9212,4.9252,4.9299,4.9299,4.9299,4.9149,4.882,4.882,4.882,4.8805,4.9134,4.9643,5.0226,5.0554,5.0883,5.1229,5.1229,5.1229,5.1229,5.1229,5.1229,5.1229,5.1229,5.1229,5.1229,5.1229,5.1229,5.1229,5.1229,5.1293,5.1463,5.1741,5.1849,5.1987,5.2261,5.2397,5.2518,5.2653,5.2698,5.2698,5.2698,5.2698,5.2698,5.2698,5.2698,5.2922,5.3608,5.3157,5.3055,5.4082,5.3334,5.2833,5.3157,5.3201,5.3069,5.2743,5.3608,5.4179,5.4179,5.5131,5.5821,5.6172,5.6211,5.6369,5.668,5.6369,5.6369,5.668,5.5696,5.504,5.4675,5.3833,5.3342,5.3179,5.3314,5.3382,3.2879,3.2502,3.1687,2.9797,2.9495,2.9323,0.0,0.0,0.0,2.8184,2.8675,2.9169,2.925,3.0005,3.1098,3.2472,3.326,3.4162,3.5598,3.9282,4.2474,4.4322,4.6091,4.7775,4.9269,4.9639,5.0156,5.0896,5.0999,5.1088,5.1105,5.087,5.0384,4.9592,4.9614,4.9229,4.8365,4.8655,4.8895,4.894,4.894,4.8626,4.8087,4.8087,4.8087,4.8087,4.8237,4.8955,5.0016,5.0136,5.0584,5.1229,5.1229,5.1229,5.1229,5.1229,5.1229,5.1229,5.1229,5.1229,5.1229,5.1229,5.1229,5.1229,5.1229,5.1339,5.1602,5.188,5.2063,5.217,5.2306,5.2442,5.2608,5.2608,5.2653,5.2698,5.2698,5.2698,5.2698,5.2698,5.2698,5.2877,5.339,5.3069,5.2877,5.3434,5.3024,5.2698,5.2698,5.2698,5.2698,5.2698,5.3201,5.3565,5.3695,5.4685,5.5377,5.5499,5.5499,5.5821,5.6486,5.6013,5.6013,5.668,5.587,5.5104,5.449,5.3911,5.343,5.3076,5.311,5.3246,3.443,3.4131,3.3563,3.138,3.0544,2.9741,2.8094,0.0,2.8184,2.7812,0.0,2.8009,2.8382,0.0,0.0,3.0319,3.0808,3.1625,3.3329,3.4434,3.6819,4.1557,4.3824,4.5753,4.7494,4.8825,4.9668,5.0037,5.0413,5.0662,5.087,5.0662,5.0348,4.9855,4.9077,4.8456,4.7956,4.7436,4.73,4.7519,4.7519,4.7489,4.7429,4.7429,4.7429,4.7459,4.8027,4.8686,4.9404,5.0002,5.0584,5.1229,5.1229,5.1229,5.1229,5.1229,5.1229,5.1229,5.1229,5.1229,5.1229,5.1229,5.1229,5.1229,5.1229,5.1229,5.1369,5.1864,5.1834,5.1757,5.2215,5.2306,5.2352,5.2352,5.2518,5.2698,5.2698,5.2698,5.2698,5.2698,5.2698,5.2698,5.2788,5.2743,5.2698,5.2788,5.2743,5.2698,5.2698,5.2698,5.2698,5.2698,5.2743,5.3024,5.3652,5.3836,5.4179,5.48,5.481,5.5131,5.5814,5.5741,5.6013,5.668,5.5411,5.465,5.449,5.3765,5.318,5.2659,5.2834,5.2938,3.5813,3.5222,3.4474,3.2709,3.1546,3.0517,2.9293,2.8627,2.8242,2.8066,0.0,0.0,0.0,0.0,0.0,0.0,2.9467,2.9769,3.0607,3.14,3.3594,3.8101,4.0456,4.2738,4.5246,4.6522,4.7377,4.793,4.8519,4.9184,5.0023,4.9958,4.9663,4.9153,4.8472,4.7776,4.6918,4.6816,4.6844,4.7062,4.7062,4.7149,4.7309,4.7309,4.7309,4.7309,4.7608,4.8087,4.8716,4.8985,4.9494,5.0122,5.0511,5.0853,5.1229,5.1229,5.1229,5.1229,5.1229,5.1229,5.1229,5.1229,5.1229,5.1229,5.1386,5.1433,5.1509,5.191,5.2017,5.2033,5.2109,5.2337,5.2518,5.2352,5.2518,5.2698,5.2698,5.2698,5.2698,5.2698,5.2698,5.2698,5.2698,5.2698,5.2698,5.2698,5.2698,5.2698,5.2698,5.2698,5.2698,5.2698,5.2698,5.2788,5.3069,5.3477,5.3793,5.4094,5.4475,5.4643,5.4517,5.4893,5.5254,5.5539,5.4931,5.4608,5.4552,5.4224,5.3959,5.3708,5.3023,5.3033,3.6751,3.6162,3.5451,3.4101,3.2855,3.1706,3.0793,2.9689,2.8926,2.8883,2.8662,0.0,0.0,0.0,2.8594,2.9023,0.0,2.8869,2.9199,2.9588,3.1232,3.4925,3.78,4.0408,4.2883,4.4125,4.5099,4.5858,4.6448,4.7255,4.8373,4.8657,4.8583,4.8122,4.7924,4.7362,4.6403,4.6535,4.6712,4.6931,4.6975,4.7106,4.7309,4.7309,4.7309,4.7309,4.7309,4.7668,4.8297,4.8297,4.8686,4.9389,4.9972,5.0495,5.0913,5.1139,5.1229,5.1229,5.1229,5.1229,5.1229,5.1229,5.1229,5.1229,5.1433,5.1479,5.1556,5.1787,5.1972,5.1987,5.1926,5.2155,5.2382,5.2246,5.2427,5.2608,5.2653,5.2698,5.2698,5.2698,5.2698,5.2698,5.2698,5.2698,5.2698,5.2698,5.2698,5.2698,5.2698,5.2698,5.2698,5.2698,5.2698,5.2698,5.2698,5.3157,5.3434,5.3434,5.4082,5.4179,5.3738,5.4168,5.4517,5.4717,5.4517,5.4374,5.4348,5.4154,5.4111,5.4199,5.347,5.3487,3.7089,3.7171,3.6868,3.5778,3.4639,3.3514,3.2491,3.1356,3.0504,3.0449,2.9584,2.9023,2.9453,2.918,2.9043,2.9473,2.918,0.0,0.0,2.9137,2.9433,3.2382,3.6433,3.9451,4.0587,4.2113,4.3336,4.4129,4.4556,4.5034,4.5579,4.6554,4.7012,4.687,4.7372,4.7362,4.6887,4.6668,4.6712,4.6931,4.7149,4.7309,4.7309,4.7309,4.7309,4.7309,4.7309,4.7668,4.8297,4.8297,4.8686,4.9389,4.9972,5.0196,5.0315,5.0943,5.1229,5.1229,5.1229,5.1229,5.1229,5.1229,5.1229,5.1229,5.1229,5.1229,5.1276,5.1526,5.1433,5.1293,5.1526,5.1618,5.1695,5.1926,5.2155,5.2397,5.2653,5.2698,5.2698,5.2698,5.2698,5.2698,5.2698,5.2698,5.2698,5.2698,5.2698,5.2698,5.2698,5.2698,5.2698,5.2698,5.2698,5.2698,5.2698,5.2698,5.2743,5.2743,5.3346,5.3738,5.3695,5.3738,5.404,5.4717,5.4051,5.3703,5.3629,5.2997,5.2964,5.3551,5.4161,5.446,3.6734,3.6545,3.6382,3.6345,3.5399,3.4421,3.4199,3.3146,3.2041,3.1278,3.0648,3.0013,2.927,2.9258,2.9219,2.8789,2.9082,2.9258,0.0,2.8809,2.9085,3.0048,3.3334,3.634,3.8359,3.9542,4.0696,4.1884,4.2488,4.3235,4.4228,4.4795,4.5388,4.6042,4.5993,4.604,4.6225,4.6314,4.6447,4.6712,4.6931,4.7106,4.7309,4.7309,4.7309,4.7309,4.7309,4.7429,4.7638,4.7638,4.7758,4.8087,4.9164,4.9583,4.9733,5.081,5.1229,5.1229,5.1229,5.1229,5.1229,5.1229,5.1229,5.1229,5.1229,5.1229,5.1229,5.1323,5.1386,5.1433,5.1369,5.1602,5.188,5.2002,5.2155,5.2352,5.2653,5.2698,5.2698,5.2698,5.2698,5.2698,5.2698,5.2698,5.2698,5.2698,5.2698,5.2698,5.2698,5.2698,5.2698,5.2698,5.2698,5.2698,5.2698,5.2698,5.2698,5.2698,5.2922,5.3024,5.3024,5.3024,5.3157,5.3377,5.3157,5.3253,5.366,5.3439,5.3649,5.4309,5.4511,5.4581,3.6647,3.6358,3.6347,3.6898,3.6133,3.5365,3.5987,3.4994,3.3763,3.3204,3.2581,3.1802,3.0631,3.0358,2.996,2.8922,2.9082,2.9101,0.0,2.8789,2.9101,2.8945,3.1223,3.3628,3.5802,3.712,3.8319,3.9625,4.0543,4.1361,4.213,4.3177,4.4111,4.4874,4.5281,4.5702,4.6135,4.6269,4.6447,4.6712,4.6931,4.7106,4.7309,4.7309,4.7309,4.7309,4.7309,4.7309,4.7309,4.7309,4.7429,4.7758,4.888,4.9449,4.9733,5.081,5.1229,5.1229,5.1229,5.1229,5.1229,5.1229,5.1229,5.1229,5.1229,5.1229,5.1229,5.1229,5.1293,5.1416,5.1246,5.1509,5.188,5.2002,5.2109,5.2291,5.2518,5.2563,5.2563,5.2563,5.2608,5.2698,5.2698,5.2698,5.2698,5.2698,5.2698,5.2698,5.2698,5.2608,5.2608,5.2698,5.2608,5.2608,5.2698,5.2698,5.2698,5.2698,5.2698,5.2698,5.2698,5.2698,5.2821,5.3067,5.2821,5.3046,5.3676,5.3221,5.3444,5.4348,5.3829,5.3801]}]]